Wetterdaten: Samstag, 23.04.2016
Datum Zeit Temp. A. Feuchte A. Luftdruck Regen Wind Richtung Richtung Sonnenschein ET UV Solar Taupunkt Windchill Windben Empfang
23.04.2016 00:00 10,9 C 69 % 1010,3 hPa 0,0 l/m 3,2 km/h (1 Bft) NO 46 0 min 0,000 mm 0,0 UV-I 0 W/m 5,4 C 10,9 C 4,8 km/h (1 Bft) 100,00 %
23.04.2016 00:02 10,8 C 69 % 1010,3 hPa 0,0 l/m 4,2 km/h (1 Bft) NO 37 0 min 0,000 mm 0,0 UV-I 0 W/m 5,3 C 10,8 C 6,4 km/h (2 Bft) 97,67 %
23.04.2016 00:03 10,8 C 69 % 1010,2 hPa 0,0 l/m 4,9 km/h (1 Bft) NO 53 0 min 0,000 mm 0,0 UV-I 0 W/m 5,3 C 10,8 C 6,4 km/h (2 Bft) 100,00 %
23.04.2016 00:04 10,8 C 69 % 1010,2 hPa 0,0 l/m 4,8 km/h (1 Bft) NO 56 0 min 0,000 mm 0,0 UV-I 0 W/m 5,3 C 10,8 C 6,4 km/h (2 Bft) 100,00 %
23.04.2016 00:05 10,8 C 69 % 1010,3 hPa 0,0 l/m 3,7 km/h (1 Bft) NO 56 0 min 0,000 mm 0,0 UV-I 0 W/m 5,3 C 10,8 C 4,8 km/h (1 Bft) 100,00 %
23.04.2016 00:06 10,8 C 69 % 1010,2 hPa 0,0 l/m 4,2 km/h (1 Bft) NO 55 0 min 0,000 mm 0,0 UV-I 0 W/m 5,3 C 10,8 C 6,4 km/h (2 Bft) 100,00 %
23.04.2016 00:07 10,8 C 69 % 1010,3 hPa 0,0 l/m 4,1 km/h (1 Bft) NO 55 0 min 0,000 mm 0,0 UV-I 0 W/m 5,3 C 10,8 C 6,4 km/h (2 Bft) 100,00 %
23.04.2016 00:08 10,9 C 69 % 1010,3 hPa 0,0 l/m 2,9 km/h (1 Bft) NO 55 0 min 0,000 mm 0,0 UV-I 0 W/m 5,4 C 10,9 C 4,8 km/h (1 Bft) 96,88 %
23.04.2016 00:09 10,8 C 69 % 1010,2 hPa 0,0 l/m 4,3 km/h (1 Bft) NO 55 0 min 0,000 mm 0,0 UV-I 0 W/m 5,3 C 10,8 C 6,4 km/h (2 Bft) 100,00 %
23.04.2016 00:10 10,9 C 69 % 1010,2 hPa 0,0 l/m 3,5 km/h (1 Bft) NO 55 0 min 0,000 mm 0,0 UV-I 0 W/m 5,4 C 10,9 C 4,8 km/h (1 Bft) 91,67 %
23.04.2016 00:11 10,9 C 69 % 1010,2 hPa 0,0 l/m 3,9 km/h (1 Bft) NO 51 0 min 0,000 mm 0,0 UV-I 0 W/m 5,4 C 10,9 C 6,4 km/h (2 Bft) 100,00 %
23.04.2016 00:12 10,9 C 68 % 1010,2 hPa 0,0 l/m 4,5 km/h (1 Bft) NO 51 0 min 0,000 mm 0,0 UV-I 0 W/m 5,2 C 10,9 C 4,8 km/h (1 Bft) 100,00 %
23.04.2016 00:13 10,9 C 68 % 1010,2 hPa 0,0 l/m 4,0 km/h (1 Bft) NO 51 0 min 0,000 mm 0,0 UV-I 0 W/m 5,2 C 10,9 C 6,4 km/h (2 Bft) 100,00 %
23.04.2016 00:14 10,9 C 68 % 1010,1 hPa 0,0 l/m 3,8 km/h (1 Bft) NO 51 0 min 0,000 mm 0,0 UV-I 0 W/m 5,2 C 10,9 C 6,4 km/h (2 Bft) 100,00 %
23.04.2016 00:15 10,9 C 69 % 1010,1 hPa 0,0 l/m 4,0 km/h (1 Bft) O-NO 57 0 min 0,000 mm 0,0 UV-I 0 W/m 5,4 C 10,9 C 6,4 km/h (2 Bft) 100,00 %
23.04.2016 00:16 10,9 C 69 % 1010,1 hPa 0,0 l/m 4,1 km/h (1 Bft) O-NO 58 0 min 0,000 mm 0,0 UV-I 0 W/m 5,4 C 10,9 C 4,8 km/h (1 Bft) 100,00 %
23.04.2016 00:17 10,9 C 69 % 1010,1 hPa 0,0 l/m 4,1 km/h (1 Bft) NO 53 0 min 0,000 mm 0,0 UV-I 0 W/m 5,4 C 10,9 C 6,4 km/h (2 Bft) 100,00 %
23.04.2016 00:18 10,9 C 68 % 1010,1 hPa 0,0 l/m 3,5 km/h (1 Bft) NO 53 0 min 0,000 mm 0,0 UV-I 0 W/m 5,2 C 10,9 C 4,8 km/h (1 Bft) 100,00 %
23.04.2016 00:19 10,9 C 69 % 1010,1 hPa 0,0 l/m 3,2 km/h (1 Bft) NO 51 0 min 0,000 mm 0,0 UV-I 0 W/m 5,4 C 10,9 C 4,8 km/h (1 Bft) 100,00 %
23.04.2016 00:20 10,9 C 69 % 1010,1 hPa 0,0 l/m 5,0 km/h (1 Bft) O-NO 57 0 min 0,000 mm 0,0 UV-I 0 W/m 5,4 C 10,9 C 6,4 km/h (2 Bft) 100,00 %
23.04.2016 00:21 10,9 C 69 % 1010,1 hPa 0,0 l/m 4,4 km/h (1 Bft) O-NO 57 0 min 0,000 mm 0,0 UV-I 0 W/m 5,4 C 10,9 C 6,4 km/h (2 Bft) 100,00 %
23.04.2016 00:22 10,9 C 69 % 1010,0 hPa 0,0 l/m 4,8 km/h (1 Bft) NO 54 0 min 0,000 mm 0,0 UV-I 0 W/m 5,4 C 10,9 C 6,4 km/h (2 Bft) 100,00 %
23.04.2016 00:23 10,9 C 69 % 1010,0 hPa 0,0 l/m 3,1 km/h (1 Bft) NO 54 0 min 0,000 mm 0,0 UV-I 0 W/m 5,4 C 10,9 C 4,8 km/h (1 Bft) 100,00 %
23.04.2016 00:24 10,8 C 69 % 1010,0 hPa 0,0 l/m 4,1 km/h (1 Bft) NO 53 0 min 0,000 mm 0,0 UV-I 0 W/m 5,3 C 10,8 C 4,8 km/h (1 Bft) 99,44 %
23.04.2016 00:25 10,8 C 70 % 1010,0 hPa 0,0 l/m 3,9 km/h (1 Bft) NO 53 0 min 0,000 mm 0,0 UV-I 0 W/m 5,6 C 10,8 C 6,4 km/h (2 Bft) 100,00 %
23.04.2016 00:26 10,7 C 70 % 1010,0 hPa 0,0 l/m 4,9 km/h (1 Bft) NO 43 0 min 0,000 mm 0,0 UV-I 0 W/m 5,5 C 10,7 C 6,4 km/h (2 Bft) 100,00 %
23.04.2016 00:27 10,6 C 70 % 1010,0 hPa 0,0 l/m 4,3 km/h (1 Bft) N-NO 31 0 min 0,000 mm 0,0 UV-I 0 W/m 5,4 C 10,6 C 6,4 km/h (2 Bft) 100,00 %
23.04.2016 00:28 10,5 C 71 % 1010,0 hPa 0,0 l/m 4,3 km/h (1 Bft) N-NO 31 0 min 0,000 mm 0,0 UV-I 0 W/m 5,5 C 10,5 C 6,4 km/h (2 Bft) 100,00 %
23.04.2016 00:29 10,4 C 71 % 1010,0 hPa 0,0 l/m 3,5 km/h (1 Bft) NO 34 0 min 0,000 mm 0,0 UV-I 0 W/m 5,4 C 10,4 C 4,8 km/h (1 Bft) 100,00 %
23.04.2016 00:30 10,4 C 71 % 1009,9 hPa 0,0 l/m 3,0 km/h (1 Bft) NO 34 0 min 0,000 mm 0,0 UV-I 0 W/m 5,4 C 10,4 C 4,8 km/h (1 Bft) 100,00 %
23.04.2016 00:31 10,4 C 71 % 1009,9 hPa 0,0 l/m 2,9 km/h (1 Bft) NO 34 0 min 0,000 mm 0,0 UV-I 0 W/m 5,4 C 10,4 C 4,8 km/h (1 Bft) 95,65 %
23.04.2016 00:32 10,3 C 71 % 1010,0 hPa 0,0 l/m 3,4 km/h (1 Bft) NO 34 0 min 0,000 mm 0,0 UV-I 0 W/m 5,3 C 10,3 C 4,8 km/h (1 Bft) 100,00 %
23.04.2016 00:33 10,3 C 71 % 1010,0 hPa 0,0 l/m 3,4 km/h (1 Bft) NO 36 0 min 0,000 mm 0,0 UV-I 0 W/m 5,3 C 10,3 C 4,8 km/h (1 Bft) 100,00 %
23.04.2016 00:34 10,3 C 71 % 1009,9 hPa 0,0 l/m 3,7 km/h (1 Bft) NO 38 0 min 0,000 mm 0,0 UV-I 0 W/m 5,3 C 10,3 C 4,8 km/h (1 Bft) 100,00 %
23.04.2016 00:35 10,3 C 71 % 1009,9 hPa 0,0 l/m 4,6 km/h (1 Bft) NO 52 0 min 0,000 mm 0,0 UV-I 0 W/m 5,3 C 10,3 C 6,4 km/h (2 Bft) 100,00 %
23.04.2016 00:36 10,3 C 72 % 1009,9 hPa 0,0 l/m 4,8 km/h (1 Bft) NO 52 0 min 0,000 mm 0,0 UV-I 0 W/m 5,5 C 10,3 C 6,4 km/h (2 Bft) 95,83 %
23.04.2016 00:37 10,3 C 72 % 1009,9 hPa 0,0 l/m 3,1 km/h (1 Bft) NO 52 0 min 0,000 mm 0,0 UV-I 0 W/m 5,5 C 10,3 C 4,8 km/h (1 Bft) 90,91 %
23.04.2016 00:38 10,3 C 71 % 1009,9 hPa 0,0 l/m 4,7 km/h (1 Bft) O-NO 61 0 min 0,000 mm 0,0 UV-I 0 W/m 5,3 C 10,3 C 8,0 km/h (2 Bft) 100,00 %
23.04.2016 00:39 10,3 C 71 % 1009,9 hPa 0,0 l/m 5,8 km/h (2 Bft) NO 55 0 min 0,000 mm 0,0 UV-I 0 W/m 5,3 C 10,3 C 8,0 km/h (2 Bft) 100,00 %
23.04.2016 00:40 10,3 C 71 % 1009,8 hPa 0,0 l/m 4,5 km/h (1 Bft) O-NO 70 0 min 0,000 mm 0,0 UV-I 0 W/m 5,3 C 10,3 C 8,0 km/h (2 Bft) 96,30 %
23.04.2016 00:41 10,4 C 71 % 1009,8 hPa 0,0 l/m 5,7 km/h (1 Bft) NO 46 0 min 0,000 mm 0,0 UV-I 0 W/m 5,4 C 10,4 C 9,7 km/h (2 Bft) 100,00 %
23.04.2016 00:42 10,4 C 71 % 1009,8 hPa 0,0 l/m 4,8 km/h (1 Bft) NO 49 0 min 0,000 mm 0,0 UV-I 0 W/m 5,4 C 10,4 C 6,4 km/h (2 Bft) 96,67 %
23.04.2016 00:43 10,5 C 71 % 1009,8 hPa 0,0 l/m 4,6 km/h (1 Bft) NO 46 0 min 0,000 mm 0,0 UV-I 0 W/m 5,5 C 10,5 C 6,4 km/h (2 Bft) 86,96 %
23.04.2016 00:44 10,5 C 71 % 1009,8 hPa 0,0 l/m 2,9 km/h (1 Bft) NO 47 0 min 0,000 mm 0,0 UV-I 0 W/m 5,5 C 10,5 C 4,8 km/h (1 Bft) 100,00 %
23.04.2016 00:45 10,6 C 70 % 1009,8 hPa 0,0 l/m 2,9 km/h (1 Bft) NO 47 0 min 0,000 mm 0,0 UV-I 0 W/m 5,4 C 10,6 C 4,8 km/h (1 Bft) 100,00 %
23.04.2016 00:46 10,6 C 70 % 1009,8 hPa 0,0 l/m 4,8 km/h (1 Bft) NO 55 0 min 0,000 mm 0,0 UV-I 0 W/m 5,4 C 10,6 C 8,0 km/h (2 Bft) 95,83 %
23.04.2016 00:47 10,6 C 70 % 1009,8 hPa 0,0 l/m 3,9 km/h (1 Bft) NO 55 0 min 0,000 mm 0,0 UV-I 0 W/m 5,4 C 10,6 C 4,8 km/h (1 Bft) 95,83 %
23.04.2016 00:48 10,6 C 70 % 1009,8 hPa 0,0 l/m 4,6 km/h (1 Bft) O-NO 60 0 min 0,000 mm 0,0 UV-I 0 W/m 5,4 C 10,6 C 6,4 km/h (2 Bft) 100,00 %
23.04.2016 00:49 10,6 C 70 % 1009,8 hPa 0,0 l/m 5,1 km/h (1 Bft) O-NO 60 0 min 0,000 mm 0,0 UV-I 0 W/m 5,4 C 10,6 C 6,4 km/h (2 Bft) 96,30 %
23.04.2016 00:50 10,6 C 70 % 1009,8 hPa 0,0 l/m 4,8 km/h (1 Bft) NO 49 0 min 0,000 mm 0,0 UV-I 0 W/m 5,4 C 10,6 C 8,0 km/h (2 Bft) 100,00 %
23.04.2016 00:51 10,6 C 71 % 1009,8 hPa 0,0 l/m 4,3 km/h (1 Bft) NO 46 0 min 0,000 mm 0,0 UV-I 0 W/m 5,6 C 10,6 C 4,8 km/h (1 Bft) 95,83 %
23.04.2016 00:52 10,5 C 71 % 1009,7 hPa 0,0 l/m 5,8 km/h (2 Bft) O-NO 67 0 min 0,000 mm 0,0 UV-I 0 W/m 5,5 C 10,5 C 8,0 km/h (2 Bft) 96,15 %
23.04.2016 00:53 10,5 C 71 % 1009,7 hPa 0,0 l/m 5,9 km/h (2 Bft) NO 36 0 min 0,000 mm 0,0 UV-I 0 W/m 5,5 C 10,5 C 8,0 km/h (2 Bft) 100,00 %
23.04.2016 00:54 10,4 C 72 % 1009,7 hPa 0,0 l/m 6,0 km/h (2 Bft) NO 40 0 min 0,000 mm 0,0 UV-I 0 W/m 5,6 C 10,4 C 8,0 km/h (2 Bft) 96,15 %
23.04.2016 00:55 10,3 C 72 % 1009,7 hPa 0,0 l/m 5,8 km/h (2 Bft) O-NO 60 0 min 0,000 mm 0,0 UV-I 0 W/m 5,5 C 10,3 C 9,7 km/h (2 Bft) 96,30 %
23.04.2016 00:56 10,3 C 72 % 1009,7 hPa 0,0 l/m 5,7 km/h (1 Bft) NO 46 0 min 0,000 mm 0,0 UV-I 0 W/m 5,5 C 10,3 C 8,0 km/h (2 Bft) 96,15 %
23.04.2016 00:57 10,2 C 72 % 1009,7 hPa 0,0 l/m 4,7 km/h (1 Bft) NO 53 0 min 0,000 mm 0,0 UV-I 0 W/m 5,4 C 10,2 C 6,4 km/h (2 Bft) 100,00 %
23.04.2016 00:58 10,2 C 72 % 1009,7 hPa 0,0 l/m 5,5 km/h (1 Bft) N 9 0 min 0,000 mm 0,0 UV-I 0 W/m 5,4 C 10,2 C 8,0 km/h (2 Bft) 95,65 %
23.04.2016 00:59 10,2 C 72 % 1009,7 hPa 0,0 l/m 6,0 km/h (2 Bft) NO 43 0 min 0,000 mm 0,0 UV-I 0 W/m 5,4 C 10,2 C 8,0 km/h (2 Bft) 100,00 %
23.04.2016 01:00 10,2 C 72 % 1009,7 hPa 0,0 l/m 6,3 km/h (2 Bft) NO 50 0 min 0,025 mm 0,0 UV-I 0 W/m 5,4 C 10,2 C 8,0 km/h (2 Bft) 96,15 %
23.04.2016 01:01 10,2 C 72 % 1009,7 hPa 0,0 l/m 7,4 km/h (2 Bft) NO 41 0 min 0,000 mm 0,0 UV-I 0 W/m 5,4 C 9,5 C 9,7 km/h (2 Bft) 96,30 %
23.04.2016 01:02 10,1 C 73 % 1009,7 hPa 0,0 l/m 6,5 km/h (2 Bft) NO 46 0 min 0,000 mm 0,0 UV-I 0 W/m 5,5 C 10,1 C 9,7 km/h (2 Bft) 100,00 %
23.04.2016 01:03 10,1 C 73 % 1009,7 hPa 0,0 l/m 6,4 km/h (2 Bft) NO 50 0 min 0,000 mm 0,0 UV-I 0 W/m 5,5 C 10,1 C 8,0 km/h (2 Bft) 96,30 %
23.04.2016 01:04 10,0 C 73 % 1009,7 hPa 0,0 l/m 6,6 km/h (2 Bft) NO 49 0 min 0,000 mm 0,0 UV-I 0 W/m 5,4 C 9,9 C 9,7 km/h (2 Bft) 100,00 %
23.04.2016 01:05 10,0 C 73 % 1009,7 hPa 0,0 l/m 5,2 km/h (1 Bft) NO 37 0 min 0,000 mm 0,0 UV-I 0 W/m 5,4 C 10,0 C 6,4 km/h (2 Bft) 91,67 %
23.04.2016 01:06 9,9 C 73 % 1009,7 hPa 0,0 l/m 7,5 km/h (2 Bft) N-NO 32 0 min 0,000 mm 0,0 UV-I 0 W/m 5,3 C 9,1 C 9,7 km/h (2 Bft) 100,00 %
23.04.2016 01:07 9,9 C 74 % 1009,7 hPa 0,0 l/m 7,2 km/h (2 Bft) NO 45 0 min 0,000 mm 0,0 UV-I 0 W/m 5,5 C 9,3 C 9,7 km/h (2 Bft) 96,15 %
23.04.2016 01:08 9,9 C 74 % 1009,7 hPa 0,0 l/m 5,3 km/h (1 Bft) O-NO 65 0 min 0,000 mm 0,0 UV-I 0 W/m 5,5 C 9,9 C 8,0 km/h (2 Bft) 96,55 %
23.04.2016 01:09 9,9 C 73 % 1009,7 hPa 0,0 l/m 5,4 km/h (1 Bft) O-NO 62 0 min 0,000 mm 0,0 UV-I 0 W/m 5,3 C 9,9 C 6,4 km/h (2 Bft) 100,00 %
23.04.2016 01:10 9,9 C 74 % 1009,7 hPa 0,0 l/m 6,3 km/h (2 Bft) NO 44 0 min 0,000 mm 0,0 UV-I 0 W/m 5,5 C 9,9 C 9,7 km/h (2 Bft) 96,67 %
23.04.2016 01:11 9,9 C 73 % 1009,7 hPa 0,0 l/m 5,2 km/h (1 Bft) O-NO 60 0 min 0,000 mm 0,0 UV-I 0 W/m 5,3 C 9,9 C 8,0 km/h (2 Bft) 100,00 %
23.04.2016 01:12 9,9 C 73 % 1009,7 hPa 0,0 l/m 5,4 km/h (1 Bft) NO 42 0 min 0,000 mm 0,0 UV-I 0 W/m 5,3 C 9,9 C 6,4 km/h (2 Bft) 100,00 %
23.04.2016 01:13 9,9 C 73 % 1009,7 hPa 0,0 l/m 6,0 km/h (2 Bft) O-NO 57 0 min 0,000 mm 0,0 UV-I 0 W/m 5,3 C 9,9 C 8,0 km/h (2 Bft) 96,15 %
23.04.2016 01:14 9,9 C 73 % 1009,7 hPa 0,0 l/m 6,3 km/h (2 Bft) O-NO 57 0 min 0,000 mm 0,0 UV-I 0 W/m 5,3 C 9,9 C 9,7 km/h (2 Bft) 95,83 %
23.04.2016 01:15 9,9 C 73 % 1009,6 hPa 0,0 l/m 6,8 km/h (2 Bft) NO 46 0 min 0,000 mm 0,0 UV-I 0 W/m 5,3 C 9,6 C 9,7 km/h (2 Bft) 96,15 %
23.04.2016 01:16 10,0 C 73 % 1009,6 hPa 0,0 l/m 10,2 km/h (2 Bft) O-NO 65 0 min 0,000 mm 0,0 UV-I 0 W/m 5,4 C 7,5 C 14,5 km/h (3 Bft) 100,00 %
23.04.2016 01:17 10,0 C 73 % 1009,6 hPa 0,0 l/m 8,4 km/h (2 Bft) NO 54 0 min 0,000 mm 0,0 UV-I 0 W/m 5,4 C 8,6 C 11,3 km/h (2 Bft) 100,00 %
23.04.2016 01:18 10,1 C 72 % 1009,6 hPa 0,0 l/m 8,6 km/h (2 Bft) NO 53 0 min 0,000 mm 0,0 UV-I 0 W/m 5,3 C 8,6 C 11,3 km/h (2 Bft) 95,83 %
23.04.2016 01:19 10,1 C 72 % 1009,6 hPa 0,0 l/m 6,7 km/h (2 Bft) NO 51 0 min 0,000 mm 0,0 UV-I 0 W/m 5,3 C 9,9 C 8,0 km/h (2 Bft) 96,15 %
23.04.2016 01:20 10,1 C 72 % 1009,6 hPa 0,0 l/m 6,9 km/h (2 Bft) NO 53 0 min 0,000 mm 0,0 UV-I 0 W/m 5,3 C 9,7 C 9,7 km/h (2 Bft) 100,00 %
23.04.2016 01:21 10,1 C 72 % 1009,6 hPa 0,0 l/m 6,6 km/h (2 Bft) O-NO 64 0 min 0,000 mm 0,0 UV-I 0 W/m 5,3 C 10,0 C 9,7 km/h (2 Bft) 100,00 %
23.04.2016 01:22 10,1 C 72 % 1009,6 hPa 0,0 l/m 6,8 km/h (2 Bft) NO 50 0 min 0,000 mm 0,0 UV-I 0 W/m 5,3 C 9,8 C 9,7 km/h (2 Bft) 100,00 %
23.04.2016 01:23 10,2 C 72 % 1009,5 hPa 0,0 l/m 6,0 km/h (2 Bft) NO 40 0 min 0,000 mm 0,0 UV-I 0 W/m 5,4 C 10,2 C 8,0 km/h (2 Bft) 100,00 %
23.04.2016 01:24 10,2 C 73 % 1009,5 hPa 0,0 l/m 6,3 km/h (2 Bft) NO 53 0 min 0,000 mm 0,0 UV-I 0 W/m 5,6 C 10,2 C 9,7 km/h (2 Bft) 100,00 %
23.04.2016 01:25 10,1 C 73 % 1009,5 hPa 0,0 l/m 6,1 km/h (2 Bft) O-NO 63 0 min 0,000 mm 0,0 UV-I 0 W/m 5,5 C 10,1 C 8,0 km/h (2 Bft) 96,15 %
23.04.2016 01:26 10,1 C 72 % 1009,5 hPa 0,0 l/m 4,1 km/h (1 Bft) O-NO 57 0 min 0,000 mm 0,0 UV-I 0 W/m 5,3 C 10,1 C 4,8 km/h (1 Bft) 100,00 %
23.04.2016 01:27 10,1 C 72 % 1009,5 hPa 0,0 l/m 4,8 km/h (1 Bft) O-NO 61 0 min 0,000 mm 0,0 UV-I 0 W/m 5,3 C 10,1 C 6,4 km/h (2 Bft) 100,00 %
23.04.2016 01:28 10,1 C 72 % 1009,4 hPa 0,0 l/m 4,1 km/h (1 Bft) O-NO 64 0 min 0,000 mm 0,0 UV-I 0 W/m 5,3 C 10,1 C 6,4 km/h (2 Bft) 96,15 %
23.04.2016 01:29 10,1 C 72 % 1009,4 hPa 0,0 l/m 4,4 km/h (1 Bft) O-NO 58 0 min 0,000 mm 0,0 UV-I 0 W/m 5,3 C 10,1 C 6,4 km/h (2 Bft) 100,00 %
23.04.2016 01:30 10,1 C 72 % 1009,5 hPa 0,0 l/m 5,9 km/h (2 Bft) O-NO 60 0 min 0,000 mm 0,0 UV-I 0 W/m 5,3 C 10,1 C 8,0 km/h (2 Bft) 100,00 %
23.04.2016 01:31 10,1 C 73 % 1009,4 hPa 0,0 l/m 6,1 km/h (2 Bft) O-NO 64 0 min 0,000 mm 0,0 UV-I 0 W/m 5,5 C 10,1 C 8,0 km/h (2 Bft) 100,00 %
23.04.2016 01:32 10,1 C 72 % 1009,4 hPa 0,0 l/m 7,0 km/h (2 Bft) O-NO 63 0 min 0,000 mm 0,0 UV-I 0 W/m 5,3 C 9,7 C 9,7 km/h (2 Bft) 95,65 %
23.04.2016 01:33 10,1 C 72 % 1009,4 hPa 0,0 l/m 6,4 km/h (2 Bft) O-NO 62 0 min 0,000 mm 0,0 UV-I 0 W/m 5,3 C 10,1 C 8,0 km/h (2 Bft) 100,00 %
23.04.2016 01:34 10,1 C 72 % 1009,4 hPa 0,0 l/m 7,4 km/h (2 Bft) O-NO 76 0 min 0,000 mm 0,0 UV-I 0 W/m 5,3 C 9,4 C 12,9 km/h (3 Bft) 100,00 %
23.04.2016 01:35 10,1 C 72 % 1009,4 hPa 0,0 l/m 7,2 km/h (2 Bft) NO 45 0 min 0,000 mm 0,0 UV-I 0 W/m 5,3 C 9,5 C 9,7 km/h (2 Bft) 96,30 %
23.04.2016 01:36 10,1 C 72 % 1009,3 hPa 0,0 l/m 6,3 km/h (2 Bft) NO 44 0 min 0,000 mm 0,0 UV-I 0 W/m 5,3 C 10,1 C 9,7 km/h (2 Bft) 100,00 %
23.04.2016 01:37 10,1 C 72 % 1009,3 hPa 0,0 l/m 6,5 km/h (2 Bft) O-NO 58 0 min 0,000 mm 0,0 UV-I 0 W/m 5,3 C 10,1 C 9,7 km/h (2 Bft) 100,00 %
23.04.2016 01:38 10,1 C 73 % 1009,3 hPa 0,0 l/m 8,1 km/h (2 Bft) O-NO 65 0 min 0,000 mm 0,0 UV-I 0 W/m 5,5 C 8,9 C 9,7 km/h (2 Bft) 100,00 %
23.04.2016 01:39 10,1 C 72 % 1009,3 hPa 0,0 l/m 7,7 km/h (2 Bft) NO 52 0 min 0,000 mm 0,0 UV-I 0 W/m 5,3 C 9,2 C 12,9 km/h (3 Bft) 100,00 %
23.04.2016 01:40 10,1 C 72 % 1009,3 hPa 0,0 l/m 7,8 km/h (2 Bft) O-NO 69 0 min 0,000 mm 0,0 UV-I 0 W/m 5,3 C 9,1 C 9,7 km/h (2 Bft) 100,00 %
23.04.2016 01:41 10,1 C 72 % 1009,3 hPa 0,0 l/m 6,4 km/h (2 Bft) NO 55 0 min 0,000 mm 0,0 UV-I 0 W/m 5,3 C 10,1 C 9,7 km/h (2 Bft) 100,00 %
23.04.2016 01:42 10,1 C 72 % 1009,3 hPa 0,0 l/m 6,9 km/h (2 Bft) O-NO 63 0 min 0,000 mm 0,0 UV-I 0 W/m 5,3 C 9,7 C 9,7 km/h (2 Bft) 96,55 %
23.04.2016 01:43 10,1 C 72 % 1009,2 hPa 0,0 l/m 5,2 km/h (1 Bft) O-NO 65 0 min 0,000 mm 0,0 UV-I 0 W/m 5,3 C 10,1 C 8,0 km/h (2 Bft) 100,00 %
23.04.2016 01:44 10,1 C 72 % 1009,2 hPa 0,0 l/m 4,7 km/h (1 Bft) NO 53 0 min 0,000 mm 0,0 UV-I 0 W/m 5,3 C 10,1 C 6,4 km/h (2 Bft) 95,65 %
23.04.2016 01:45 10,1 C 72 % 1009,2 hPa 0,0 l/m 5,7 km/h (1 Bft) N-NO 31 0 min 0,000 mm 0,0 UV-I 0 W/m 5,3 C 10,1 C 6,4 km/h (2 Bft) 100,00 %
23.04.2016 01:46 10,0 C 73 % 1009,2 hPa 0,0 l/m 4,4 km/h (1 Bft) NO 36 0 min 0,000 mm 0,0 UV-I 0 W/m 5,4 C 10,0 C 6,4 km/h (2 Bft) 100,00 %
23.04.2016 01:47 9,9 C 73 % 1009,2 hPa 0,0 l/m 6,4 km/h (2 Bft) NO 36 0 min 0,000 mm 0,0 UV-I 0 W/m 5,3 C 9,9 C 8,0 km/h (2 Bft) 100,00 %
23.04.2016 01:48 9,9 C 74 % 1009,3 hPa 0,0 l/m 5,9 km/h (2 Bft) N-NO 19 0 min 0,000 mm 0,0 UV-I 0 W/m 5,5 C 9,9 C 9,7 km/h (2 Bft) 100,00 %
23.04.2016 01:49 9,8 C 74 % 1009,2 hPa 0,0 l/m 5,5 km/h (1 Bft) NO 37 0 min 0,000 mm 0,0 UV-I 0 W/m 5,4 C 9,8 C 9,7 km/h (2 Bft) 98,46 %
23.04.2016 01:50 9,8 C 74 % 1009,2 hPa 0,0 l/m 5,6 km/h (1 Bft) NO 34 0 min 0,000 mm 0,0 UV-I 0 W/m 5,4 C 9,8 C 9,7 km/h (2 Bft) 100,00 %
23.04.2016 01:51 9,8 C 74 % 1009,2 hPa 0,0 l/m 6,4 km/h (2 Bft) NO 42 0 min 0,000 mm 0,0 UV-I 0 W/m 5,4 C 9,8 C 8,0 km/h (2 Bft) 96,15 %
23.04.2016 01:52 9,7 C 74 % 1009,2 hPa 0,0 l/m 5,7 km/h (1 Bft) NO 52 0 min 0,000 mm 0,0 UV-I 0 W/m 5,3 C 9,7 C 6,4 km/h (2 Bft) 100,00 %
23.04.2016 01:53 9,7 C 74 % 1009,2 hPa 0,0 l/m 5,4 km/h (1 Bft) N-NO 33 0 min 0,000 mm 0,0 UV-I 0 W/m 5,3 C 9,7 C 6,4 km/h (2 Bft) 96,15 %
23.04.2016 01:54 9,7 C 74 % 1009,2 hPa 0,0 l/m 4,9 km/h (1 Bft) NO 44 0 min 0,000 mm 0,0 UV-I 0 W/m 5,3 C 9,7 C 6,4 km/h (2 Bft) 100,00 %
23.04.2016 01:55 9,7 C 74 % 1009,2 hPa 0,0 l/m 5,3 km/h (1 Bft) NO 44 0 min 0,000 mm 0,0 UV-I 0 W/m 5,3 C 9,7 C 8,0 km/h (2 Bft) 100,00 %
23.04.2016 01:56 9,7 C 74 % 1009,2 hPa 0,0 l/m 5,1 km/h (1 Bft) NO 44 0 min 0,000 mm 0,0 UV-I 0 W/m 5,3 C 9,7 C 6,4 km/h (2 Bft) 100,00 %
23.04.2016 01:57 9,7 C 74 % 1009,2 hPa 0,0 l/m 6,0 km/h (2 Bft) NO 51 0 min 0,000 mm 0,0 UV-I 0 W/m 5,3 C 9,7 C 8,0 km/h (2 Bft) 95,65 %
23.04.2016 01:58 9,6 C 74 % 1009,1 hPa 0,0 l/m 5,7 km/h (1 Bft) NO 48 0 min 0,000 mm 0,0 UV-I 0 W/m 5,2 C 9,6 C 8,0 km/h (2 Bft) 100,00 %
23.04.2016 01:59 9,6 C 74 % 1009,1 hPa 0,0 l/m 7,6 km/h (2 Bft) N-NO 31 0 min 0,000 mm 0,0 UV-I 0 W/m 5,2 C 8,7 C 11,3 km/h (2 Bft) 96,15 %
23.04.2016 02:00 9,6 C 74 % 1009,1 hPa 0,0 l/m 5,9 km/h (2 Bft) NO 34 0 min 0,026 mm 0,0 UV-I 0 W/m 5,2 C 9,6 C 6,4 km/h (2 Bft) 100,00 %
23.04.2016 02:01 9,6 C 75 % 1009,1 hPa 0,0 l/m 5,9 km/h (2 Bft) NO 34 0 min 0,000 mm 0,0 UV-I 0 W/m 5,4 C 9,6 C 8,0 km/h (2 Bft) 100,00 %
23.04.2016 02:02 9,5 C 75 % 1009,1 hPa 0,0 l/m 6,4 km/h (2 Bft) NO 52 0 min 0,000 mm 0,0 UV-I 0 W/m 5,3 C 9,5 C 9,7 km/h (2 Bft) 100,00 %
23.04.2016 02:03 9,4 C 75 % 1009,1 hPa 0,0 l/m 6,9 km/h (2 Bft) NO 49 0 min 0,000 mm 0,0 UV-I 0 W/m 5,2 C 9,0 C 9,7 km/h (2 Bft) 100,00 %
23.04.2016 02:04 9,4 C 75 % 1009,1 hPa 0,0 l/m 6,0 km/h (2 Bft) N-NO 24 0 min 0,000 mm 0,0 UV-I 0 W/m 5,2 C 9,4 C 8,0 km/h (2 Bft) 100,00 %
23.04.2016 02:05 9,4 C 75 % 1009,0 hPa 0,0 l/m 6,4 km/h (2 Bft) NO 49 0 min 0,000 mm 0,0 UV-I 0 W/m 5,2 C 9,4 C 8,0 km/h (2 Bft) 100,00 %
23.04.2016 02:06 9,3 C 75 % 1009,0 hPa 0,0 l/m 7,0 km/h (2 Bft) NO 40 0 min 0,000 mm 0,0 UV-I 0 W/m 5,1 C 8,9 C 12,9 km/h (3 Bft) 100,00 %
23.04.2016 02:07 9,3 C 75 % 1009,0 hPa 0,0 l/m 6,9 km/h (2 Bft) NO 39 0 min 0,000 mm 0,0 UV-I 0 W/m 5,1 C 8,9 C 9,7 km/h (2 Bft) 100,00 %
23.04.2016 02:08 9,3 C 75 % 1009,0 hPa 0,0 l/m 7,3 km/h (2 Bft) NO 42 0 min 0,000 mm 0,0 UV-I 0 W/m 5,1 C 8,6 C 9,7 km/h (2 Bft) 100,00 %
23.04.2016 02:09 9,3 C 75 % 1008,9 hPa 0,0 l/m 6,5 km/h (2 Bft) NO 36 0 min 0,000 mm 0,0 UV-I 0 W/m 5,1 C 9,3 C 9,7 km/h (2 Bft) 96,55 %
23.04.2016 02:10 9,3 C 75 % 1008,9 hPa 0,0 l/m 6,8 km/h (2 Bft) NO 52 0 min 0,000 mm 0,0 UV-I 0 W/m 5,1 C 9,0 C 8,0 km/h (2 Bft) 100,00 %
23.04.2016 02:11 9,3 C 75 % 1009,0 hPa 0,0 l/m 6,6 km/h (2 Bft) NO 36 0 min 0,000 mm 0,0 UV-I 0 W/m 5,1 C 9,2 C 8,0 km/h (2 Bft) 100,00 %
23.04.2016 02:12 9,3 C 75 % 1009,0 hPa 0,0 l/m 7,4 km/h (2 Bft) NO 35 0 min 0,000 mm 0,0 UV-I 0 W/m 5,1 C 8,6 C 11,3 km/h (2 Bft) 100,00 %
23.04.2016 02:13 9,3 C 75 % 1009,0 hPa 0,0 l/m 5,2 km/h (1 Bft) N-NO 24 0 min 0,000 mm 0,0 UV-I 0 W/m 5,1 C 9,3 C 8,0 km/h (2 Bft) 100,00 %
23.04.2016 02:14 9,3 C 75 % 1008,9 hPa 0,0 l/m 6,6 km/h (2 Bft) N-NO 17 0 min 0,000 mm 0,0 UV-I 0 W/m 5,1 C 9,2 C 8,0 km/h (2 Bft) 100,00 %
23.04.2016 02:15 9,3 C 75 % 1008,9 hPa 0,0 l/m 7,5 km/h (2 Bft) NO 36 0 min 0,000 mm 0,0 UV-I 0 W/m 5,1 C 8,5 C 9,7 km/h (2 Bft) 100,00 %
23.04.2016 02:16 9,3 C 75 % 1008,9 hPa 0,0 l/m 6,3 km/h (2 Bft) N-NO 22 0 min 0,000 mm 0,0 UV-I 0 W/m 5,1 C 9,3 C 8,0 km/h (2 Bft) 96,15 %
23.04.2016 02:17 9,3 C 75 % 1008,9 hPa 0,0 l/m 7,6 km/h (2 Bft) N-NO 26 0 min 0,000 mm 0,0 UV-I 0 W/m 5,1 C 8,4 C 11,3 km/h (2 Bft) 100,00 %
23.04.2016 02:18 9,3 C 75 % 1008,9 hPa 0,0 l/m 6,4 km/h (2 Bft) N-NO 19 0 min 0,000 mm 0,0 UV-I 0 W/m 5,1 C 9,3 C 8,0 km/h (2 Bft) 100,00 %
23.04.2016 02:19 9,3 C 75 % 1008,9 hPa 0,0 l/m 7,4 km/h (2 Bft) N-NO 32 0 min 0,000 mm 0,0 UV-I 0 W/m 5,1 C 8,6 C 11,3 km/h (2 Bft) 100,00 %
23.04.2016 02:20 9,3 C 75 % 1008,9 hPa 0,0 l/m 6,5 km/h (2 Bft) NO 42 0 min 0,000 mm 0,0 UV-I 0 W/m 5,1 C 9,3 C 9,7 km/h (2 Bft) 95,65 %
23.04.2016 02:21 9,3 C 75 % 1008,8 hPa 0,0 l/m 7,1 km/h (2 Bft) N-NO 26 0 min 0,000 mm 0,0 UV-I 0 W/m 5,1 C 8,8 C 8,0 km/h (2 Bft) 100,00 %
23.04.2016 02:22 9,3 C 74 % 1008,8 hPa 0,0 l/m 5,6 km/h (1 Bft) N 11 0 min 0,000 mm 0,0 UV-I 0 W/m 4,9 C 9,3 C 8,0 km/h (2 Bft) 100,00 %
23.04.2016 02:23 9,3 C 75 % 1008,8 hPa 0,0 l/m 5,2 km/h (1 Bft) N-NO 32 0 min 0,000 mm 0,0 UV-I 0 W/m 5,1 C 9,3 C 6,4 km/h (2 Bft) 100,00 %
23.04.2016 02:24 9,3 C 75 % 1008,8 hPa 0,0 l/m 5,7 km/h (1 Bft) NO 47 0 min 0,000 mm 0,0 UV-I 0 W/m 5,1 C 9,3 C 8,0 km/h (2 Bft) 100,00 %
23.04.2016 02:25 9,3 C 74 % 1008,8 hPa 0,0 l/m 5,9 km/h (2 Bft) NO 45 0 min 0,000 mm 0,0 UV-I 0 W/m 4,9 C 9,3 C 9,7 km/h (2 Bft) 100,00 %
23.04.2016 02:26 9,3 C 74 % 1008,8 hPa 0,0 l/m 6,4 km/h (2 Bft) NO 56 0 min 0,000 mm 0,0 UV-I 0 W/m 4,9 C 9,3 C 8,0 km/h (2 Bft) 100,00 %
23.04.2016 02:27 9,4 C 74 % 1008,8 hPa 0,0 l/m 6,1 km/h (2 Bft) O-NO 78 0 min 0,000 mm 0,0 UV-I 0 W/m 5,0 C 9,4 C 8,0 km/h (2 Bft) 100,00 %
23.04.2016 02:28 9,4 C 73 % 1008,8 hPa 0,0 l/m 5,8 km/h (2 Bft) O-NO 57 0 min 0,000 mm 0,0 UV-I 0 W/m 4,8 C 9,4 C 6,4 km/h (2 Bft) 100,00 %
23.04.2016 02:29 9,4 C 73 % 1008,8 hPa 0,0 l/m 5,1 km/h (1 Bft) NO 48 0 min 0,000 mm 0,0 UV-I 0 W/m 4,8 C 9,4 C 8,0 km/h (2 Bft) 100,00 %
23.04.2016 02:30 9,4 C 73 % 1008,8 hPa 0,0 l/m 5,8 km/h (2 Bft) NO 42 0 min 0,000 mm 0,0 UV-I 0 W/m 4,8 C 9,4 C 6,4 km/h (2 Bft) 100,00 %
23.04.2016 02:31 9,5 C 73 % 1008,8 hPa 0,0 l/m 4,7 km/h (1 Bft) NO 35 0 min 0,000 mm 0,0 UV-I 0 W/m 4,9 C 9,5 C 6,4 km/h (2 Bft) 100,00 %
23.04.2016 02:32 9,5 C 72 % 1008,8 hPa 0,0 l/m 3,8 km/h (1 Bft) NO 47 0 min 0,000 mm 0,0 UV-I 0 W/m 4,7 C 9,5 C 6,4 km/h (2 Bft) 100,00 %
23.04.2016 02:33 9,5 C 72 % 1008,7 hPa 0,0 l/m 5,8 km/h (2 Bft) NO 42 0 min 0,000 mm 0,0 UV-I 0 W/m 4,7 C 9,5 C 8,0 km/h (2 Bft) 100,00 %
23.04.2016 02:34 9,5 C 72 % 1008,7 hPa 0,0 l/m 4,4 km/h (1 Bft) NO 40 0 min 0,000 mm 0,0 UV-I 0 W/m 4,7 C 9,5 C 6,4 km/h (2 Bft) 100,00 %
23.04.2016 02:35 9,5 C 72 % 1008,7 hPa 0,0 l/m 5,7 km/h (1 Bft) NO 55 0 min 0,000 mm 0,0 UV-I 0 W/m 4,7 C 9,5 C 8,0 km/h (2 Bft) 95,65 %
23.04.2016 02:36 9,5 C 72 % 1008,7 hPa 0,0 l/m 4,6 km/h (1 Bft) NO 51 0 min 0,000 mm 0,0 UV-I 0 W/m 4,7 C 9,5 C 4,8 km/h (1 Bft) 100,00 %
23.04.2016 02:37 9,4 C 72 % 1008,7 hPa 0,0 l/m 4,7 km/h (1 Bft) O-NO 61 0 min 0,000 mm 0,0 UV-I 0 W/m 4,6 C 9,4 C 6,4 km/h (2 Bft) 100,00 %
23.04.2016 02:38 9,4 C 73 % 1008,7 hPa 0,0 l/m 5,3 km/h (1 Bft) NO 43 0 min 0,000 mm 0,0 UV-I 0 W/m 4,8 C 9,4 C 8,0 km/h (2 Bft) 100,00 %
23.04.2016 02:39 9,3 C 73 % 1008,6 hPa 0,0 l/m 4,1 km/h (1 Bft) O-NO 59 0 min 0,000 mm 0,0 UV-I 0 W/m 4,7 C 9,3 C 4,8 km/h (1 Bft) 100,00 %
23.04.2016 02:40 9,3 C 73 % 1008,6 hPa 0,0 l/m 4,8 km/h (1 Bft) NO 51 0 min 0,000 mm 0,0 UV-I 0 W/m 4,7 C 9,3 C 6,4 km/h (2 Bft) 100,00 %
23.04.2016 02:41 9,3 C 72 % 1008,6 hPa 0,0 l/m 5,8 km/h (2 Bft) NO 49 0 min 0,000 mm 0,0 UV-I 0 W/m 4,5 C 9,3 C 8,0 km/h (2 Bft) 96,15 %
23.04.2016 02:42 9,3 C 73 % 1008,6 hPa 0,0 l/m 4,7 km/h (1 Bft) NO 53 0 min 0,000 mm 0,0 UV-I 0 W/m 4,7 C 9,3 C 8,0 km/h (2 Bft) 100,00 %
23.04.2016 02:43 9,3 C 73 % 1008,6 hPa 0,0 l/m 6,0 km/h (2 Bft) O-NO 66 0 min 0,000 mm 0,0 UV-I 0 W/m 4,7 C 9,3 C 12,9 km/h (3 Bft) 100,00 %
23.04.2016 02:44 9,3 C 72 % 1008,6 hPa 0,0 l/m 5,6 km/h (1 Bft) O-NO 59 0 min 0,000 mm 0,0 UV-I 0 W/m 4,5 C 9,3 C 6,4 km/h (2 Bft) 100,00 %
23.04.2016 02:45 9,3 C 72 % 1008,6 hPa 0,0 l/m 5,2 km/h (1 Bft) O-NO 59 0 min 0,000 mm 0,0 UV-I 0 W/m 4,5 C 9,3 C 8,0 km/h (2 Bft) 91,30 %
23.04.2016 02:46 9,3 C 72 % 1008,6 hPa 0,0 l/m 8,5 km/h (2 Bft) O-NO 57 0 min 0,000 mm 0,0 UV-I 0 W/m 4,5 C 7,8 C 12,9 km/h (3 Bft) 100,00 %
23.04.2016 02:47 9,3 C 72 % 1008,6 hPa 0,0 l/m 6,0 km/h (2 Bft) O-NO 63 0 min 0,000 mm 0,0 UV-I 0 W/m 4,5 C 9,3 C 9,7 km/h (2 Bft) 95,83 %
23.04.2016 02:48 9,3 C 72 % 1008,6 hPa 0,0 l/m 6,8 km/h (2 Bft) O-NO 62 0 min 0,000 mm 0,0 UV-I 0 W/m 4,5 C 9,0 C 8,0 km/h (2 Bft) 100,00 %
23.04.2016 02:49 9,3 C 72 % 1008,6 hPa 0,0 l/m 6,7 km/h (2 Bft) O-NO 63 0 min 0,000 mm 0,0 UV-I 0 W/m 4,5 C 9,1 C 9,7 km/h (2 Bft) 96,30 %
23.04.2016 02:50 9,3 C 72 % 1008,6 hPa 0,0 l/m 4,8 km/h (1 Bft) NO 51 0 min 0,000 mm 0,0 UV-I 0 W/m 4,5 C 9,3 C 6,4 km/h (2 Bft) 100,00 %
23.04.2016 02:51 9,4 C 72 % 1008,5 hPa 0,0 l/m 5,8 km/h (2 Bft) NO 50 0 min 0,000 mm 0,0 UV-I 0 W/m 4,6 C 9,4 C 9,7 km/h (2 Bft) 95,65 %
23.04.2016 02:52 9,4 C 72 % 1008,5 hPa 0,0 l/m 6,0 km/h (2 Bft) O-NO 58 0 min 0,000 mm 0,0 UV-I 0 W/m 4,6 C 9,4 C 8,0 km/h (2 Bft) 100,00 %
23.04.2016 02:53 9,4 C 72 % 1008,5 hPa 0,0 l/m 6,8 km/h (2 Bft) NO 49 0 min 0,000 mm 0,0 UV-I 0 W/m 4,6 C 9,1 C 9,7 km/h (2 Bft) 96,30 %
23.04.2016 02:54 9,4 C 72 % 1008,5 hPa 0,0 l/m 6,0 km/h (2 Bft) NO 44 0 min 0,000 mm 0,0 UV-I 0 W/m 4,6 C 9,4 C 8,0 km/h (2 Bft) 91,30 %
23.04.2016 02:55 9,4 C 72 % 1008,5 hPa 0,0 l/m 6,8 km/h (2 Bft) NO 53 0 min 0,000 mm 0,0 UV-I 0 W/m 4,6 C 9,1 C 8,0 km/h (2 Bft) 100,00 %
23.04.2016 02:56 9,4 C 72 % 1008,5 hPa 0,0 l/m 5,7 km/h (1 Bft) O-NO 69 0 min 0,000 mm 0,0 UV-I 0 W/m 4,6 C 9,4 C 6,4 km/h (2 Bft) 95,65 %
23.04.2016 02:57 9,4 C 72 % 1008,5 hPa 0,0 l/m 7,1 km/h (2 Bft) O-NO 64 0 min 0,000 mm 0,0 UV-I 0 W/m 4,6 C 8,9 C 9,7 km/h (2 Bft) 100,00 %
23.04.2016 02:58 9,4 C 72 % 1008,5 hPa 0,0 l/m 4,6 km/h (1 Bft) NO 55 0 min 0,000 mm 0,0 UV-I 0 W/m 4,6 C 9,4 C 8,0 km/h (2 Bft) 95,65 %
23.04.2016 02:59 9,4 C 72 % 1008,5 hPa 0,0 l/m 5,0 km/h (1 Bft) O-NO 61 0 min 0,000 mm 0,0 UV-I 0 W/m 4,6 C 9,4 C 6,4 km/h (2 Bft) 100,00 %
23.04.2016 03:00 9,4 C 72 % 1008,5 hPa 0,0 l/m 5,2 km/h (1 Bft) O-NO 58 0 min 0,025 mm 0,0 UV-I 0 W/m 4,6 C 9,4 C 6,4 km/h (2 Bft) 96,55 %
23.04.2016 03:01 9,3 C 72 % 1008,4 hPa 0,0 l/m 3,6 km/h (1 Bft) NO 55 0 min 0,000 mm 0,0 UV-I 0 W/m 4,5 C 9,3 C 4,8 km/h (1 Bft) 100,00 %
23.04.2016 03:02 9,3 C 72 % 1008,4 hPa 0,0 l/m 3,4 km/h (1 Bft) NO 55 0 min 0,000 mm 0,0 UV-I 0 W/m 4,5 C 9,3 C 4,8 km/h (1 Bft) 96,15 %
23.04.2016 03:03 9,3 C 72 % 1008,4 hPa 0,0 l/m 4,6 km/h (1 Bft) O-NO 58 0 min 0,000 mm 0,0 UV-I 0 W/m 4,5 C 9,3 C 8,0 km/h (2 Bft) 96,30 %
23.04.2016 03:04 9,3 C 72 % 1008,4 hPa 0,0 l/m 5,6 km/h (1 Bft) O-NO 59 0 min 0,000 mm 0,0 UV-I 0 W/m 4,5 C 9,3 C 8,0 km/h (2 Bft) 100,00 %
23.04.2016 03:05 9,3 C 72 % 1008,4 hPa 0,0 l/m 5,2 km/h (1 Bft) O-NO 58 0 min 0,000 mm 0,0 UV-I 0 W/m 4,5 C 9,3 C 6,4 km/h (2 Bft) 96,15 %
23.04.2016 03:06 9,2 C 72 % 1008,4 hPa 0,0 l/m 5,0 km/h (1 Bft) NO 56 0 min 0,000 mm 0,0 UV-I 0 W/m 4,4 C 9,2 C 6,4 km/h (2 Bft) 100,00 %
23.04.2016 03:07 9,2 C 72 % 1008,4 hPa 0,0 l/m 4,7 km/h (1 Bft) O-NO 65 0 min 0,000 mm 0,0 UV-I 0 W/m 4,4 C 9,2 C 6,4 km/h (2 Bft) 93,55 %
23.04.2016 03:08 9,1 C 73 % 1008,4 hPa 0,0 l/m 4,8 km/h (1 Bft) O-NO 64 0 min 0,000 mm 0,0 UV-I 0 W/m 4,5 C 9,1 C 6,4 km/h (2 Bft) 95,83 %
23.04.2016 03:09 9,1 C 72 % 1008,3 hPa 0,0 l/m 4,9 km/h (1 Bft) NO 52 0 min 0,000 mm 0,0 UV-I 0 W/m 4,3 C 9,1 C 6,4 km/h (2 Bft) 92,31 %
23.04.2016 03:10 9,1 C 73 % 1008,3 hPa 0,0 l/m 3,6 km/h (1 Bft) O-NO 61 0 min 0,000 mm 0,0 UV-I 0 W/m 4,5 C 9,1 C 6,4 km/h (2 Bft) 100,00 %
23.04.2016 03:11 9,1 C 73 % 1008,3 hPa 0,0 l/m 4,0 km/h (1 Bft) NO 55 0 min 0,000 mm 0,0 UV-I 0 W/m 4,5 C 9,1 C 6,4 km/h (2 Bft) 96,15 %
23.04.2016 03:12 9,0 C 73 % 1008,3 hPa 0,0 l/m 3,2 km/h (1 Bft) NO 55 0 min 0,000 mm 0,0 UV-I 0 W/m 4,4 C 9,0 C 4,8 km/h (1 Bft) 100,00 %
23.04.2016 03:13 8,9 C 73 % 1008,2 hPa 0,0 l/m 3,8 km/h (1 Bft) NO 51 0 min 0,000 mm 0,0 UV-I 0 W/m 4,3 C 8,9 C 4,8 km/h (1 Bft) 96,55 %
23.04.2016 03:14 8,9 C 74 % 1008,2 hPa 0,0 l/m 5,0 km/h (1 Bft) NO 53 0 min 0,000 mm 0,0 UV-I 0 W/m 4,5 C 8,9 C 6,4 km/h (2 Bft) 91,67 %
23.04.2016 03:15 8,8 C 74 % 1008,2 hPa 0,0 l/m 3,9 km/h (1 Bft) NO 53 0 min 0,000 mm 0,0 UV-I 0 W/m 4,4 C 8,8 C 4,8 km/h (1 Bft) 100,00 %
23.04.2016 03:16 8,8 C 74 % 1008,2 hPa 0,0 l/m 4,8 km/h (1 Bft) NO 42 0 min 0,000 mm 0,0 UV-I 0 W/m 4,4 C 8,8 C 6,4 km/h (2 Bft) 91,67 %
23.04.2016 03:17 8,8 C 74 % 1008,2 hPa 0,0 l/m 5,4 km/h (1 Bft) NO 44 0 min 0,000 mm 0,0 UV-I 0 W/m 4,4 C 8,8 C 6,4 km/h (2 Bft) 100,00 %
23.04.2016 03:18 8,7 C 74 % 1008,3 hPa 0,0 l/m 4,9 km/h (1 Bft) NO 46 0 min 0,000 mm 0,0 UV-I 0 W/m 4,3 C 8,7 C 6,4 km/h (2 Bft) 96,30 %
23.04.2016 03:19 8,7 C 74 % 1008,2 hPa 0,0 l/m 5,4 km/h (1 Bft) NO 44 0 min 0,000 mm 0,0 UV-I 0 W/m 4,3 C 8,7 C 8,0 km/h (2 Bft) 100,00 %
23.04.2016 03:20 8,7 C 74 % 1008,2 hPa 0,0 l/m 5,1 km/h (1 Bft) NO 34 0 min 0,000 mm 0,0 UV-I 0 W/m 4,3 C 8,7 C 6,4 km/h (2 Bft) 100,00 %
23.04.2016 03:21 8,7 C 74 % 1008,2 hPa 0,0 l/m 3,9 km/h (1 Bft) NO 55 0 min 0,000 mm 0,0 UV-I 0 W/m 4,3 C 8,7 C 6,4 km/h (2 Bft) 100,00 %
23.04.2016 03:22 8,7 C 74 % 1008,2 hPa 0,0 l/m 4,8 km/h (1 Bft) NO 52 0 min 0,000 mm 0,0 UV-I 0 W/m 4,3 C 8,7 C 6,4 km/h (2 Bft) 100,00 %
23.04.2016 03:23 8,7 C 74 % 1008,2 hPa 0,0 l/m 5,0 km/h (1 Bft) NO 53 0 min 0,000 mm 0,0 UV-I 0 W/m 4,3 C 8,7 C 6,4 km/h (2 Bft) 100,00 %
23.04.2016 03:24 8,7 C 74 % 1008,2 hPa 0,0 l/m 5,4 km/h (1 Bft) NO 56 0 min 0,000 mm 0,0 UV-I 0 W/m 4,3 C 8,7 C 6,4 km/h (2 Bft) 100,00 %
23.04.2016 03:25 8,7 C 74 % 1008,2 hPa 0,0 l/m 4,8 km/h (1 Bft) NO 55 0 min 0,000 mm 0,0 UV-I 0 W/m 4,3 C 8,7 C 6,4 km/h (2 Bft) 98,47 %
23.04.2016 03:26 8,7 C 74 % 1008,2 hPa 0,0 l/m 5,5 km/h (1 Bft) O-NO 59 0 min 0,000 mm 0,0 UV-I 0 W/m 4,3 C 8,7 C 6,4 km/h (2 Bft) 97,62 %
23.04.2016 03:27 8,7 C 74 % 1008,2 hPa 0,0 l/m 4,7 km/h (1 Bft) NO 51 0 min 0,000 mm 0,0 UV-I 0 W/m 4,3 C 8,7 C 6,4 km/h (2 Bft) 100,00 %
23.04.2016 03:28 8,7 C 74 % 1008,2 hPa 0,0 l/m 3,6 km/h (1 Bft) NO 51 0 min 0,000 mm 0,0 UV-I 0 W/m 4,3 C 8,7 C 4,8 km/h (1 Bft) 100,00 %
23.04.2016 03:29 8,7 C 74 % 1008,2 hPa 0,0 l/m 3,0 km/h (1 Bft) NO 51 0 min 0,000 mm 0,0 UV-I 0 W/m 4,3 C 8,7 C 3,2 km/h (1 Bft) 100,00 %
23.04.2016 03:30 8,6 C 74 % 1008,2 hPa 0,0 l/m 2,7 km/h (1 Bft) NO 51 0 min 0,000 mm 0,0 UV-I 0 W/m 4,2 C 8,6 C 4,8 km/h (1 Bft) 100,00 %
23.04.2016 03:31 8,6 C 74 % 1008,2 hPa 0,0 l/m 3,8 km/h (1 Bft) NO 51 0 min 0,000 mm 0,0 UV-I 0 W/m 4,2 C 8,6 C 4,8 km/h (1 Bft) 100,00 %
23.04.2016 03:32 8,6 C 74 % 1008,2 hPa 0,0 l/m 2,9 km/h (1 Bft) NO 51 0 min 0,000 mm 0,0 UV-I 0 W/m 4,2 C 8,6 C 4,8 km/h (1 Bft) 100,00 %
23.04.2016 03:33 8,6 C 74 % 1008,2 hPa 0,0 l/m 3,5 km/h (1 Bft) NO 51 0 min 0,000 mm 0,0 UV-I 0 W/m 4,2 C 8,6 C 4,8 km/h (1 Bft) 100,00 %
23.04.2016 03:34 8,6 C 74 % 1008,2 hPa 0,0 l/m 3,7 km/h (1 Bft) NO 49 0 min 0,000 mm 0,0 UV-I 0 W/m 4,2 C 8,6 C 4,8 km/h (1 Bft) 92,86 %
23.04.2016 03:35 8,6 C 74 % 1008,2 hPa 0,0 l/m 3,3 km/h (1 Bft) NO 49 0 min 0,000 mm 0,0 UV-I 0 W/m 4,2 C 8,6 C 4,8 km/h (1 Bft) 100,00 %
23.04.2016 03:36 8,6 C 74 % 1008,2 hPa 0,0 l/m 3,7 km/h (1 Bft) NO 49 0 min 0,000 mm 0,0 UV-I 0 W/m 4,2 C 8,6 C 6,4 km/h (2 Bft) 100,00 %
23.04.2016 03:37 8,6 C 74 % 1008,1 hPa 0,0 l/m 4,1 km/h (1 Bft) O-NO 70 0 min 0,000 mm 0,0 UV-I 0 W/m 4,2 C 8,6 C 6,4 km/h (2 Bft) 100,00 %
23.04.2016 03:38 8,6 C 74 % 1008,2 hPa 0,0 l/m 4,7 km/h (1 Bft) NO 51 0 min 0,000 mm 0,0 UV-I 0 W/m 4,2 C 8,6 C 6,4 km/h (2 Bft) 100,00 %
23.04.2016 03:39 8,6 C 74 % 1008,1 hPa 0,0 l/m 4,8 km/h (1 Bft) NO 55 0 min 0,000 mm 0,0 UV-I 0 W/m 4,2 C 8,6 C 6,4 km/h (2 Bft) 100,00 %
23.04.2016 03:40 8,6 C 74 % 1008,1 hPa 0,0 l/m 6,0 km/h (2 Bft) O-NO 57 0 min 0,000 mm 0,0 UV-I 0 W/m 4,2 C 8,6 C 8,0 km/h (2 Bft) 96,55 %
23.04.2016 03:41 8,6 C 74 % 1008,1 hPa 0,0 l/m 5,6 km/h (1 Bft) O-NO 57 0 min 0,000 mm 0,0 UV-I 0 W/m 4,2 C 8,6 C 8,0 km/h (2 Bft) 100,00 %
23.04.2016 03:42 8,6 C 74 % 1008,1 hPa 0,0 l/m 2,7 km/h (1 Bft) O-NO 57 0 min 0,000 mm 0,0 UV-I 0 W/m 4,2 C 8,6 C 4,8 km/h (1 Bft) 100,00 %
23.04.2016 03:43 8,6 C 74 % 1008,2 hPa 0,0 l/m 5,4 km/h (1 Bft) NO 55 0 min 0,000 mm 0,0 UV-I 0 W/m 4,2 C 8,6 C 8,0 km/h (2 Bft) 100,00 %
23.04.2016 03:44 8,6 C 74 % 1008,1 hPa 0,0 l/m 4,2 km/h (1 Bft) O-NO 57 0 min 0,000 mm 0,0 UV-I 0 W/m 4,2 C 8,6 C 6,4 km/h (2 Bft) 95,65 %
23.04.2016 03:45 8,6 C 73 % 1008,1 hPa 0,0 l/m 6,1 km/h (2 Bft) O-NO 61 0 min 0,000 mm 0,0 UV-I 0 W/m 4,0 C 8,6 C 8,0 km/h (2 Bft) 100,00 %
23.04.2016 03:46 8,6 C 73 % 1008,1 hPa 0,0 l/m 5,3 km/h (1 Bft) O-NO 57 0 min 0,000 mm 0,0 UV-I 0 W/m 4,0 C 8,6 C 6,4 km/h (2 Bft) 100,00 %
23.04.2016 03:47 8,6 C 73 % 1008,1 hPa 0,0 l/m 4,2 km/h (1 Bft) O-NO 57 0 min 0,000 mm 0,0 UV-I 0 W/m 4,0 C 8,6 C 6,4 km/h (2 Bft) 100,00 %
23.04.2016 03:48 8,6 C 73 % 1008,1 hPa 0,0 l/m 4,0 km/h (1 Bft) NO 53 0 min 0,000 mm 0,0 UV-I 0 W/m 4,0 C 8,6 C 4,8 km/h (1 Bft) 100,00 %
23.04.2016 03:49 8,6 C 73 % 1008,2 hPa 0,0 l/m 4,1 km/h (1 Bft) NO 50 0 min 0,000 mm 0,0 UV-I 0 W/m 4,0 C 8,6 C 4,8 km/h (1 Bft) 100,00 %
23.04.2016 03:50 8,6 C 74 % 1008,2 hPa 0,0 l/m 4,1 km/h (1 Bft) NO 48 0 min 0,000 mm 0,0 UV-I 0 W/m 4,2 C 8,6 C 4,8 km/h (1 Bft) 91,67 %
23.04.2016 03:51 8,6 C 73 % 1008,1 hPa 0,0 l/m 3,8 km/h (1 Bft) O-NO 63 0 min 0,000 mm 0,0 UV-I 0 W/m 4,0 C 8,6 C 6,4 km/h (2 Bft) 96,88 %
23.04.2016 03:52 8,6 C 74 % 1008,1 hPa 0,0 l/m 3,3 km/h (1 Bft) O-NO 60 0 min 0,000 mm 0,0 UV-I 0 W/m 4,2 C 8,6 C 4,8 km/h (1 Bft) 100,00 %
23.04.2016 03:53 8,6 C 74 % 1008,1 hPa 0,0 l/m 3,6 km/h (1 Bft) O-NO 60 0 min 0,000 mm 0,0 UV-I 0 W/m 4,2 C 8,6 C 4,8 km/h (1 Bft) 100,00 %
23.04.2016 03:54 8,6 C 73 % 1008,1 hPa 0,0 l/m 4,0 km/h (1 Bft) O-NO 62 0 min 0,000 mm 0,0 UV-I 0 W/m 4,0 C 8,6 C 4,8 km/h (1 Bft) 98,55 %
23.04.2016 03:55 8,6 C 74 % 1008,0 hPa 0,0 l/m 4,6 km/h (1 Bft) O-NO 59 0 min 0,000 mm 0,0 UV-I 0 W/m 4,2 C 8,6 C 6,4 km/h (2 Bft) 97,56 %
23.04.2016 03:56 8,5 C 74 % 1008,1 hPa 0,0 l/m 3,5 km/h (1 Bft) O-NO 59 0 min 0,000 mm 0,0 UV-I 0 W/m 4,1 C 8,5 C 4,8 km/h (1 Bft) 100,00 %
23.04.2016 03:57 8,5 C 74 % 1008,1 hPa 0,0 l/m 4,2 km/h (1 Bft) O-NO 58 0 min 0,000 mm 0,0 UV-I 0 W/m 4,1 C 8,5 C 6,4 km/h (2 Bft) 100,00 %
23.04.2016 03:58 8,5 C 74 % 1008,0 hPa 0,0 l/m 3,6 km/h (1 Bft) O-NO 58 0 min 0,000 mm 0,0 UV-I 0 W/m 4,1 C 8,5 C 6,4 km/h (2 Bft) 96,30 %
23.04.2016 03:59 8,4 C 74 % 1008,0 hPa 0,0 l/m 5,1 km/h (1 Bft) NO 55 0 min 0,000 mm 0,0 UV-I 0 W/m 4,0 C 8,4 C 6,4 km/h (2 Bft) 100,00 %
23.04.2016 04:00 8,4 C 74 % 1008,0 hPa 0,0 l/m 3,4 km/h (1 Bft) NO 54 0 min 0,000 mm 0,0 UV-I 0 W/m 4,0 C 8,4 C 6,4 km/h (2 Bft) 100,00 %
23.04.2016 04:01 8,4 C 74 % 1008,0 hPa 0,0 l/m 4,9 km/h (1 Bft) NO 54 0 min 0,026 mm 0,0 UV-I 0 W/m 4,0 C 8,4 C 6,4 km/h (2 Bft) 66,67 %
23.04.2016 04:02 8,4 C 74 % 1007,9 hPa 0,0 l/m 3,7 km/h (1 Bft) NO 54 0 min 0,000 mm 0,0 UV-I 0 W/m 4,0 C 8,4 C 4,8 km/h (1 Bft) 96,30 %
23.04.2016 04:03 8,4 C 74 % 1007,9 hPa 0,0 l/m 5,0 km/h (1 Bft) NO 53 0 min 0,000 mm 0,0 UV-I 0 W/m 4,0 C 8,4 C 6,4 km/h (2 Bft) 100,00 %
23.04.2016 04:04 8,4 C 74 % 1007,9 hPa 0,0 l/m 4,5 km/h (1 Bft) NO 53 0 min 0,000 mm 0,0 UV-I 0 W/m 4,0 C 8,4 C 6,4 km/h (2 Bft) 100,00 %
23.04.2016 04:05 8,4 C 74 % 1007,8 hPa 0,0 l/m 5,1 km/h (1 Bft) O-NO 57 0 min 0,000 mm 0,0 UV-I 0 W/m 4,0 C 8,4 C 6,4 km/h (2 Bft) 100,00 %
23.04.2016 04:06 8,4 C 73 % 1007,8 hPa 0,0 l/m 4,3 km/h (1 Bft) NO 55 0 min 0,000 mm 0,0 UV-I 0 W/m 3,8 C 8,4 C 6,4 km/h (2 Bft) 100,00 %
23.04.2016 04:07 8,4 C 74 % 1007,8 hPa 0,0 l/m 3,1 km/h (1 Bft) NO 55 0 min 0,000 mm 0,0 UV-I 0 W/m 4,0 C 8,4 C 4,8 km/h (1 Bft) 100,00 %
23.04.2016 04:08 8,4 C 74 % 1007,8 hPa 0,0 l/m 3,5 km/h (1 Bft) NO 55 0 min 0,000 mm 0,0 UV-I 0 W/m 4,0 C 8,4 C 4,8 km/h (1 Bft) 100,00 %
23.04.2016 04:09 8,4 C 74 % 1007,8 hPa 0,0 l/m 4,1 km/h (1 Bft) NO 54 0 min 0,000 mm 0,0 UV-I 0 W/m 4,0 C 8,4 C 6,4 km/h (2 Bft) 100,00 %
23.04.2016 04:10 8,4 C 74 % 1007,8 hPa 0,0 l/m 4,0 km/h (1 Bft) NO 54 0 min 0,000 mm 0,0 UV-I 0 W/m 4,0 C 8,4 C 4,8 km/h (1 Bft) 100,00 %
23.04.2016 04:11 8,4 C 74 % 1007,8 hPa 0,0 l/m 3,7 km/h (1 Bft) O-NO 62 0 min 0,000 mm 0,0 UV-I 0 W/m 4,0 C 8,4 C 4,8 km/h (1 Bft) 100,00 %
23.04.2016 04:12 8,4 C 74 % 1007,8 hPa 0,0 l/m 4,3 km/h (1 Bft) O-NO 59 0 min 0,000 mm 0,0 UV-I 0 W/m 4,0 C 8,4 C 6,4 km/h (2 Bft) 100,00 %
23.04.2016 04:13 8,3 C 74 % 1007,8 hPa 0,0 l/m 3,7 km/h (1 Bft) O-NO 59 0 min 0,000 mm 0,0 UV-I 0 W/m 3,9 C 8,3 C 4,8 km/h (1 Bft) 100,00 %
23.04.2016 04:14 8,3 C 74 % 1007,7 hPa 0,0 l/m 3,4 km/h (1 Bft) O-NO 59 0 min 0,000 mm 0,0 UV-I 0 W/m 3,9 C 8,3 C 4,8 km/h (1 Bft) 100,00 %
23.04.2016 04:15 8,3 C 74 % 1007,7 hPa 0,0 l/m 3,8 km/h (1 Bft) O-NO 59 0 min 0,000 mm 0,0 UV-I 0 W/m 3,9 C 8,3 C 4,8 km/h (1 Bft) 100,00 %
23.04.2016 04:16 8,3 C 74 % 1007,7 hPa 0,0 l/m 2,6 km/h (1 Bft) O-NO 59 0 min 0,000 mm 0,0 UV-I 0 W/m 3,9 C 8,3 C 4,8 km/h (1 Bft) 95,65 %
23.04.2016 04:17 8,3 C 74 % 1007,7 hPa 0,0 l/m 4,2 km/h (1 Bft) O-NO 63 0 min 0,000 mm 0,0 UV-I 0 W/m 3,9 C 8,3 C 6,4 km/h (2 Bft) 100,00 %
23.04.2016 04:18 8,3 C 74 % 1007,7 hPa 0,0 l/m 4,3 km/h (1 Bft) O-NO 63 0 min 0,000 mm 0,0 UV-I 0 W/m 3,9 C 8,3 C 6,4 km/h (2 Bft) 100,00 %
23.04.2016 04:19 8,3 C 74 % 1007,7 hPa 0,0 l/m 3,9 km/h (1 Bft) O-NO 73 0 min 0,000 mm 0,0 UV-I 0 W/m 3,9 C 8,3 C 6,4 km/h (2 Bft) 100,00 %
23.04.2016 04:20 8,3 C 73 % 1007,6 hPa 0,0 l/m 4,4 km/h (1 Bft) O-NO 69 0 min 0,000 mm 0,0 UV-I 0 W/m 3,8 C 8,3 C 6,4 km/h (2 Bft) 100,00 %
23.04.2016 04:21 8,3 C 73 % 1007,6 hPa 0,0 l/m 5,2 km/h (1 Bft) O-NO 68 0 min 0,000 mm 0,0 UV-I 0 W/m 3,8 C 8,3 C 6,4 km/h (2 Bft) 100,00 %
23.04.2016 04:22 8,4 C 73 % 1007,6 hPa 0,0 l/m 5,9 km/h (2 Bft) O-NO 69 0 min 0,000 mm 0,0 UV-I 0 W/m 3,8 C 8,4 C 8,0 km/h (2 Bft) 100,00 %
23.04.2016 04:23 8,4 C 73 % 1007,6 hPa 0,0 l/m 6,2 km/h (2 Bft) O-NO 65 0 min 0,000 mm 0,0 UV-I 0 W/m 3,8 C 8,4 C 8,0 km/h (2 Bft) 100,00 %
23.04.2016 04:24 8,4 C 73 % 1007,6 hPa 0,0 l/m 6,2 km/h (2 Bft) O-NO 73 0 min 0,000 mm 0,0 UV-I 0 W/m 3,8 C 8,4 C 8,0 km/h (2 Bft) 100,00 %
23.04.2016 04:25 8,4 C 72 % 1007,6 hPa 0,0 l/m 4,2 km/h (1 Bft) O-NO 63 0 min 0,000 mm 0,0 UV-I 0 W/m 3,7 C 8,4 C 6,4 km/h (2 Bft) 100,00 %
23.04.2016 04:26 8,5 C 72 % 1007,6 hPa 0,0 l/m 5,6 km/h (1 Bft) O 94 0 min 0,000 mm 0,0 UV-I 0 W/m 3,7 C 8,5 C 8,0 km/h (2 Bft) 100,00 %
23.04.2016 04:27 8,6 C 72 % 1007,5 hPa 0,0 l/m 5,0 km/h (1 Bft) O-NO 78 0 min 0,000 mm 0,0 UV-I 0 W/m 3,8 C 8,6 C 8,0 km/h (2 Bft) 100,00 %
23.04.2016 04:28 8,6 C 72 % 1007,5 hPa 0,0 l/m 5,8 km/h (2 Bft) O 89 0 min 0,000 mm 0,0 UV-I 0 W/m 3,8 C 8,6 C 8,0 km/h (2 Bft) 100,00 %
23.04.2016 04:29 8,6 C 72 % 1007,5 hPa 0,0 l/m 4,6 km/h (1 Bft) O-NO 63 0 min 0,000 mm 0,0 UV-I 0 W/m 3,8 C 8,6 C 6,4 km/h (2 Bft) 100,00 %
23.04.2016 04:30 8,6 C 71 % 1007,5 hPa 0,0 l/m 3,5 km/h (1 Bft) O-NO 63 0 min 0,000 mm 0,0 UV-I 0 W/m 3,6 C 8,6 C 4,8 km/h (1 Bft) 100,00 %
23.04.2016 04:31 8,7 C 72 % 1007,5 hPa 0,0 l/m 3,0 km/h (1 Bft) O-NO 71 0 min 0,000 mm 0,0 UV-I 0 W/m 3,9 C 8,7 C 4,8 km/h (1 Bft) 100,00 %
23.04.2016 04:32 8,7 C 72 % 1007,5 hPa 0,0 l/m 3,9 km/h (1 Bft) O-NO 70 0 min 0,000 mm 0,0 UV-I 0 W/m 3,9 C 8,7 C 4,8 km/h (1 Bft) 100,00 %
23.04.2016 04:33 8,6 C 72 % 1007,5 hPa 0,0 l/m 2,3 km/h (1 Bft) O-NO 70 0 min 0,000 mm 0,0 UV-I 0 W/m 3,8 C 8,6 C 3,2 km/h (1 Bft) 100,00 %
23.04.2016 04:34 8,6 C 71 % 1007,4 hPa 0,0 l/m 3,2 km/h (1 Bft) O-NO 70 0 min 0,000 mm 0,0 UV-I 0 W/m 3,6 C 8,6 C 4,8 km/h (1 Bft) 100,00 %
23.04.2016 04:35 8,6 C 72 % 1007,4 hPa 0,0 l/m 3,6 km/h (1 Bft) O-NO 70 0 min 0,000 mm 0,0 UV-I 0 W/m 3,8 C 8,6 C 4,8 km/h (1 Bft) 100,00 %
23.04.2016 04:36 8,6 C 72 % 1007,4 hPa 0,0 l/m 2,7 km/h (1 Bft) O-NO 66 0 min 0,000 mm 0,0 UV-I 0 W/m 3,8 C 8,6 C 3,2 km/h (1 Bft) 100,00 %
23.04.2016 04:37 8,5 C 73 % 1007,4 hPa 0,0 l/m 2,5 km/h (1 Bft) O-NO 66 0 min 0,000 mm 0,0 UV-I 0 W/m 3,9 C 8,5 C 3,2 km/h (1 Bft) 100,00 %
23.04.2016 04:38 8,4 C 72 % 1007,4 hPa 0,0 l/m 2,9 km/h (1 Bft) O 83 0 min 0,000 mm 0,0 UV-I 0 W/m 3,7 C 8,4 C 6,4 km/h (2 Bft) 100,00 %
23.04.2016 04:39 8,4 C 73 % 1007,4 hPa 0,0 l/m 2,1 km/h (1 Bft) O 83 0 min 0,000 mm 0,0 UV-I 0 W/m 3,8 C 8,4 C 3,2 km/h (1 Bft) 100,00 %
23.04.2016 04:40 8,4 C 73 % 1007,4 hPa 0,0 l/m 3,3 km/h (1 Bft) O 83 0 min 0,000 mm 0,0 UV-I 0 W/m 3,8 C 8,4 C 4,8 km/h (1 Bft) 100,00 %
23.04.2016 04:41 8,4 C 73 % 1007,4 hPa 0,0 l/m 2,2 km/h (1 Bft) O-NO 76 0 min 0,000 mm 0,0 UV-I 0 W/m 3,8 C 8,4 C 3,2 km/h (1 Bft) 95,65 %
23.04.2016 04:42 8,3 C 73 % 1007,3 hPa 0,0 l/m 4,1 km/h (1 Bft) O-NO 71 0 min 0,000 mm 0,0 UV-I 0 W/m 3,8 C 8,3 C 6,4 km/h (2 Bft) 100,00 %
23.04.2016 04:43 8,3 C 73 % 1007,3 hPa 0,0 l/m 3,4 km/h (1 Bft) O-NO 71 0 min 0,000 mm 0,0 UV-I 0 W/m 3,8 C 8,3 C 4,8 km/h (1 Bft) 100,00 %
23.04.2016 04:44 8,3 C 72 % 1007,3 hPa 0,0 l/m 3,7 km/h (1 Bft) O-NO 71 0 min 0,000 mm 0,0 UV-I 0 W/m 3,6 C 8,3 C 4,8 km/h (1 Bft) 100,00 %
23.04.2016 04:45 8,3 C 72 % 1007,4 hPa 0,0 l/m 3,1 km/h (1 Bft) O-NO 71 0 min 0,000 mm 0,0 UV-I 0 W/m 3,6 C 8,3 C 4,8 km/h (1 Bft) 100,00 %
23.04.2016 04:46 8,4 C 72 % 1007,4 hPa 0,0 l/m 3,7 km/h (1 Bft) O-NO 71 0 min 0,000 mm 0,0 UV-I 0 W/m 3,7 C 8,4 C 4,8 km/h (1 Bft) 100,00 %
23.04.2016 04:47 8,4 C 72 % 1007,3 hPa 0,0 l/m 4,3 km/h (1 Bft) O-NO 72 0 min 0,000 mm 0,0 UV-I 0 W/m 3,7 C 8,4 C 6,4 km/h (2 Bft) 100,00 %
23.04.2016 04:48 8,4 C 72 % 1007,3 hPa 0,0 l/m 4,8 km/h (1 Bft) O-SO 102 0 min 0,000 mm 0,0 UV-I 0 W/m 3,7 C 8,4 C 9,7 km/h (2 Bft) 100,00 %
23.04.2016 04:49 8,4 C 72 % 1007,3 hPa 0,0 l/m 4,7 km/h (1 Bft) O-NO 76 0 min 0,000 mm 0,0 UV-I 0 W/m 3,7 C 8,4 C 6,4 km/h (2 Bft) 100,00 %
23.04.2016 04:50 8,4 C 72 % 1007,3 hPa 0,0 l/m 4,4 km/h (1 Bft) O-NO 76 0 min 0,000 mm 0,0 UV-I 0 W/m 3,7 C 8,4 C 6,4 km/h (2 Bft) 100,00 %
23.04.2016 04:51 8,4 C 71 % 1007,3 hPa 0,0 l/m 4,0 km/h (1 Bft) O 79 0 min 0,000 mm 0,0 UV-I 0 W/m 3,5 C 8,4 C 6,4 km/h (2 Bft) 95,83 %
23.04.2016 04:52 8,5 C 72 % 1007,2 hPa 0,0 l/m 4,6 km/h (1 Bft) O-NO 71 0 min 0,000 mm 0,0 UV-I 0 W/m 3,7 C 8,5 C 8,0 km/h (2 Bft) 100,00 %
23.04.2016 04:53 8,5 C 71 % 1007,2 hPa 0,0 l/m 4,7 km/h (1 Bft) O 82 0 min 0,000 mm 0,0 UV-I 0 W/m 3,5 C 8,5 C 6,4 km/h (2 Bft) 96,67 %
23.04.2016 04:54 8,4 C 71 % 1007,2 hPa 0,0 l/m 4,7 km/h (1 Bft) O-NO 67 0 min 0,000 mm 0,0 UV-I 0 W/m 3,5 C 8,4 C 6,4 km/h (2 Bft) 96,55 %
23.04.2016 04:55 8,5 C 71 % 1007,2 hPa 0,0 l/m 6,1 km/h (2 Bft) O-NO 77 0 min 0,000 mm 0,0 UV-I 0 W/m 3,5 C 8,5 C 8,0 km/h (2 Bft) 100,00 %
23.04.2016 04:56 8,5 C 71 % 1007,2 hPa 0,0 l/m 6,0 km/h (2 Bft) O-NO 73 0 min 0,000 mm 0,0 UV-I 0 W/m 3,5 C 8,5 C 8,0 km/h (2 Bft) 92,86 %
23.04.2016 04:57 8,6 C 71 % 1007,2 hPa 0,0 l/m 3,8 km/h (1 Bft) O 88 0 min 0,000 mm 0,0 UV-I 0 W/m 3,6 C 8,6 C 4,8 km/h (1 Bft) 100,00 %
23.04.2016 04:58 8,6 C 71 % 1007,2 hPa 0,0 l/m 5,0 km/h (1 Bft) O 84 0 min 0,000 mm 0,0 UV-I 0 W/m 3,6 C 8,6 C 6,4 km/h (2 Bft) 95,65 %
23.04.2016 04:59 8,6 C 70 % 1007,2 hPa 0,0 l/m 5,5 km/h (1 Bft) O 88 0 min 0,000 mm 0,0 UV-I 0 W/m 3,4 C 8,6 C 6,4 km/h (2 Bft) 100,00 %
23.04.2016 05:00 8,6 C 70 % 1007,2 hPa 0,0 l/m 5,7 km/h (1 Bft) O 92 0 min 0,000 mm 0,0 UV-I 0 W/m 3,4 C 8,6 C 8,0 km/h (2 Bft) 96,15 %
23.04.2016 05:02 8,6 C 70 % 1007,2 hPa 0,0 l/m 5,5 km/h (1 Bft) O-NO 78 0 min 0,025 mm 0,0 UV-I 0 W/m 3,4 C 8,6 C 8,0 km/h (2 Bft) 97,62 %
23.04.2016 05:03 8,6 C 70 % 1007,2 hPa 0,0 l/m 4,2 km/h (1 Bft) O 83 0 min 0,000 mm 0,0 UV-I 0 W/m 3,4 C 8,6 C 6,4 km/h (2 Bft) 96,55 %
23.04.2016 05:04 8,6 C 70 % 1007,1 hPa 0,0 l/m 2,3 km/h (1 Bft) O 83 0 min 0,000 mm 0,0 UV-I 0 W/m 3,4 C 8,6 C 3,2 km/h (1 Bft) 100,00 %
23.04.2016 05:05 8,6 C 71 % 1007,1 hPa 0,0 l/m 1,5 km/h (1 Bft) O 83 0 min 0,000 mm 0,0 UV-I 0 W/m 3,6 C 8,6 C 3,2 km/h (1 Bft) 100,00 %
23.04.2016 05:06 8,6 C 70 % 1007,1 hPa 0,0 l/m 1,6 km/h (1 Bft) O 83 0 min 0,000 mm 0,0 UV-I 0 W/m 3,4 C 8,6 C 3,2 km/h (1 Bft) 96,30 %
23.04.2016 05:07 8,6 C 70 % 1007,1 hPa 0,0 l/m 2,5 km/h (1 Bft) O-NO 75 0 min 0,000 mm 0,0 UV-I 0 W/m 3,4 C 8,6 C 3,2 km/h (1 Bft) 96,15 %
23.04.2016 05:08 8,6 C 70 % 1007,1 hPa 0,0 l/m 3,0 km/h (1 Bft) O-NO 75 0 min 0,000 mm 0,0 UV-I 0 W/m 3,4 C 8,6 C 3,2 km/h (1 Bft) 94,44 %
23.04.2016 05:09 8,6 C 70 % 1007,1 hPa 0,0 l/m 2,9 km/h (1 Bft) O-NO 77 0 min 0,000 mm 0,0 UV-I 0 W/m 3,4 C 8,6 C 4,8 km/h (1 Bft) 96,15 %
23.04.2016 05:10 8,6 C 70 % 1007,0 hPa 0,0 l/m 4,6 km/h (1 Bft) O 82 0 min 0,000 mm 0,0 UV-I 0 W/m 3,4 C 8,6 C 6,4 km/h (2 Bft) 100,00 %
23.04.2016 05:11 8,6 C 70 % 1007,0 hPa 0,0 l/m 3,2 km/h (1 Bft) O 82 0 min 0,000 mm 0,0 UV-I 0 W/m 3,4 C 8,6 C 4,8 km/h (1 Bft) 95,65 %
23.04.2016 05:12 8,6 C 70 % 1007,0 hPa 0,0 l/m 2,1 km/h (1 Bft) O 82 0 min 0,000 mm 0,0 UV-I 0 W/m 3,4 C 8,6 C 3,2 km/h (1 Bft) 100,00 %
23.04.2016 05:13 8,6 C 70 % 1007,0 hPa 0,0 l/m 3,2 km/h (1 Bft) O 82 0 min 0,000 mm 0,0 UV-I 0 W/m 3,4 C 8,6 C 3,2 km/h (1 Bft) 91,30 %
23.04.2016 05:14 8,6 C 70 % 1007,0 hPa 0,0 l/m 1,8 km/h (1 Bft) O 82 0 min 0,000 mm 0,0 UV-I 0 W/m 3,4 C 8,6 C 3,2 km/h (1 Bft) 96,30 %
23.04.2016 05:15 8,6 C 70 % 1007,0 hPa 0,0 l/m 3,9 km/h (1 Bft) O 80 0 min 0,000 mm 0,0 UV-I 0 W/m 3,4 C 8,6 C 4,8 km/h (1 Bft) 100,00 %
23.04.2016 05:16 8,6 C 70 % 1007,0 hPa 0,0 l/m 3,0 km/h (1 Bft) O 80 0 min 0,000 mm 0,0 UV-I 0 W/m 3,4 C 8,6 C 3,2 km/h (1 Bft) 95,83 %
23.04.2016 05:17 8,6 C 70 % 1007,0 hPa 0,0 l/m 2,3 km/h (1 Bft) O 80 0 min 0,000 mm 0,0 UV-I 0 W/m 3,4 C 8,6 C 3,2 km/h (1 Bft) 100,00 %
23.04.2016 05:18 8,5 C 71 % 1007,0 hPa 0,0 l/m 2,1 km/h (1 Bft) O 80 0 min 0,000 mm 0,0 UV-I 0 W/m 3,5 C 8,5 C 3,2 km/h (1 Bft) 95,83 %
23.04.2016 05:19 8,4 C 72 % 1007,0 hPa 0,0 l/m 2,3 km/h (1 Bft) O 80 0 min 0,000 mm 0,0 UV-I 0 W/m 3,7 C 8,4 C 3,2 km/h (1 Bft) 100,00 %
23.04.2016 05:20 8,3 C 72 % 1007,0 hPa 0,0 l/m 2,3 km/h (1 Bft) O 80 0 min 0,000 mm 0,0 UV-I 0 W/m 3,6 C 8,3 C 3,2 km/h (1 Bft) 96,97 %
23.04.2016 05:21 8,2 C 72 % 1007,0 hPa 0,0 l/m 2,4 km/h (1 Bft) O 80 0 min 0,000 mm 0,0 UV-I 0 W/m 3,5 C 8,2 C 3,2 km/h (1 Bft) 96,15 %
23.04.2016 05:22 8,1 C 73 % 1007,0 hPa 0,0 l/m 3,1 km/h (1 Bft) O-NO 63 0 min 0,000 mm 0,0 UV-I 0 W/m 3,6 C 8,1 C 4,8 km/h (1 Bft) 100,00 %
23.04.2016 05:23 8,0 C 74 % 1007,0 hPa 0,0 l/m 1,6 km/h (1 Bft) O-NO 63 0 min 0,000 mm 0,0 UV-I 0 W/m 3,7 C 8,0 C 3,2 km/h (1 Bft) 92,59 %
23.04.2016 05:24 7,9 C 75 % 1007,0 hPa 0,0 l/m 0,1 km/h (0 Bft) O-NO 63 0 min 0,000 mm 0,0 UV-I 0 W/m 3,7 C 7,9 C 1,6 km/h (1 Bft) 100,00 %
23.04.2016 05:25 7,8 C 75 % 1007,0 hPa 0,0 l/m 0,0 km/h (0 Bft) O-NO 63 0 min 0,000 mm 0,0 UV-I 0 W/m 3,7 C 7,8 C 0,0 km/h (0 Bft) 95,65 %
23.04.2016 05:26 7,7 C 75 % 1007,0 hPa 0,0 l/m 0,1 km/h (0 Bft) O-NO 63 0 min 0,000 mm 0,0 UV-I 0 W/m 3,6 C 7,7 C 1,6 km/h (1 Bft) 95,83 %
23.04.2016 05:27 7,7 C 75 % 1007,0 hPa 0,0 l/m 0,0 km/h (0 Bft) O-NO 63 0 min 0,000 mm 0,0 UV-I 0 W/m 3,6 C 7,7 C 0,0 km/h (0 Bft) 100,00 %
23.04.2016 05:28 7,7 C 75 % 1007,0 hPa 0,0 l/m 0,0 km/h (0 Bft) O-NO 63 0 min 0,000 mm 0,0 UV-I 0 W/m 3,6 C 7,7 C 0,0 km/h (0 Bft) 100,00 %
23.04.2016 05:29 7,6 C 76 % 1007,0 hPa 0,0 l/m 0,0 km/h (0 Bft) O-NO 63 0 min 0,000 mm 0,0 UV-I 0 W/m 3,6 C 7,6 C 0,0 km/h (0 Bft) 100,00 %
23.04.2016 05:30 7,6 C 76 % 1007,0 hPa 0,0 l/m 0,1 km/h (0 Bft) O-NO 63 0 min 0,000 mm 0,0 UV-I 0 W/m 3,6 C 7,6 C 1,6 km/h (1 Bft) 100,00 %
23.04.2016 05:31 7,6 C 75 % 1007,0 hPa 0,0 l/m 0,0 km/h (0 Bft) O-NO 63 0 min 0,000 mm 0,0 UV-I 0 W/m 3,5 C 7,6 C 0,0 km/h (0 Bft) 95,83 %
23.04.2016 05:32 7,6 C 76 % 1006,9 hPa 0,0 l/m 0,2 km/h (0 Bft) O-NO 63 0 min 0,000 mm 0,0 UV-I 0 W/m 3,6 C 7,6 C 1,6 km/h (1 Bft) 100,00 %
23.04.2016 05:33 7,6 C 75 % 1007,0 hPa 0,0 l/m 1,4 km/h (1 Bft) O-NO 63 0 min 0,000 mm 0,0 UV-I 0 W/m 3,5 C 7,6 C 3,2 km/h (1 Bft) 100,00 %
23.04.2016 05:34 7,6 C 75 % 1007,0 hPa 0,0 l/m 1,6 km/h (1 Bft) O-NO 63 0 min 0,000 mm 0,0 UV-I 0 W/m 3,5 C 7,6 C 3,2 km/h (1 Bft) 100,00 %
23.04.2016 05:35 7,6 C 76 % 1006,9 hPa 0,0 l/m 1,4 km/h (1 Bft) O-NO 63 0 min 0,000 mm 0,0 UV-I 0 W/m 3,6 C 7,6 C 3,2 km/h (1 Bft) 96,67 %
23.04.2016 05:36 7,6 C 77 % 1007,0 hPa 0,0 l/m 2,2 km/h (1 Bft) O-NO 63 0 min 0,000 mm 0,0 UV-I 0 W/m 3,8 C 7,6 C 3,2 km/h (1 Bft) 100,00 %
23.04.2016 05:37 7,5 C 77 % 1006,9 hPa 0,0 l/m 1,3 km/h (1 Bft) O-NO 63 0 min 0,000 mm 0,0 UV-I 0 W/m 3,7 C 7,5 C 1,6 km/h (1 Bft) 100,00 %
23.04.2016 05:38 7,5 C 77 % 1006,9 hPa 0,0 l/m 1,5 km/h (1 Bft) O-NO 63 0 min 0,000 mm 0,0 UV-I 0 W/m 3,7 C 7,5 C 3,2 km/h (1 Bft) 100,00 %
23.04.2016 05:39 7,4 C 76 % 1006,9 hPa 0,0 l/m 1,1 km/h (1 Bft) O-NO 63 0 min 0,000 mm 0,0 UV-I 0 W/m 3,5 C 7,4 C 1,6 km/h (1 Bft) 100,00 %
23.04.2016 05:40 7,4 C 76 % 1006,9 hPa 0,0 l/m 0,6 km/h (0 Bft) O-NO 63 0 min 0,000 mm 0,0 UV-I 0 W/m 3,5 C 7,4 C 1,6 km/h (1 Bft) 96,15 %
23.04.2016 05:41 7,5 C 76 % 1006,9 hPa 0,0 l/m 1,2 km/h (1 Bft) O-NO 63 0 min 0,000 mm 0,0 UV-I 0 W/m 3,5 C 7,5 C 3,2 km/h (1 Bft) 100,00 %
23.04.2016 05:42 7,6 C 76 % 1006,9 hPa 0,0 l/m 1,7 km/h (1 Bft) O-NO 63 0 min 0,000 mm 0,0 UV-I 0 W/m 3,6 C 7,6 C 3,2 km/h (1 Bft) 100,00 %
23.04.2016 05:43 7,6 C 76 % 1007,0 hPa 0,0 l/m 2,6 km/h (1 Bft) O-NO 63 0 min 0,000 mm 0,0 UV-I 0 W/m 3,6 C 7,6 C 4,8 km/h (1 Bft) 96,55 %
23.04.2016 05:44 7,7 C 76 % 1006,9 hPa 0,0 l/m 2,5 km/h (1 Bft) O-NO 63 0 min 0,000 mm 0,0 UV-I 0 W/m 3,7 C 7,7 C 3,2 km/h (1 Bft) 100,00 %
23.04.2016 05:45 7,7 C 76 % 1006,9 hPa 0,0 l/m 2,1 km/h (1 Bft) O-NO 63 0 min 0,000 mm 0,0 UV-I 0 W/m 3,7 C 7,7 C 3,2 km/h (1 Bft) 100,00 %
23.04.2016 05:46 7,7 C 76 % 1006,9 hPa 0,0 l/m 2,5 km/h (1 Bft) O-NO 63 0 min 0,000 mm 0,0 UV-I 0 W/m 3,7 C 7,7 C 3,2 km/h (1 Bft) 100,00 %
23.04.2016 05:47 7,8 C 76 % 1006,9 hPa 0,0 l/m 2,2 km/h (1 Bft) O-NO 63 0 min 0,000 mm 0,0 UV-I 0 W/m 3,8 C 7,8 C 3,2 km/h (1 Bft) 100,00 %
23.04.2016 05:48 7,8 C 76 % 1006,8 hPa 0,0 l/m 2,3 km/h (1 Bft) O-NO 63 0 min 0,000 mm 0,0 UV-I 0 W/m 3,8 C 7,8 C 3,2 km/h (1 Bft) 96,30 %
23.04.2016 05:49 7,8 C 76 % 1006,9 hPa 0,0 l/m 1,3 km/h (1 Bft) O-NO 63 0 min 0,000 mm 0,0 UV-I 0 W/m 3,8 C 7,8 C 1,6 km/h (1 Bft) 96,55 %
23.04.2016 05:50 7,8 C 76 % 1006,9 hPa 0,0 l/m 1,2 km/h (1 Bft) O-NO 63 0 min 0,000 mm 0,0 UV-I 0 W/m 3,8 C 7,8 C 1,6 km/h (1 Bft) 100,00 %
23.04.2016 05:51 7,8 C 76 % 1006,8 hPa 0,0 l/m 1,6 km/h (1 Bft) O-NO 63 0 min 0,000 mm 0,0 UV-I 0 W/m 3,8 C 7,8 C 3,2 km/h (1 Bft) 100,00 %
23.04.2016 05:52 7,8 C 76 % 1006,8 hPa 0,0 l/m 0,6 km/h (0 Bft) O-NO 63 0 min 0,000 mm 0,0 UV-I 0 W/m 3,8 C 7,8 C 1,6 km/h (1 Bft) 100,00 %
23.04.2016 05:53 7,8 C 76 % 1006,8 hPa 0,0 l/m 0,0 km/h (0 Bft) O-NO 63 0 min 0,000 mm 0,0 UV-I 0 W/m 3,8 C 7,8 C 0,0 km/h (0 Bft) 100,00 %
23.04.2016 05:54 7,8 C 76 % 1006,8 hPa 0,0 l/m 1,2 km/h (1 Bft) O-NO 63 0 min 0,000 mm 0,0 UV-I 0 W/m 3,8 C 7,8 C 1,6 km/h (1 Bft) 100,00 %
23.04.2016 05:55 7,8 C 76 % 1006,8 hPa 0,0 l/m 2,3 km/h (1 Bft) O-NO 63 0 min 0,000 mm 0,0 UV-I 0 W/m 3,8 C 7,8 C 3,2 km/h (1 Bft) 100,00 %
23.04.2016 05:56 7,7 C 76 % 1006,8 hPa 0,0 l/m 2,1 km/h (1 Bft) O-NO 63 0 min 0,000 mm 0,0 UV-I 0 W/m 3,7 C 7,7 C 3,2 km/h (1 Bft) 100,00 %
23.04.2016 05:57 7,8 C 76 % 1006,8 hPa 0,0 l/m 1,7 km/h (1 Bft) O-NO 63 0 min 0,000 mm 0,0 UV-I 0 W/m 3,8 C 7,8 C 3,2 km/h (1 Bft) 100,00 %
23.04.2016 05:58 7,8 C 76 % 1006,8 hPa 0,0 l/m 1,4 km/h (1 Bft) O-NO 63 0 min 0,000 mm 0,0 UV-I 0 W/m 3,8 C 7,8 C 3,2 km/h (1 Bft) 95,83 %
23.04.2016 05:59 7,8 C 76 % 1006,8 hPa 0,0 l/m 0,1 km/h (0 Bft) O-NO 63 0 min 0,000 mm 0,0 UV-I 0 W/m 3,8 C 7,8 C 1,6 km/h (1 Bft) 100,00 %
23.04.2016 06:00 7,8 C 76 % 1006,8 hPa 0,0 l/m 0,0 km/h (0 Bft) O-NO 63 0 min 0,000 mm 0,0 UV-I 0 W/m 3,8 C 7,8 C 0,0 km/h (0 Bft) 100,00 %
23.04.2016 06:02 7,8 C 76 % 1006,8 hPa 0,0 l/m 0,0 km/h (0 Bft) O-NO 63 0 min 0,000 mm 0,0 UV-I 0 W/m 3,8 C 7,8 C 0,0 km/h (0 Bft) 100,00 %
23.04.2016 06:03 7,8 C 76 % 1006,8 hPa 0,0 l/m 0,0 km/h (0 Bft) O-NO 63 0 min 0,000 mm 0,0 UV-I 0 W/m 3,8 C 7,8 C 0,0 km/h (0 Bft) 100,00 %
23.04.2016 06:04 7,8 C 77 % 1006,8 hPa 0,0 l/m 0,0 km/h (0 Bft) O-NO 63 0 min 0,000 mm 0,0 UV-I 0 W/m 4,0 C 7,8 C 0,0 km/h (0 Bft) 100,00 %
23.04.2016 06:05 7,8 C 78 % 1006,8 hPa 0,0 l/m 0,0 km/h (0 Bft) O-NO 63 0 min 0,000 mm 0,0 UV-I 0 W/m 4,2 C 7,8 C 0,0 km/h (0 Bft) 95,65 %
23.04.2016 06:06 7,7 C 79 % 1006,8 hPa 0,0 l/m 0,5 km/h (0 Bft) O-NO 63 0 min 0,000 mm 0,0 UV-I 0 W/m 4,3 C 7,7 C 1,6 km/h (1 Bft) 100,00 %
23.04.2016 06:07 7,7 C 79 % 1006,7 hPa 0,0 l/m 1,1 km/h (1 Bft) O-NO 63 0 min 0,000 mm 0,0 UV-I 0 W/m 4,3 C 7,7 C 1,6 km/h (1 Bft) 100,00 %
23.04.2016 06:08 7,6 C 80 % 1006,7 hPa 0,0 l/m 0,7 km/h (0 Bft) O-NO 63 0 min 0,000 mm 0,0 UV-I 1 W/m 4,4 C 7,6 C 1,6 km/h (1 Bft) 100,00 %
23.04.2016 06:09 7,6 C 81 % 1006,7 hPa 0,0 l/m 0,5 km/h (0 Bft) O-NO 63 0 min 0,000 mm 0,0 UV-I 5 W/m 4,6 C 7,6 C 1,6 km/h (1 Bft) 100,00 %
23.04.2016 06:10 7,5 C 81 % 1006,7 hPa 0,0 l/m 0,3 km/h (0 Bft) O-NO 63 0 min 0,000 mm 0,0 UV-I 5 W/m 4,5 C 7,5 C 1,6 km/h (1 Bft) 100,00 %
23.04.2016 06:11 7,4 C 80 % 1006,7 hPa 0,0 l/m 0,0 km/h (0 Bft) O-NO 63 0 min 0,000 mm 0,0 UV-I 5 W/m 4,2 C 7,4 C 0,0 km/h (0 Bft) 100,00 %
23.04.2016 06:12 7,4 C 80 % 1006,7 hPa 0,0 l/m 0,9 km/h (0 Bft) O-NO 63 0 min 0,000 mm 0,0 UV-I 5 W/m 4,2 C 7,4 C 1,6 km/h (1 Bft) 95,65 %
23.04.2016 06:13 7,4 C 80 % 1006,7 hPa 0,0 l/m 0,7 km/h (0 Bft) O-NO 63 0 min 0,000 mm 0,0 UV-I 7 W/m 4,2 C 7,4 C 1,6 km/h (1 Bft) 100,00 %
23.04.2016 06:14 7,4 C 79 % 1006,7 hPa 0,0 l/m 0,1 km/h (0 Bft) O-NO 63 0 min 0,000 mm 0,0 UV-I 7 W/m 4,0 C 7,4 C 1,6 km/h (1 Bft) 100,00 %
23.04.2016 06:15 7,5 C 79 % 1006,7 hPa 0,0 l/m 0,0 km/h (0 Bft) O-NO 63 0 min 0,000 mm 0,0 UV-I 7 W/m 4,1 C 7,5 C 0,0 km/h (0 Bft) 100,00 %
23.04.2016 06:16 7,5 C 80 % 1006,7 hPa 0,0 l/m 1,1 km/h (1 Bft) O-NO 63 0 min 0,000 mm 0,0 UV-I 8 W/m 4,3 C 7,5 C 1,6 km/h (1 Bft) 100,00 %
23.04.2016 06:17 7,5 C 79 % 1006,7 hPa 0,0 l/m 1,0 km/h (0 Bft) O-NO 63 0 min 0,000 mm 0,0 UV-I 9 W/m 4,1 C 7,5 C 1,6 km/h (1 Bft) 100,00 %
23.04.2016 06:18 7,5 C 80 % 1006,7 hPa 0,0 l/m 0,9 km/h (0 Bft) O-NO 63 0 min 0,000 mm 0,0 UV-I 11 W/m 4,3 C 7,5 C 1,6 km/h (1 Bft) 100,00 %
23.04.2016 06:19 7,5 C 80 % 1006,7 hPa 0,0 l/m 0,3 km/h (0 Bft) O-NO 63 0 min 0,000 mm 0,0 UV-I 11 W/m 4,3 C 7,5 C 1,6 km/h (1 Bft) 95,83 %
23.04.2016 06:20 7,4 C 79 % 1006,7 hPa 0,0 l/m 1,0 km/h (0 Bft) O-NO 63 0 min 0,000 mm 0,0 UV-I 11 W/m 4,0 C 7,4 C 1,6 km/h (1 Bft) 100,00 %
23.04.2016 06:21 7,4 C 79 % 1006,7 hPa 0,0 l/m 0,5 km/h (0 Bft) O-NO 63 0 min 0,000 mm 0,0 UV-I 12 W/m 4,0 C 7,4 C 1,6 km/h (1 Bft) 100,00 %
23.04.2016 06:22 7,4 C 81 % 1006,7 hPa 0,0 l/m 0,0 km/h (0 Bft) O-NO 63 0 min 0,000 mm 0,0 UV-I 13 W/m 4,4 C 7,4 C 0,0 km/h (0 Bft) 100,00 %
23.04.2016 06:23 7,4 C 79 % 1006,7 hPa 0,0 l/m 0,4 km/h (0 Bft) O-NO 63 0 min 0,000 mm 0,0 UV-I 14 W/m 4,0 C 7,4 C 1,6 km/h (1 Bft) 100,00 %
23.04.2016 06:24 7,4 C 80 % 1006,7 hPa 0,0 l/m 0,8 km/h (0 Bft) O-NO 63 0 min 0,000 mm 0,0 UV-I 16 W/m 4,2 C 7,4 C 1,6 km/h (1 Bft) 100,00 %
23.04.2016 06:25 7,4 C 81 % 1006,7 hPa 0,0 l/m 0,8 km/h (0 Bft) O-NO 63 0 min 0,000 mm 0,0 UV-I 16 W/m 4,4 C 7,4 C 1,6 km/h (1 Bft) 100,00 %
23.04.2016 06:26 7,4 C 80 % 1006,7 hPa 0,0 l/m 0,6 km/h (0 Bft) O-NO 63 0 min 0,000 mm 0,0 UV-I 18 W/m 4,2 C 7,4 C 1,6 km/h (1 Bft) 100,00 %
23.04.2016 06:27 7,4 C 79 % 1006,7 hPa 0,0 l/m 0,0 km/h (0 Bft) O-NO 63 0 min 0,000 mm 0,0 UV-I 18 W/m 4,0 C 7,4 C 0,0 km/h (0 Bft) 96,15 %
23.04.2016 06:28 7,4 C 80 % 1006,6 hPa 0,0 l/m 0,0 km/h (0 Bft) O-NO 63 0 min 0,000 mm 0,0 UV-I 19 W/m 4,2 C 7,4 C 0,0 km/h (0 Bft) 100,00 %
23.04.2016 06:29 7,4 C 80 % 1006,7 hPa 0,0 l/m 0,0 km/h (0 Bft) O-NO 63 0 min 0,000 mm 0,0 UV-I 21 W/m 4,2 C 7,4 C 0,0 km/h (0 Bft) 100,00 %
23.04.2016 06:30 7,4 C 80 % 1006,7 hPa 0,0 l/m 0,0 km/h (0 Bft) O-NO 63 0 min 0,000 mm 0,0 UV-I 23 W/m 4,2 C 7,4 C 0,0 km/h (0 Bft) 100,00 %
23.04.2016 06:31 7,4 C 81 % 1006,7 hPa 0,0 l/m 0,0 km/h (0 Bft) O-NO 63 0 min 0,000 mm 0,0 UV-I 23 W/m 4,4 C 7,4 C 0,0 km/h (0 Bft) 100,00 %
23.04.2016 06:32 7,4 C 81 % 1006,7 hPa 0,0 l/m 0,0 km/h (0 Bft) O-NO 63 0 min 0,000 mm 0,0 UV-I 25 W/m 4,4 C 7,4 C 0,0 km/h (0 Bft) 100,00 %
23.04.2016 06:33 7,4 C 81 % 1006,7 hPa 0,0 l/m 0,0 km/h (0 Bft) O-NO 63 0 min 0,000 mm 0,0 UV-I 26 W/m 4,4 C 7,4 C 0,0 km/h (0 Bft) 100,00 %
23.04.2016 06:34 7,4 C 80 % 1006,7 hPa 0,0 l/m 0,2 km/h (0 Bft) O-NO 63 0 min 0,000 mm 0,0 UV-I 26 W/m 4,2 C 7,4 C 1,6 km/h (1 Bft) 100,00 %
23.04.2016 06:35 7,4 C 80 % 1006,7 hPa 0,0 l/m 0,9 km/h (0 Bft) O-NO 63 0 min 0,000 mm 0,0 UV-I 28 W/m 4,2 C 7,4 C 1,6 km/h (1 Bft) 100,00 %
23.04.2016 06:36 7,4 C 81 % 1006,7 hPa 0,0 l/m 0,4 km/h (0 Bft) O-NO 63 0 min 0,000 mm 0,0 UV-I 30 W/m 4,4 C 7,4 C 1,6 km/h (1 Bft) 100,00 %
23.04.2016 06:37 7,4 C 82 % 1006,7 hPa 0,0 l/m 0,0 km/h (0 Bft) O-NO 63 0 min 0,000 mm 0,0 UV-I 30 W/m 4,5 C 7,4 C 0,0 km/h (0 Bft) 100,00 %
23.04.2016 06:38 7,4 C 82 % 1006,7 hPa 0,0 l/m 0,0 km/h (0 Bft) O-NO 63 0 min 0,000 mm 0,0 UV-I 32 W/m 4,5 C 7,4 C 0,0 km/h (0 Bft) 100,00 %
23.04.2016 06:39 7,3 C 81 % 1006,7 hPa 0,0 l/m 0,0 km/h (0 Bft) O-NO 63 0 min 0,000 mm 0,0 UV-I 33 W/m 4,3 C 7,3 C 0,0 km/h (0 Bft) 100,00 %
23.04.2016 06:40 7,3 C 81 % 1006,6 hPa 0,0 l/m 0,0 km/h (0 Bft) O-NO 63 0 min 0,000 mm 0,0 UV-I 34 W/m 4,3 C 7,3 C 0,0 km/h (0 Bft) 100,00 %
23.04.2016 06:41 7,3 C 82 % 1006,6 hPa 0,0 l/m 0,0 km/h (0 Bft) O-NO 63 0 min 0,000 mm 0,0 UV-I 35 W/m 4,4 C 7,3 C 0,0 km/h (0 Bft) 95,65 %
23.04.2016 06:42 7,3 C 83 % 1006,7 hPa 0,0 l/m 0,0 km/h (0 Bft) O-NO 63 0 min 0,000 mm 0,0 UV-I 37 W/m 4,6 C 7,3 C 0,0 km/h (0 Bft) 100,00 %
23.04.2016 06:43 7,3 C 83 % 1006,7 hPa 0,0 l/m 0,0 km/h (0 Bft) O-NO 63 0 min 0,000 mm 0,0 UV-I 39 W/m 4,6 C 7,3 C 0,0 km/h (0 Bft) 95,65 %
23.04.2016 06:44 7,3 C 84 % 1006,6 hPa 0,0 l/m 0,0 km/h (0 Bft) O-NO 63 0 min 0,000 mm 0,0 UV-I 39 W/m 4,8 C 7,3 C 0,0 km/h (0 Bft) 100,00 %
23.04.2016 06:45 7,3 C 84 % 1006,6 hPa 0,0 l/m 0,0 km/h (0 Bft) O-NO 63 0 min 0,000 mm 0,0 UV-I 41 W/m 4,8 C 7,3 C 0,0 km/h (0 Bft) 100,00 %
23.04.2016 06:46 7,3 C 84 % 1006,7 hPa 0,0 l/m 0,1 km/h (0 Bft) O-NO 63 0 min 0,000 mm 0,0 UV-I 42 W/m 4,8 C 7,3 C 1,6 km/h (1 Bft) 100,00 %
23.04.2016 06:47 7,3 C 83 % 1006,7 hPa 0,0 l/m 0,0 km/h (0 Bft) O-NO 63 0 min 0,000 mm 0,0 UV-I 44 W/m 4,6 C 7,3 C 0,0 km/h (0 Bft) 100,00 %
23.04.2016 06:48 7,3 C 83 % 1006,7 hPa 0,0 l/m 0,0 km/h (0 Bft) O-NO 63 0 min 0,000 mm 0,0 UV-I 44 W/m 4,6 C 7,3 C 0,0 km/h (0 Bft) 100,00 %
23.04.2016 06:49 7,3 C 83 % 1006,6 hPa 0,0 l/m 0,1 km/h (0 Bft) O-NO 63 0 min 0,000 mm 0,0 UV-I 46 W/m 4,6 C 7,3 C 1,6 km/h (1 Bft) 100,00 %
23.04.2016 06:50 7,4 C 82 % 1006,6 hPa 0,0 l/m 0,0 km/h (0 Bft) O-NO 63 0 min 0,000 mm 0,0 UV-I 46 W/m 4,5 C 7,4 C 0,0 km/h (0 Bft) 96,55 %
23.04.2016 06:51 7,4 C 82 % 1006,7 hPa 0,0 l/m 0,0 km/h (0 Bft) O-NO 63 0 min 0,000 mm 0,0 UV-I 46 W/m 4,5 C 7,4 C 0,0 km/h (0 Bft) 100,00 %
23.04.2016 06:52 7,4 C 82 % 1006,7 hPa 0,0 l/m 0,0 km/h (0 Bft) O-NO 63 0 min 0,000 mm 0,0 UV-I 47 W/m 4,5 C 7,4 C 0,0 km/h (0 Bft) 100,00 %
23.04.2016 06:53 7,5 C 82 % 1006,7 hPa 0,0 l/m 0,0 km/h (0 Bft) O-NO 63 0 min 0,000 mm 0,0 UV-I 47 W/m 4,6 C 7,5 C 0,0 km/h (0 Bft) 100,00 %
23.04.2016 06:54 7,6 C 82 % 1006,7 hPa 0,0 l/m 0,0 km/h (0 Bft) O-NO 63 0 min 0,000 mm 0,0 UV-I 47 W/m 4,7 C 7,6 C 0,0 km/h (0 Bft) 92,86 %
23.04.2016 06:55 7,6 C 80 % 1006,7 hPa 0,0 l/m 0,0 km/h (0 Bft) O-NO 63 0 min 0,000 mm 0,0 UV-I 47 W/m 4,4 C 7,6 C 0,0 km/h (0 Bft) 100,00 %
23.04.2016 06:56 7,7 C 80 % 1006,6 hPa 0,0 l/m 0,0 km/h (0 Bft) O-NO 63 0 min 0,000 mm 0,0 UV-I 47 W/m 4,5 C 7,7 C 0,0 km/h (0 Bft) 100,00 %
23.04.2016 06:57 7,7 C 80 % 1006,6 hPa 0,0 l/m 0,1 km/h (0 Bft) O-NO 63 0 min 0,000 mm 0,0 UV-I 47 W/m 4,5 C 7,7 C 1,6 km/h (1 Bft) 95,83 %
23.04.2016 06:58 7,7 C 79 % 1006,6 hPa 0,0 l/m 1,6 km/h (1 Bft) O-NO 63 0 min 0,000 mm 0,0 UV-I 47 W/m 4,3 C 7,7 C 3,2 km/h (1 Bft) 95,65 %
23.04.2016 06:59 7,8 C 79 % 1006,6 hPa 0,0 l/m 0,6 km/h (0 Bft) O-NO 63 0 min 0,000 mm 0,0 UV-I 47 W/m 4,4 C 7,8 C 1,6 km/h (1 Bft) 100,00 %
23.04.2016 07:00 7,8 C 79 % 1006,6 hPa 0,0 l/m 0,6 km/h (0 Bft) O-NO 63 0 min 0,025 mm 0,0 UV-I 49 W/m 4,4 C 7,8 C 1,6 km/h (1 Bft) 96,15 %
23.04.2016 07:01 7,8 C 78 % 1006,6 hPa 0,0 l/m 1,0 km/h (0 Bft) O-NO 63 0 min 0,000 mm 0,0 UV-I 49 W/m 4,2 C 7,8 C 1,6 km/h (1 Bft) 93,33 %
23.04.2016 07:02 7,8 C 78 % 1006,6 hPa 0,0 l/m 1,4 km/h (1 Bft) O-NO 63 0 min 0,000 mm 0,0 UV-I 50 W/m 4,2 C 7,8 C 3,2 km/h (1 Bft) 92,31 %
23.04.2016 07:03 7,9 C 79 % 1006,6 hPa 0,0 l/m 1,4 km/h (1 Bft) O-NO 63 0 min 0,000 mm 0,0 UV-I 51 W/m 4,5 C 7,9 C 1,6 km/h (1 Bft) 100,00 %
23.04.2016 07:04 7,9 C 79 % 1006,6 hPa 0,0 l/m 1,7 km/h (1 Bft) O-NO 63 0 min 0,000 mm 0,0 UV-I 52 W/m 4,5 C 7,9 C 3,2 km/h (1 Bft) 93,33 %
23.04.2016 07:05 7,9 C 80 % 1006,6 hPa 0,0 l/m 1,3 km/h (1 Bft) O-NO 63 0 min 0,000 mm 0,0 UV-I 53 W/m 4,7 C 7,9 C 1,6 km/h (1 Bft) 96,55 %
23.04.2016 07:06 7,9 C 79 % 1006,6 hPa 0,0 l/m 0,9 km/h (0 Bft) O-NO 63 0 min 0,000 mm 0,0 UV-I 54 W/m 4,5 C 7,9 C 3,2 km/h (1 Bft) 98,82 %
23.04.2016 07:07 8,0 C 79 % 1006,6 hPa 0,0 l/m 1,7 km/h (1 Bft) O-NO 63 0 min 0,000 mm 0,0 UV-I 55 W/m 4,6 C 8,0 C 3,2 km/h (1 Bft) 96,23 %
23.04.2016 07:08 8,0 C 78 % 1006,6 hPa 0,0 l/m 1,2 km/h (1 Bft) O-NO 63 0 min 0,000 mm 0,0 UV-I 57 W/m 4,4 C 8,0 C 3,2 km/h (1 Bft) 100,00 %
23.04.2016 07:09 8,1 C 77 % 1006,6 hPa 0,0 l/m 2,4 km/h (1 Bft) O-NO 63 0 min 0,000 mm 0,0 UV-I 59 W/m 4,3 C 8,1 C 3,2 km/h (1 Bft) 95,65 %
23.04.2016 07:10 8,1 C 77 % 1006,6 hPa 0,0 l/m 2,5 km/h (1 Bft) O-NO 63 0 min 0,000 mm 0,0 UV-I 60 W/m 4,3 C 8,1 C 3,2 km/h (1 Bft) 100,00 %
23.04.2016 07:11 8,1 C 79 % 1006,6 hPa 0,0 l/m 2,2 km/h (1 Bft) O-NO 63 0 min 0,000 mm 0,0 UV-I 60 W/m 4,7 C 8,1 C 3,2 km/h (1 Bft) 95,65 %
23.04.2016 07:12 8,2 C 77 % 1006,6 hPa 0,0 l/m 1,7 km/h (1 Bft) O-NO 63 0 min 0,000 mm 0,0 UV-I 63 W/m 4,4 C 8,2 C 3,2 km/h (1 Bft) 100,00 %
23.04.2016 07:13 8,2 C 77 % 1006,5 hPa 0,0 l/m 2,1 km/h (1 Bft) O-NO 63 0 min 0,000 mm 0,0 UV-I 64 W/m 4,4 C 8,2 C 3,2 km/h (1 Bft) 95,65 %
23.04.2016 07:14 8,2 C 77 % 1006,5 hPa 0,0 l/m 1,5 km/h (1 Bft) O-NO 63 0 min 0,000 mm 0,0 UV-I 65 W/m 4,4 C 8,2 C 1,6 km/h (1 Bft) 100,00 %
23.04.2016 07:15 8,2 C 78 % 1006,5 hPa 0,0 l/m 1,9 km/h (1 Bft) O-NO 63 0 min 0,000 mm 0,0 UV-I 65 W/m 4,6 C 8,2 C 3,2 km/h (1 Bft) 94,12 %
23.04.2016 07:16 8,2 C 77 % 1006,5 hPa 0,0 l/m 1,7 km/h (1 Bft) O-NO 63 0 min 0,000 mm 0,0 UV-I 67 W/m 4,4 C 8,2 C 3,2 km/h (1 Bft) 96,67 %
23.04.2016 07:17 8,2 C 76 % 1006,5 hPa 0,0 l/m 1,5 km/h (1 Bft) O-NO 63 0 min 0,000 mm 0,0 UV-I 67 W/m 4,2 C 8,2 C 3,2 km/h (1 Bft) 100,00 %
23.04.2016 07:18 8,3 C 76 % 1006,5 hPa 0,0 l/m 1,9 km/h (1 Bft) O-NO 63 0 min 0,000 mm 0,0 UV-I 66 W/m 4,3 C 8,3 C 3,2 km/h (1 Bft) 96,30 %
23.04.2016 07:19 8,3 C 77 % 1006,5 hPa 0,0 l/m 2,4 km/h (1 Bft) O-NO 63 0 min 0,000 mm 0,0 UV-I 65 W/m 4,5 C 8,3 C 3,2 km/h (1 Bft) 100,00 %
23.04.2016 07:20 8,3 C 76 % 1006,5 hPa 0,0 l/m 1,7 km/h (1 Bft) O-NO 63 0 min 0,000 mm 0,0 UV-I 65 W/m 4,3 C 8,3 C 3,2 km/h (1 Bft) 96,15 %
23.04.2016 07:21 8,3 C 76 % 1006,6 hPa 0,0 l/m 1,8 km/h (1 Bft) O-NO 63 0 min 0,000 mm 0,0 UV-I 65 W/m 4,3 C 8,3 C 3,2 km/h (1 Bft) 100,00 %
23.04.2016 07:22 8,3 C 78 % 1006,6 hPa 0,0 l/m 1,9 km/h (1 Bft) O-NO 63 0 min 0,000 mm 0,0 UV-I 65 W/m 4,7 C 8,3 C 3,2 km/h (1 Bft) 95,83 %
23.04.2016 07:23 8,3 C 79 % 1006,6 hPa 0,0 l/m 1,7 km/h (1 Bft) O-NO 63 0 min 0,000 mm 0,0 UV-I 65 W/m 4,9 C 8,3 C 3,2 km/h (1 Bft) 100,00 %
23.04.2016 07:24 8,3 C 78 % 1006,6 hPa 0,0 l/m 1,1 km/h (1 Bft) O-NO 63 0 min 0,000 mm 0,0 UV-I 66 W/m 4,7 C 8,3 C 3,2 km/h (1 Bft) 100,00 %
23.04.2016 07:25 8,3 C 80 % 1006,6 hPa 0,0 l/m 2,2 km/h (1 Bft) O-NO 63 0 min 0,000 mm 0,0 UV-I 67 W/m 5,1 C 8,3 C 3,2 km/h (1 Bft) 93,33 %
23.04.2016 07:26 8,3 C 79 % 1006,6 hPa 0,0 l/m 2,6 km/h (1 Bft) O-NO 63 0 min 0,000 mm 0,0 UV-I 67 W/m 4,9 C 8,3 C 4,8 km/h (1 Bft) 100,00 %
23.04.2016 07:27 8,3 C 78 % 1006,5 hPa 0,0 l/m 1,5 km/h (1 Bft) O-NO 63 0 min 0,000 mm 0,0 UV-I 67 W/m 4,7 C 8,3 C 1,6 km/h (1 Bft) 96,30 %
23.04.2016 07:28 8,3 C 77 % 1006,5 hPa 0,0 l/m 2,2 km/h (1 Bft) O-NO 63 0 min 0,000 mm 0,0 UV-I 67 W/m 4,5 C 8,3 C 3,2 km/h (1 Bft) 95,65 %
23.04.2016 07:29 8,3 C 78 % 1006,5 hPa 0,0 l/m 1,7 km/h (1 Bft) O-NO 63 0 min 0,000 mm 0,0 UV-I 67 W/m 4,7 C 8,3 C 3,2 km/h (1 Bft) 91,67 %
23.04.2016 07:30 8,3 C 78 % 1006,6 hPa 0,0 l/m 1,1 km/h (1 Bft) O-NO 63 0 min 0,000 mm 0,0 UV-I 68 W/m 4,7 C 8,3 C 3,2 km/h (1 Bft) 96,55 %
23.04.2016 07:31 8,3 C 77 % 1006,6 hPa 0,0 l/m 0,5 km/h (0 Bft) O-NO 63 0 min 0,000 mm 0,0 UV-I 69 W/m 4,5 C 8,3 C 1,6 km/h (1 Bft) 100,00 %
23.04.2016 07:32 8,3 C 78 % 1006,6 hPa 0,0 l/m 0,9 km/h (0 Bft) O-NO 63 0 min 0,000 mm 0,0 UV-I 69 W/m 4,7 C 8,3 C 1,6 km/h (1 Bft) 100,00 %
23.04.2016 07:33 8,4 C 79 % 1006,6 hPa 0,0 l/m 0,9 km/h (0 Bft) O-NO 63 0 min 0,000 mm 0,0 UV-I 69 W/m 5,0 C 8,4 C 1,6 km/h (1 Bft) 91,67 %
23.04.2016 07:34 8,4 C 78 % 1006,6 hPa 0,0 l/m 0,9 km/h (0 Bft) O-NO 63 0 min 0,000 mm 0,0 UV-I 69 W/m 4,8 C 8,4 C 1,6 km/h (1 Bft) 100,00 %
23.04.2016 07:35 8,4 C 77 % 1006,6 hPa 0,0 l/m 1,2 km/h (1 Bft) O-NO 63 0 min 0,000 mm 0,0 UV-I 69 W/m 4,6 C 8,4 C 3,2 km/h (1 Bft) 100,00 %
23.04.2016 07:36 8,4 C 79 % 1006,6 hPa 0,0 l/m 0,0 km/h (0 Bft) O-NO 63 0 min 0,000 mm 0,0 UV-I 69 W/m 5,0 C 8,4 C 0,0 km/h (0 Bft) 95,65 %
23.04.2016 07:37 8,5 C 77 % 1006,6 hPa 0,0 l/m 1,1 km/h (1 Bft) O-NO 63 0 min 0,000 mm 0,0 UV-I 69 W/m 4,7 C 8,5 C 1,6 km/h (1 Bft) 100,00 %
23.04.2016 07:38 8,5 C 76 % 1006,6 hPa 0,0 l/m 0,9 km/h (0 Bft) O-NO 63 0 min 0,000 mm 0,0 UV-I 70 W/m 4,5 C 8,5 C 1,6 km/h (1 Bft) 100,00 %
23.04.2016 07:39 8,5 C 78 % 1006,6 hPa 0,0 l/m 1,9 km/h (1 Bft) O-NO 63 0 min 0,000 mm 0,0 UV-I 72 W/m 4,9 C 8,5 C 3,2 km/h (1 Bft) 100,00 %
23.04.2016 07:40 8,6 C 78 % 1006,5 hPa 0,0 l/m 1,0 km/h (0 Bft) O-NO 63 0 min 0,000 mm 0,0 UV-I 74 W/m 5,0 C 8,6 C 1,6 km/h (1 Bft) 100,00 %
23.04.2016 07:41 8,6 C 78 % 1006,5 hPa 0,0 l/m 1,5 km/h (1 Bft) O-NO 63 0 min 0,000 mm 0,0 UV-I 76 W/m 5,0 C 8,6 C 3,2 km/h (1 Bft) 100,00 %
23.04.2016 07:42 8,6 C 77 % 1006,5 hPa 0,0 l/m 1,1 km/h (1 Bft) O-NO 63 0 min 0,000 mm 0,0 UV-I 77 W/m 4,8 C 8,6 C 3,2 km/h (1 Bft) 100,00 %
23.04.2016 07:43 8,6 C 77 % 1006,5 hPa 0,0 l/m 2,1 km/h (1 Bft) O-NO 63 0 min 0,000 mm 0,0 UV-I 78 W/m 4,8 C 8,6 C 3,2 km/h (1 Bft) 95,83 %
23.04.2016 07:44 8,6 C 76 % 1006,5 hPa 0,0 l/m 2,8 km/h (1 Bft) O-NO 63 0 min 0,000 mm 0,0 UV-I 80 W/m 4,6 C 8,6 C 4,8 km/h (1 Bft) 100,00 %
23.04.2016 07:45 8,7 C 77 % 1006,5 hPa 0,0 l/m 2,3 km/h (1 Bft) O-NO 63 0 min 0,000 mm 0,0 UV-I 83 W/m 4,9 C 8,7 C 3,2 km/h (1 Bft) 100,00 %
23.04.2016 07:46 8,7 C 78 % 1006,5 hPa 0,0 l/m 3,8 km/h (1 Bft) O-NO 66 0 min 0,000 mm 0,0 UV-I 84 W/m 5,1 C 8,7 C 4,8 km/h (1 Bft) 100,00 %
23.04.2016 07:47 8,7 C 78 % 1006,4 hPa 0,0 l/m 4,6 km/h (1 Bft) O-NO 66 0 min 0,000 mm 0,0 UV-I 86 W/m 5,1 C 8,7 C 6,4 km/h (2 Bft) 100,00 %
23.04.2016 07:48 8,8 C 76 % 1006,5 hPa 0,0 l/m 5,2 km/h (1 Bft) O-NO 67 0 min 0,000 mm 0,0 UV-I 88 W/m 4,8 C 8,8 C 8,0 km/h (2 Bft) 100,00 %
23.04.2016 07:49 8,8 C 75 % 1006,4 hPa 0,0 l/m 5,6 km/h (1 Bft) O-NO 69 0 min 0,000 mm 0,0 UV-I 89 W/m 4,6 C 8,8 C 6,4 km/h (2 Bft) 100,00 %
23.04.2016 07:50 8,8 C 75 % 1006,5 hPa 0,0 l/m 6,4 km/h (2 Bft) O-NO 66 0 min 0,000 mm 0,0 UV-I 91 W/m 4,6 C 8,8 C 8,0 km/h (2 Bft) 100,00 %
23.04.2016 07:51 8,8 C 75 % 1006,4 hPa 0,0 l/m 4,0 km/h (1 Bft) O-NO 61 0 min 0,000 mm 0,0 UV-I 91 W/m 4,6 C 8,8 C 8,0 km/h (2 Bft) 100,00 %
23.04.2016 07:52 8,8 C 75 % 1006,4 hPa 0,0 l/m 5,2 km/h (1 Bft) O-NO 71 0 min 0,000 mm 0,0 UV-I 93 W/m 4,6 C 8,8 C 6,4 km/h (2 Bft) 100,00 %
23.04.2016 07:53 8,8 C 75 % 1006,4 hPa 0,0 l/m 6,6 km/h (2 Bft) O-NO 72 0 min 0,000 mm 0,0 UV-I 96 W/m 4,6 C 8,7 C 8,0 km/h (2 Bft) 100,00 %
23.04.2016 07:54 8,9 C 75 % 1006,4 hPa 0,0 l/m 3,6 km/h (1 Bft) O-NO 69 0 min 0,000 mm 0,0 UV-I 97 W/m 4,7 C 8,9 C 6,4 km/h (2 Bft) 100,00 %
23.04.2016 07:55 8,9 C 74 % 1006,4 hPa 0,0 l/m 5,5 km/h (1 Bft) O-NO 70 0 min 0,000 mm 0,0 UV-I 99 W/m 4,5 C 8,9 C 8,0 km/h (2 Bft) 94,12 %
23.04.2016 07:56 8,9 C 73 % 1006,4 hPa 0,0 l/m 5,0 km/h (1 Bft) O-NO 63 0 min 0,000 mm 0,0 UV-I 101 W/m 4,3 C 8,9 C 6,4 km/h (2 Bft) 100,00 %
23.04.2016 07:57 8,9 C 74 % 1006,3 hPa 0,0 l/m 6,1 km/h (2 Bft) O-NO 63 0 min 0,000 mm 0,0 UV-I 104 W/m 4,5 C 8,9 C 8,0 km/h (2 Bft) 100,00 %
23.04.2016 07:58 8,9 C 73 % 1006,4 hPa 0,0 l/m 3,4 km/h (1 Bft) O-NO 63 0 min 0,000 mm 0,0 UV-I 105 W/m 4,3 C 8,9 C 4,8 km/h (1 Bft) 100,00 %
23.04.2016 07:59 8,9 C 73 % 1006,4 hPa 0,0 l/m 4,5 km/h (1 Bft) O-NO 78 0 min 0,000 mm 0,0 UV-I 108 W/m 4,3 C 8,9 C 6,4 km/h (2 Bft) 95,65 %
23.04.2016 08:00 8,9 C 74 % 1006,4 hPa 0,0 l/m 4,9 km/h (1 Bft) O 79 0 min 0,051 mm 0,0 UV-I 111 W/m 4,5 C 8,9 C 6,4 km/h (2 Bft) 96,30 %
23.04.2016 08:02 8,9 C 73 % 1006,3 hPa 0,0 l/m 5,6 km/h (1 Bft) O-NO 63 0 min 0,000 mm 0,0 UV-I 114 W/m 4,3 C 8,9 C 8,0 km/h (2 Bft) 100,00 %
23.04.2016 08:03 8,9 C 73 % 1006,3 hPa 0,0 l/m 5,7 km/h (1 Bft) O-NO 70 0 min 0,000 mm 0,0 UV-I 116 W/m 4,3 C 8,9 C 8,0 km/h (2 Bft) 100,00 %
23.04.2016 08:04 8,9 C 72 % 1006,3 hPa 0,0 l/m 5,1 km/h (1 Bft) O-NO 78 0 min 0,000 mm 0,0 UV-I 118 W/m 4,1 C 8,9 C 8,0 km/h (2 Bft) 100,00 %
23.04.2016 08:05 9,0 C 72 % 1006,3 hPa 0,0 l/m 3,5 km/h (1 Bft) O-NO 78 0 min 0,000 mm 0,0 UV-I 120 W/m 4,2 C 9,0 C 4,8 km/h (1 Bft) 100,00 %
23.04.2016 08:06 9,0 C 73 % 1006,3 hPa 0,0 l/m 3,4 km/h (1 Bft) O 90 0 min 0,000 mm 0,0 UV-I 120 W/m 4,4 C 9,0 C 6,4 km/h (2 Bft) 100,00 %
23.04.2016 08:07 9,0 C 73 % 1006,3 hPa 0,0 l/m 6,8 km/h (2 Bft) O-NO 77 0 min 0,000 mm 0,0 UV-I 120 W/m 4,4 C 8,7 C 9,7 km/h (2 Bft) 100,00 %
23.04.2016 08:08 9,1 C 73 % 1006,3 hPa 0,0 l/m 4,2 km/h (1 Bft) O-NO 74 0 min 0,000 mm 0,0 UV-I 120 W/m 4,5 C 9,1 C 6,4 km/h (2 Bft) 100,00 %
23.04.2016 08:09 9,1 C 73 % 1006,3 hPa 0,0 l/m 3,6 km/h (1 Bft) O-NO 74 0 min 0,000 mm 0,0 UV-I 121 W/m 4,5 C 9,1 C 4,8 km/h (1 Bft) 100,00 %
23.04.2016 08:10 9,1 C 73 % 1006,4 hPa 0,0 l/m 2,1 km/h (1 Bft) O-NO 74 0 min 0,000 mm 0,0 UV-I 121 W/m 4,5 C 9,1 C 3,2 km/h (1 Bft) 100,00 %
23.04.2016 08:11 9,1 C 74 % 1006,4 hPa 0,0 l/m 1,6 km/h (1 Bft) O-NO 74 0 min 0,000 mm 0,0 UV-I 123 W/m 4,7 C 9,1 C 3,2 km/h (1 Bft) 100,00 %
23.04.2016 08:12 9,1 C 73 % 1006,4 hPa 0,0 l/m 2,0 km/h (1 Bft) O-NO 74 0 min 0,000 mm 0,0 UV-I 124 W/m 4,5 C 9,1 C 3,2 km/h (1 Bft) 100,00 %
23.04.2016 08:13 9,2 C 74 % 1006,3 hPa 0,0 l/m 2,0 km/h (1 Bft) O-NO 74 0 min 0,000 mm 0,0 UV-I 125 W/m 4,8 C 9,2 C 4,8 km/h (1 Bft) 100,00 %
23.04.2016 08:14 9,2 C 72 % 1006,4 hPa 0,0 l/m 2,1 km/h (1 Bft) O 92 0 min 0,000 mm 0,0 UV-I 127 W/m 4,4 C 9,2 C 3,2 km/h (1 Bft) 100,00 %
23.04.2016 08:15 9,2 C 73 % 1006,4 hPa 0,0 l/m 1,2 km/h (1 Bft) O 92 0 min 0,000 mm 0,0 UV-I 127 W/m 4,6 C 9,2 C 1,6 km/h (1 Bft) 100,00 %
23.04.2016 08:16 9,2 C 73 % 1006,4 hPa 0,0 l/m 1,6 km/h (1 Bft) O-SO 122 0 min 0,000 mm 0,0 UV-I 128 W/m 4,6 C 9,2 C 3,2 km/h (1 Bft) 100,00 %
23.04.2016 08:17 9,2 C 73 % 1006,4 hPa 0,0 l/m 4,4 km/h (1 Bft) O-SO 113 0 min 0,000 mm 0,0 UV-I 128 W/m 4,6 C 9,2 C 11,3 km/h (2 Bft) 100,00 %
23.04.2016 08:18 9,2 C 72 % 1006,4 hPa 0,0 l/m 7,3 km/h (2 Bft) O-SO 113 0 min 0,000 mm 0,0 UV-I 129 W/m 4,4 C 8,5 C 9,7 km/h (2 Bft) 96,67 %
23.04.2016 08:19 9,2 C 74 % 1006,4 hPa 0,0 l/m 2,7 km/h (1 Bft) O-SO 113 0 min 0,000 mm 0,0 UV-I 130 W/m 4,8 C 9,2 C 4,8 km/h (1 Bft) 100,00 %
23.04.2016 08:20 9,2 C 75 % 1006,4 hPa 0,0 l/m 2,7 km/h (1 Bft) O-NO 65 0 min 0,000 mm 0,0 UV-I 131 W/m 5,0 C 9,2 C 6,4 km/h (2 Bft) 100,00 %
23.04.2016 08:21 9,2 C 74 % 1006,4 hPa 0,0 l/m 4,7 km/h (1 Bft) O-NO 64 0 min 0,000 mm 0,0 UV-I 134 W/m 4,8 C 9,2 C 6,4 km/h (2 Bft) 95,83 %
23.04.2016 08:22 9,2 C 74 % 1006,3 hPa 0,0 l/m 4,0 km/h (1 Bft) O-NO 64 0 min 0,000 mm 0,0 UV-I 134 W/m 4,8 C 9,2 C 6,4 km/h (2 Bft) 100,00 %
23.04.2016 08:23 9,2 C 74 % 1006,4 hPa 0,0 l/m 4,0 km/h (1 Bft) O-NO 64 0 min 0,000 mm 0,0 UV-I 136 W/m 4,8 C 9,2 C 4,8 km/h (1 Bft) 100,00 %
23.04.2016 08:24 9,2 C 72 % 1006,3 hPa 0,0 l/m 4,8 km/h (1 Bft) O-NO 74 0 min 0,000 mm 0,0 UV-I 138 W/m 4,4 C 9,2 C 6,4 km/h (2 Bft) 100,00 %
23.04.2016 08:25 9,2 C 72 % 1006,3 hPa 0,0 l/m 4,6 km/h (1 Bft) O 83 0 min 0,000 mm 0,0 UV-I 140 W/m 4,4 C 9,2 C 6,4 km/h (2 Bft) 91,67 %
23.04.2016 08:26 9,2 C 73 % 1006,4 hPa 0,0 l/m 3,2 km/h (1 Bft) O 83 0 min 0,000 mm 0,0 UV-I 141 W/m 4,6 C 9,2 C 4,8 km/h (1 Bft) 100,00 %
23.04.2016 08:27 9,2 C 75 % 1006,2 hPa 0,0 l/m 1,6 km/h (1 Bft) O 83 0 min 0,000 mm 0,0 UV-I 142 W/m 5,0 C 9,2 C 3,2 km/h (1 Bft) 100,00 %
23.04.2016 08:28 9,2 C 75 % 1006,3 hPa 0,0 l/m 1,5 km/h (1 Bft) O 83 0 min 0,000 mm 0,0 UV-I 144 W/m 5,0 C 9,2 C 3,2 km/h (1 Bft) 100,00 %
23.04.2016 08:29 9,2 C 73 % 1006,3 hPa 0,0 l/m 1,2 km/h (1 Bft) O 83 0 min 0,000 mm 0,0 UV-I 147 W/m 4,6 C 9,2 C 3,2 km/h (1 Bft) 100,00 %
23.04.2016 08:30 9,2 C 74 % 1006,3 hPa 0,0 l/m 2,5 km/h (1 Bft) O 84 0 min 0,000 mm 0,0 UV-I 148 W/m 4,8 C 9,2 C 3,2 km/h (1 Bft) 98,77 %
23.04.2016 08:31 9,2 C 75 % 1006,2 hPa 0,0 l/m 1,3 km/h (1 Bft) O 84 0 min 0,000 mm 0,0 UV-I 150 W/m 5,0 C 9,2 C 1,6 km/h (1 Bft) 100,00 %
23.04.2016 08:32 9,2 C 75 % 1006,2 hPa 0,0 l/m 1,0 km/h (0 Bft) O 84 0 min 0,000 mm 0,3 UV-I 151 W/m 5,0 C 9,2 C 1,6 km/h (1 Bft) 100,00 %
23.04.2016 08:33 9,3 C 73 % 1006,2 hPa 0,0 l/m 4,0 km/h (1 Bft) O-SO 113 0 min 0,000 mm 0,5 UV-I 153 W/m 4,7 C 9,3 C 6,4 km/h (2 Bft) 100,00 %
23.04.2016 08:34 9,2 C 72 % 1006,2 hPa 0,0 l/m 3,0 km/h (1 Bft) O-SO 113 0 min 0,000 mm 0,5 UV-I 155 W/m 4,4 C 9,2 C 4,8 km/h (1 Bft) 100,00 %
23.04.2016 08:35 9,2 C 72 % 1006,1 hPa 0,0 l/m 3,7 km/h (1 Bft) O-NO 65 0 min 0,000 mm 0,5 UV-I 157 W/m 4,4 C 9,2 C 6,4 km/h (2 Bft) 95,65 %
23.04.2016 08:36 9,3 C 73 % 1006,1 hPa 0,0 l/m 5,0 km/h (1 Bft) O-NO 65 0 min 0,000 mm 0,5 UV-I 158 W/m 4,7 C 9,3 C 6,4 km/h (2 Bft) 100,00 %
23.04.2016 08:37 9,3 C 72 % 1006,1 hPa 0,0 l/m 6,9 km/h (2 Bft) O-NO 63 0 min 0,000 mm 0,5 UV-I 159 W/m 4,5 C 8,9 C 9,7 km/h (2 Bft) 96,15 %
23.04.2016 08:38 9,3 C 72 % 1006,1 hPa 0,0 l/m 6,7 km/h (2 Bft) O-NO 77 0 min 0,000 mm 0,5 UV-I 160 W/m 4,5 C 9,1 C 9,7 km/h (2 Bft) 100,00 %
23.04.2016 08:39 9,3 C 72 % 1006,1 hPa 0,0 l/m 7,4 km/h (2 Bft) O 100 0 min 0,000 mm 0,5 UV-I 162 W/m 4,5 C 8,6 C 11,3 km/h (2 Bft) 100,00 %
23.04.2016 08:40 9,3 C 72 % 1006,1 hPa 0,0 l/m 3,2 km/h (1 Bft) O 98 0 min 0,000 mm 0,5 UV-I 162 W/m 4,5 C 9,3 C 4,8 km/h (1 Bft) 100,00 %
23.04.2016 08:41 9,3 C 71 % 1006,1 hPa 0,0 l/m 3,8 km/h (1 Bft) O-NO 68 0 min 0,000 mm 0,5 UV-I 162 W/m 4,3 C 9,3 C 4,8 km/h (1 Bft) 100,00 %
23.04.2016 08:42 9,3 C 73 % 1006,1 hPa 0,0 l/m 3,0 km/h (1 Bft) O-NO 58 0 min 0,000 mm 0,5 UV-I 162 W/m 4,7 C 9,3 C 6,4 km/h (2 Bft) 100,00 %
23.04.2016 08:43 9,3 C 73 % 1006,1 hPa 0,0 l/m 3,1 km/h (1 Bft) O-NO 58 0 min 0,000 mm 0,5 UV-I 162 W/m 4,7 C 9,3 C 4,8 km/h (1 Bft) 96,15 %
23.04.2016 08:44 9,3 C 72 % 1006,1 hPa 0,0 l/m 3,6 km/h (1 Bft) O-NO 71 0 min 0,000 mm 0,5 UV-I 162 W/m 4,5 C 9,3 C 4,8 km/h (1 Bft) 91,67 %
23.04.2016 08:45 9,4 C 74 % 1006,1 hPa 0,0 l/m 4,0 km/h (1 Bft) O 84 0 min 0,000 mm 0,5 UV-I 162 W/m 5,0 C 9,4 C 6,4 km/h (2 Bft) 100,00 %
23.04.2016 08:46 9,4 C 72 % 1006,0 hPa 0,0 l/m 2,3 km/h (1 Bft) O-NO 76 0 min 0,000 mm 0,5 UV-I 162 W/m 4,6 C 9,4 C 3,2 km/h (1 Bft) 100,00 %
23.04.2016 08:47 9,3 C 72 % 1006,0 hPa 0,0 l/m 3,4 km/h (1 Bft) O-NO 69 0 min 0,000 mm 0,5 UV-I 162 W/m 4,5 C 9,3 C 4,8 km/h (1 Bft) 100,00 %
23.04.2016 08:48 9,4 C 73 % 1006,0 hPa 0,0 l/m 4,1 km/h (1 Bft) O 92 0 min 0,000 mm 0,5 UV-I 160 W/m 4,8 C 9,4 C 6,4 km/h (2 Bft) 100,00 %
23.04.2016 08:49 9,4 C 72 % 1006,0 hPa 0,0 l/m 6,2 km/h (2 Bft) O 96 0 min 0,000 mm 0,5 UV-I 160 W/m 4,6 C 9,4 C 9,7 km/h (2 Bft) 100,00 %
23.04.2016 08:50 9,4 C 72 % 1006,0 hPa 0,0 l/m 4,4 km/h (1 Bft) O 96 0 min 0,000 mm 0,5 UV-I 160 W/m 4,6 C 9,4 C 6,4 km/h (2 Bft) 95,65 %
23.04.2016 08:51 9,4 C 73 % 1006,0 hPa 0,0 l/m 4,2 km/h (1 Bft) O-SO 123 0 min 0,000 mm 0,5 UV-I 160 W/m 4,8 C 9,4 C 6,4 km/h (2 Bft) 95,83 %
23.04.2016 08:52 9,3 C 72 % 1006,0 hPa 0,0 l/m 4,2 km/h (1 Bft) O-SO 114 0 min 0,000 mm 0,5 UV-I 162 W/m 4,5 C 9,3 C 6,4 km/h (2 Bft) 100,00 %
23.04.2016 08:53 9,3 C 72 % 1006,0 hPa 0,0 l/m 3,2 km/h (1 Bft) O-SO 114 0 min 0,000 mm 0,6 UV-I 165 W/m 4,5 C 9,3 C 4,8 km/h (1 Bft) 100,00 %
23.04.2016 08:54 9,3 C 73 % 1006,0 hPa 0,0 l/m 3,3 km/h (1 Bft) NO 51 0 min 0,000 mm 0,6 UV-I 168 W/m 4,7 C 9,3 C 4,8 km/h (1 Bft) 100,00 %
23.04.2016 08:55 9,4 C 74 % 1006,0 hPa 0,0 l/m 3,1 km/h (1 Bft) O 85 0 min 0,000 mm 0,6 UV-I 170 W/m 5,0 C 9,4 C 4,8 km/h (1 Bft) 100,00 %
23.04.2016 08:56 9,4 C 72 % 1006,0 hPa 0,0 l/m 3,0 km/h (1 Bft) O 86 0 min 0,000 mm 0,6 UV-I 174 W/m 4,6 C 9,4 C 4,8 km/h (1 Bft) 89,66 %
23.04.2016 08:57 9,4 C 73 % 1006,0 hPa 0,0 l/m 3,2 km/h (1 Bft) O-NO 71 0 min 0,000 mm 0,6 UV-I 176 W/m 4,8 C 9,4 C 6,4 km/h (2 Bft) 100,00 %
23.04.2016 08:58 9,4 C 73 % 1006,0 hPa 0,0 l/m 6,1 km/h (2 Bft) O-NO 57 0 min 0,000 mm 0,6 UV-I 180 W/m 4,8 C 9,4 C 8,0 km/h (2 Bft) 100,00 %
23.04.2016 08:59 9,5 C 73 % 1006,0 hPa 0,0 l/m 3,3 km/h (1 Bft) NO 52 0 min 0,000 mm 0,6 UV-I 182 W/m 4,9 C 9,5 C 4,8 km/h (1 Bft) 91,30 %
23.04.2016 09:00 9,5 C 72 % 1006,0 hPa 0,0 l/m 4,7 km/h (1 Bft) NO 44 0 min 0,076 mm 0,6 UV-I 184 W/m 4,7 C 9,5 C 6,4 km/h (2 Bft) 96,55 %
23.04.2016 09:01 9,5 C 73 % 1006,0 hPa 0,0 l/m 4,0 km/h (1 Bft) NO 51 0 min 0,000 mm 0,7 UV-I 185 W/m 4,9 C 9,5 C 6,4 km/h (2 Bft) 95,83 %
23.04.2016 09:02 9,5 C 73 % 1005,9 hPa 0,0 l/m 4,8 km/h (1 Bft) NO 53 0 min 0,000 mm 0,7 UV-I 185 W/m 4,9 C 9,5 C 6,4 km/h (2 Bft) 92,31 %
23.04.2016 09:03 9,6 C 73 % 1005,9 hPa 0,0 l/m 5,2 km/h (1 Bft) NO 46 0 min 0,000 mm 0,7 UV-I 186 W/m 5,0 C 9,6 C 6,4 km/h (2 Bft) 100,00 %
23.04.2016 09:04 9,6 C 73 % 1005,9 hPa 0,0 l/m 4,4 km/h (1 Bft) NO 50 0 min 0,000 mm 0,7 UV-I 187 W/m 5,0 C 9,6 C 4,8 km/h (1 Bft) 93,33 %
23.04.2016 09:05 9,6 C 72 % 1005,9 hPa 0,0 l/m 4,3 km/h (1 Bft) O-NO 57 0 min 0,000 mm 0,7 UV-I 189 W/m 4,8 C 9,6 C 6,4 km/h (2 Bft) 100,00 %
23.04.2016 09:06 9,5 C 72 % 1005,9 hPa 0,0 l/m 4,2 km/h (1 Bft) O-NO 57 0 min 0,000 mm 0,7 UV-I 191 W/m 4,7 C 9,5 C 6,4 km/h (2 Bft) 95,83 %
23.04.2016 09:07 9,5 C 71 % 1005,9 hPa 0,0 l/m 4,2 km/h (1 Bft) O-NO 62 0 min 0,000 mm 0,7 UV-I 193 W/m 4,5 C 9,5 C 6,4 km/h (2 Bft) 96,55 %
23.04.2016 09:08 9,4 C 71 % 1005,9 hPa 0,0 l/m 4,7 km/h (1 Bft) O-NO 64 0 min 0,000 mm 0,7 UV-I 194 W/m 4,4 C 9,4 C 4,8 km/h (1 Bft) 96,30 %
23.04.2016 09:09 9,5 C 71 % 1005,9 hPa 0,0 l/m 4,0 km/h (1 Bft) NO 56 0 min 0,000 mm 0,7 UV-I 201 W/m 4,5 C 9,5 C 4,8 km/h (1 Bft) 85,71 %
23.04.2016 09:10 9,5 C 73 % 1005,9 hPa 0,0 l/m 4,0 km/h (1 Bft) NO 56 0 min 0,000 mm 0,7 UV-I 206 W/m 4,9 C 9,5 C 4,8 km/h (1 Bft) 100,00 %
23.04.2016 09:11 9,5 C 71 % 1005,9 hPa 0,0 l/m 5,5 km/h (1 Bft) O-NO 57 0 min 0,000 mm 0,8 UV-I 209 W/m 4,5 C 9,5 C 6,4 km/h (2 Bft) 96,15 %
23.04.2016 09:12 9,5 C 72 % 1005,9 hPa 0,0 l/m 5,0 km/h (1 Bft) NO 56 0 min 0,000 mm 0,8 UV-I 213 W/m 4,7 C 9,5 C 6,4 km/h (2 Bft) 100,00 %
23.04.2016 09:13 9,5 C 71 % 1005,9 hPa 0,0 l/m 4,6 km/h (1 Bft) NO 56 0 min 0,000 mm 0,8 UV-I 215 W/m 4,5 C 9,5 C 4,8 km/h (1 Bft) 92,31 %
23.04.2016 09:14 9,6 C 72 % 1005,8 hPa 0,0 l/m 3,9 km/h (1 Bft) NO 56 0 min 0,000 mm 0,8 UV-I 218 W/m 4,8 C 9,6 C 6,4 km/h (2 Bft) 96,30 %
23.04.2016 09:15 9,6 C 72 % 1005,8 hPa 0,0 l/m 3,7 km/h (1 Bft) NO 56 0 min 0,000 mm 0,8 UV-I 220 W/m 4,8 C 9,6 C 4,8 km/h (1 Bft) 100,00 %
23.04.2016 09:16 9,6 C 72 % 1005,8 hPa 0,0 l/m 2,8 km/h (1 Bft) NO 56 0 min 0,000 mm 0,8 UV-I 220 W/m 4,8 C 9,6 C 3,2 km/h (1 Bft) 93,33 %
23.04.2016 09:17 9,6 C 72 % 1005,8 hPa 0,0 l/m 2,5 km/h (1 Bft) NO 56 0 min 0,000 mm 0,8 UV-I 221 W/m 4,8 C 9,6 C 4,8 km/h (1 Bft) 100,00 %
23.04.2016 09:18 9,7 C 71 % 1005,8 hPa 0,0 l/m 3,6 km/h (1 Bft) NO 56 0 min 0,000 mm 0,8 UV-I 221 W/m 4,7 C 9,7 C 4,8 km/h (1 Bft) 91,67 %
23.04.2016 09:19 9,7 C 72 % 1005,8 hPa 0,0 l/m 2,7 km/h (1 Bft) NO 56 0 min 0,000 mm 0,8 UV-I 220 W/m 4,9 C 9,7 C 4,8 km/h (1 Bft) 100,00 %
23.04.2016 09:20 9,7 C 72 % 1005,8 hPa 0,0 l/m 3,2 km/h (1 Bft) NO 56 0 min 0,000 mm 0,8 UV-I 220 W/m 4,9 C 9,7 C 4,8 km/h (1 Bft) 95,83 %
23.04.2016 09:21 9,7 C 72 % 1005,8 hPa 0,0 l/m 2,1 km/h (1 Bft) NO 56 0 min 0,000 mm 0,8 UV-I 217 W/m 4,9 C 9,7 C 4,8 km/h (1 Bft) 100,00 %
23.04.2016 09:22 9,7 C 75 % 1005,8 hPa 0,0 l/m 4,6 km/h (1 Bft) NO 56 0 min 0,000 mm 0,8 UV-I 215 W/m 5,5 C 9,7 C 6,4 km/h (2 Bft) 91,67 %
23.04.2016 09:23 9,8 C 73 % 1005,8 hPa 0,0 l/m 3,5 km/h (1 Bft) NO 56 0 min 0,000 mm 0,8 UV-I 212 W/m 5,2 C 9,8 C 4,8 km/h (1 Bft) 95,65 %
23.04.2016 09:24 9,8 C 74 % 1005,8 hPa 0,0 l/m 3,1 km/h (1 Bft) NO 56 0 min 0,000 mm 0,8 UV-I 210 W/m 5,4 C 9,8 C 4,8 km/h (1 Bft) 100,00 %
23.04.2016 09:25 9,8 C 73 % 1005,8 hPa 0,0 l/m 2,8 km/h (1 Bft) NO 56 0 min 0,000 mm 0,8 UV-I 207 W/m 5,2 C 9,8 C 4,8 km/h (1 Bft) 91,67 %
23.04.2016 09:26 9,8 C 71 % 1005,7 hPa 0,0 l/m 3,7 km/h (1 Bft) NO 56 0 min 0,000 mm 0,8 UV-I 206 W/m 4,8 C 9,8 C 6,4 km/h (2 Bft) 100,00 %
23.04.2016 09:27 9,8 C 72 % 1005,7 hPa 0,0 l/m 2,7 km/h (1 Bft) NO 56 0 min 0,000 mm 0,8 UV-I 206 W/m 5,0 C 9,8 C 4,8 km/h (1 Bft) 96,30 %
23.04.2016 09:28 9,8 C 71 % 1005,7 hPa 0,0 l/m 1,9 km/h (1 Bft) NO 56 0 min 0,000 mm 0,8 UV-I 206 W/m 4,8 C 9,8 C 4,8 km/h (1 Bft) 100,00 %
23.04.2016 09:29 9,8 C 71 % 1005,8 hPa 0,0 l/m 3,8 km/h (1 Bft) NO 56 0 min 0,000 mm 0,8 UV-I 206 W/m 4,8 C 9,8 C 4,8 km/h (1 Bft) 91,67 %
23.04.2016 09:30 9,8 C 72 % 1005,8 hPa 0,0 l/m 3,4 km/h (1 Bft) NO 56 0 min 0,000 mm 0,8 UV-I 207 W/m 5,0 C 9,8 C 4,8 km/h (1 Bft) 100,00 %
23.04.2016 09:31 9,8 C 71 % 1005,8 hPa 0,0 l/m 1,8 km/h (1 Bft) NO 56 0 min 0,000 mm 0,8 UV-I 209 W/m 4,8 C 9,8 C 3,2 km/h (1 Bft) 95,83 %
23.04.2016 09:32 9,8 C 72 % 1005,7 hPa 0,0 l/m 2,8 km/h (1 Bft) NO 56 0 min 0,000 mm 0,9 UV-I 209 W/m 5,0 C 9,8 C 3,2 km/h (1 Bft) 96,55 %
23.04.2016 09:33 9,8 C 73 % 1005,7 hPa 0,0 l/m 2,3 km/h (1 Bft) NO 56 0 min 0,000 mm 0,9 UV-I 211 W/m 5,2 C 9,8 C 3,2 km/h (1 Bft) 98,49 %
23.04.2016 09:34 9,9 C 73 % 1005,7 hPa 0,0 l/m 2,2 km/h (1 Bft) NO 56 0 min 0,000 mm 0,9 UV-I 211 W/m 5,3 C 9,9 C 3,2 km/h (1 Bft) 100,00 %
23.04.2016 09:35 9,9 C 72 % 1005,7 hPa 0,0 l/m 3,2 km/h (1 Bft) O-NO 59 0 min 0,000 mm 0,9 UV-I 211 W/m 5,1 C 9,9 C 4,8 km/h (1 Bft) 100,00 %
23.04.2016 09:36 9,9 C 72 % 1005,7 hPa 0,0 l/m 2,8 km/h (1 Bft) O-NO 59 0 min 0,000 mm 0,9 UV-I 211 W/m 5,1 C 9,9 C 3,2 km/h (1 Bft) 100,00 %
23.04.2016 09:37 9,9 C 73 % 1005,7 hPa 0,0 l/m 2,9 km/h (1 Bft) O-NO 59 0 min 0,000 mm 0,9 UV-I 209 W/m 5,3 C 9,9 C 4,8 km/h (1 Bft) 100,00 %
23.04.2016 09:38 9,9 C 73 % 1005,7 hPa 0,0 l/m 3,6 km/h (1 Bft) O-NO 59 0 min 0,000 mm 0,9 UV-I 209 W/m 5,3 C 9,9 C 4,8 km/h (1 Bft) 100,00 %
23.04.2016 09:39 9,9 C 72 % 1005,7 hPa 0,0 l/m 2,5 km/h (1 Bft) O-NO 59 0 min 0,000 mm 0,9 UV-I 208 W/m 5,1 C 9,9 C 4,8 km/h (1 Bft) 100,00 %
23.04.2016 09:40 9,9 C 72 % 1005,7 hPa 0,0 l/m 3,4 km/h (1 Bft) O-NO 59 0 min 0,000 mm 0,9 UV-I 207 W/m 5,1 C 9,9 C 4,8 km/h (1 Bft) 100,00 %
23.04.2016 09:41 9,9 C 73 % 1005,7 hPa 0,0 l/m 1,3 km/h (1 Bft) O-NO 59 0 min 0,000 mm 0,9 UV-I 207 W/m 5,3 C 9,9 C 3,2 km/h (1 Bft) 100,00 %
23.04.2016 09:42 9,9 C 73 % 1005,7 hPa 0,0 l/m 0,4 km/h (0 Bft) O-NO 59 0 min 0,000 mm 0,9 UV-I 207 W/m 5,3 C 9,9 C 1,6 km/h (1 Bft) 95,83 %
23.04.2016 09:43 10,0 C 74 % 1005,7 hPa 0,0 l/m 0,0 km/h (0 Bft) O-NO 59 0 min 0,000 mm 0,9 UV-I 207 W/m 5,6 C 10,0 C 0,0 km/h (0 Bft) 100,00 %
23.04.2016 09:44 10,0 C 76 % 1005,7 hPa 0,0 l/m 0,0 km/h (0 Bft) O-NO 59 0 min 0,000 mm 0,9 UV-I 209 W/m 6,0 C 10,0 C 0,0 km/h (0 Bft) 100,00 %
23.04.2016 09:45 10,1 C 75 % 1005,7 hPa 0,0 l/m 1,3 km/h (1 Bft) O-NO 59 0 min 0,000 mm 0,9 UV-I 209 W/m 5,9 C 10,1 C 4,8 km/h (1 Bft) 100,00 %
23.04.2016 09:46 10,1 C 75 % 1005,7 hPa 0,0 l/m 5,0 km/h (1 Bft) NO 51 0 min 0,000 mm 0,9 UV-I 210 W/m 5,9 C 10,1 C 6,4 km/h (2 Bft) 100,00 %
23.04.2016 09:47 10,1 C 74 % 1005,7 hPa 0,0 l/m 3,1 km/h (1 Bft) NO 51 0 min 0,000 mm 0,9 UV-I 211 W/m 5,7 C 10,1 C 4,8 km/h (1 Bft) 100,00 %
23.04.2016 09:48 10,2 C 76 % 1005,7 hPa 0,0 l/m 3,9 km/h (1 Bft) NO 51 0 min 0,000 mm 0,9 UV-I 213 W/m 6,2 C 10,2 C 4,8 km/h (1 Bft) 100,00 %
23.04.2016 09:49 10,2 C 74 % 1005,7 hPa 0,0 l/m 2,7 km/h (1 Bft) NO 51 0 min 0,000 mm 1,0 UV-I 214 W/m 5,8 C 10,2 C 4,8 km/h (1 Bft) 95,65 %
23.04.2016 09:50 10,3 C 75 % 1005,7 hPa 0,0 l/m 3,0 km/h (1 Bft) NO 51 0 min 0,000 mm 1,0 UV-I 216 W/m 6,1 C 10,3 C 4,8 km/h (1 Bft) 100,00 %
23.04.2016 09:51 10,3 C 75 % 1005,7 hPa 0,0 l/m 3,4 km/h (1 Bft) NO 51 0 min 0,000 mm 1,0 UV-I 216 W/m 6,1 C 10,3 C 4,8 km/h (1 Bft) 100,00 %
23.04.2016 09:52 10,3 C 73 % 1005,7 hPa 0,0 l/m 1,9 km/h (1 Bft) NO 51 0 min 0,000 mm 1,0 UV-I 216 W/m 5,7 C 10,3 C 3,2 km/h (1 Bft) 100,00 %
23.04.2016 09:53 10,3 C 72 % 1005,7 hPa 0,0 l/m 0,6 km/h (0 Bft) NO 51 0 min 0,000 mm 1,0 UV-I 216 W/m 5,5 C 10,3 C 1,6 km/h (1 Bft) 100,00 %
23.04.2016 09:54 10,3 C 74 % 1005,7 hPa 0,0 l/m 2,1 km/h (1 Bft) NO 51 0 min 0,000 mm 1,0 UV-I 216 W/m 5,9 C 10,3 C 3,2 km/h (1 Bft) 100,00 %
23.04.2016 09:55 10,2 C 73 % 1005,7 hPa 0,0 l/m 0,4 km/h (0 Bft) NO 51 0 min 0,000 mm 1,0 UV-I 214 W/m 5,6 C 10,2 C 1,6 km/h (1 Bft) 100,00 %
23.04.2016 09:56 10,2 C 73 % 1005,8 hPa 0,0 l/m 0,2 km/h (0 Bft) NO 51 0 min 0,000 mm 1,0 UV-I 213 W/m 5,6 C 10,2 C 1,6 km/h (1 Bft) 100,00 %
23.04.2016 09:57 10,2 C 72 % 1005,8 hPa 0,0 l/m 0,1 km/h (0 Bft) NO 51 0 min 0,000 mm 1,0 UV-I 210 W/m 5,4 C 10,2 C 1,6 km/h (1 Bft) 100,00 %
23.04.2016 09:58 10,2 C 73 % 1005,7 hPa 0,0 l/m 3,8 km/h (1 Bft) NO 51 0 min 0,000 mm 1,0 UV-I 208 W/m 5,6 C 10,2 C 4,8 km/h (1 Bft) 100,00 %
23.04.2016 09:59 10,2 C 75 % 1005,7 hPa 0,0 l/m 3,1 km/h (1 Bft) NO 49 0 min 0,000 mm 1,0 UV-I 206 W/m 6,0 C 10,2 C 4,8 km/h (1 Bft) 100,00 %
23.04.2016 10:00 10,3 C 75 % 1005,7 hPa 0,0 l/m 2,4 km/h (1 Bft) NO 49 0 min 0,102 mm 1,0 UV-I 204 W/m 6,1 C 10,3 C 4,8 km/h (1 Bft) 100,00 %
23.04.2016 10:02 10,3 C 72 % 1005,7 hPa 0,0 l/m 3,7 km/h (1 Bft) NO 49 0 min 0,000 mm 1,0 UV-I 202 W/m 5,5 C 10,3 C 4,8 km/h (1 Bft) 100,00 %
23.04.2016 10:03 10,3 C 72 % 1005,7 hPa 0,0 l/m 4,5 km/h (1 Bft) NO 53 0 min 0,000 mm 1,0 UV-I 200 W/m 5,5 C 10,3 C 4,8 km/h (1 Bft) 100,00 %
23.04.2016 10:04 10,4 C 72 % 1005,7 hPa 0,0 l/m 3,9 km/h (1 Bft) NO 53 0 min 0,000 mm 1,0 UV-I 199 W/m 5,6 C 10,4 C 6,4 km/h (2 Bft) 100,00 %
23.04.2016 10:05 10,4 C 72 % 1005,7 hPa 0,0 l/m 3,4 km/h (1 Bft) O-NO 59 0 min 0,000 mm 1,0 UV-I 199 W/m 5,6 C 10,4 C 4,8 km/h (1 Bft) 100,00 %
23.04.2016 10:06 10,4 C 72 % 1005,6 hPa 0,0 l/m 2,9 km/h (1 Bft) O-NO 75 0 min 0,000 mm 1,0 UV-I 199 W/m 5,6 C 10,4 C 4,8 km/h (1 Bft) 100,00 %
23.04.2016 10:07 10,4 C 73 % 1005,7 hPa 0,0 l/m 1,9 km/h (1 Bft) O-NO 74 0 min 0,000 mm 1,0 UV-I 199 W/m 5,8 C 10,4 C 4,8 km/h (1 Bft) 100,00 %
23.04.2016 10:08 10,4 C 73 % 1005,7 hPa 0,0 l/m 4,9 km/h (1 Bft) NO 42 0 min 0,000 mm 1,0 UV-I 199 W/m 5,8 C 10,4 C 6,4 km/h (2 Bft) 100,00 %
23.04.2016 10:09 10,4 C 72 % 1005,7 hPa 0,0 l/m 2,7 km/h (1 Bft) NO 49 0 min 0,000 mm 1,0 UV-I 200 W/m 5,6 C 10,4 C 4,8 km/h (1 Bft) 100,00 %
23.04.2016 10:10 10,4 C 72 % 1005,7 hPa 0,0 l/m 3,7 km/h (1 Bft) O-NO 65 0 min 0,000 mm 1,0 UV-I 202 W/m 5,6 C 10,4 C 4,8 km/h (1 Bft) 100,00 %
23.04.2016 10:11 10,4 C 72 % 1005,7 hPa 0,0 l/m 2,1 km/h (1 Bft) O-NO 65 0 min 0,000 mm 1,0 UV-I 206 W/m 5,6 C 10,4 C 3,2 km/h (1 Bft) 100,00 %
23.04.2016 10:12 10,4 C 73 % 1005,6 hPa 0,0 l/m 4,2 km/h (1 Bft) O-NO 61 0 min 0,000 mm 1,0 UV-I 210 W/m 5,8 C 10,4 C 6,4 km/h (2 Bft) 100,00 %
23.04.2016 10:13 10,4 C 73 % 1005,7 hPa 0,0 l/m 3,4 km/h (1 Bft) O-NO 60 0 min 0,000 mm 1,1 UV-I 215 W/m 5,8 C 10,4 C 6,4 km/h (2 Bft) 100,00 %
23.04.2016 10:14 10,4 C 73 % 1005,7 hPa 0,0 l/m 1,7 km/h (1 Bft) O-NO 60 0 min 0,000 mm 1,1 UV-I 222 W/m 5,8 C 10,4 C 3,2 km/h (1 Bft) 100,00 %
23.04.2016 10:15 10,4 C 73 % 1005,6 hPa 0,0 l/m 3,7 km/h (1 Bft) O-NO 71 0 min 0,000 mm 1,1 UV-I 229 W/m 5,8 C 10,4 C 6,4 km/h (2 Bft) 100,00 %
23.04.2016 10:16 10,5 C 73 % 1005,7 hPa 0,0 l/m 6,3 km/h (2 Bft) O-NO 65 0 min 0,000 mm 1,2 UV-I 236 W/m 5,9 C 10,5 C 8,0 km/h (2 Bft) 100,00 %
23.04.2016 10:17 10,5 C 72 % 1005,7 hPa 0,0 l/m 5,7 km/h (1 Bft) O-NO 67 0 min 0,000 mm 1,2 UV-I 245 W/m 5,7 C 10,5 C 8,0 km/h (2 Bft) 100,00 %
23.04.2016 10:18 10,6 C 73 % 1005,7 hPa 0,0 l/m 5,5 km/h (1 Bft) O-NO 71 0 min 0,000 mm 1,3 UV-I 251 W/m 6,0 C 10,6 C 6,4 km/h (2 Bft) 100,00 %
23.04.2016 10:19 10,6 C 73 % 1005,7 hPa 0,0 l/m 5,2 km/h (1 Bft) O-NO 71 0 min 0,000 mm 1,3 UV-I 258 W/m 6,0 C 10,6 C 6,4 km/h (2 Bft) 100,00 %
23.04.2016 10:20 10,7 C 74 % 1005,7 hPa 0,0 l/m 4,6 km/h (1 Bft) O-NO 71 0 min 0,000 mm 1,3 UV-I 263 W/m 6,3 C 10,7 C 6,4 km/h (2 Bft) 100,00 %
23.04.2016 10:21 10,7 C 73 % 1005,7 hPa 0,0 l/m 4,6 km/h (1 Bft) O 93 0 min 0,000 mm 1,3 UV-I 270 W/m 6,1 C 10,7 C 6,4 km/h (2 Bft) 100,00 %
23.04.2016 10:22 10,7 C 73 % 1005,7 hPa 0,0 l/m 4,9 km/h (1 Bft) O 98 0 min 0,000 mm 1,4 UV-I 273 W/m 6,1 C 10,7 C 6,4 km/h (2 Bft) 100,00 %
23.04.2016 10:23 10,7 C 74 % 1005,6 hPa 0,0 l/m 4,7 km/h (1 Bft) O-SO 105 0 min 0,000 mm 1,4 UV-I 277 W/m 6,3 C 10,7 C 4,8 km/h (1 Bft) 91,67 %
23.04.2016 10:24 10,7 C 72 % 1005,6 hPa 0,0 l/m 4,7 km/h (1 Bft) O-SO 112 0 min 0,000 mm 1,4 UV-I 278 W/m 5,9 C 10,7 C 6,4 km/h (2 Bft) 96,30 %
23.04.2016 10:25 10,7 C 73 % 1005,6 hPa 0,0 l/m 4,2 km/h (1 Bft) O-NO 69 0 min 0,000 mm 1,4 UV-I 278 W/m 6,1 C 10,7 C 4,8 km/h (1 Bft) 100,00 %
23.04.2016 10:26 10,7 C 73 % 1005,6 hPa 0,0 l/m 3,4 km/h (1 Bft) O-NO 75 0 min 0,000 mm 1,4 UV-I 278 W/m 6,1 C 10,7 C 4,8 km/h (1 Bft) 100,00 %
23.04.2016 10:27 10,7 C 73 % 1005,6 hPa 0,0 l/m 3,4 km/h (1 Bft) O-NO 75 0 min 0,000 mm 1,4 UV-I 278 W/m 6,1 C 10,7 C 4,8 km/h (1 Bft) 100,00 %
23.04.2016 10:28 10,8 C 76 % 1005,6 hPa 0,0 l/m 3,2 km/h (1 Bft) O-NO 73 0 min 0,000 mm 1,4 UV-I 278 W/m 6,7 C 10,8 C 4,8 km/h (1 Bft) 95,83 %
23.04.2016 10:29 10,9 C 74 % 1005,7 hPa 0,0 l/m 5,8 km/h (2 Bft) O-NO 65 0 min 0,000 mm 1,5 UV-I 279 W/m 6,5 C 10,9 C 8,0 km/h (2 Bft) 100,00 %
23.04.2016 10:30 10,9 C 72 % 1005,6 hPa 0,0 l/m 5,2 km/h (1 Bft) O-NO 57 0 min 0,000 mm 1,5 UV-I 281 W/m 6,1 C 10,9 C 8,0 km/h (2 Bft) 100,00 %
23.04.2016 10:31 10,9 C 73 % 1005,6 hPa 0,0 l/m 7,2 km/h (2 Bft) NO 55 0 min 0,000 mm 1,5 UV-I 284 W/m 6,3 C 10,3 C 9,7 km/h (2 Bft) 100,00 %
23.04.2016 10:32 10,9 C 73 % 1005,6 hPa 0,0 l/m 7,8 km/h (2 Bft) O-NO 57 0 min 0,000 mm 1,5 UV-I 286 W/m 6,3 C 9,9 C 9,7 km/h (2 Bft) 100,00 %
23.04.2016 10:33 10,9 C 71 % 1005,7 hPa 0,0 l/m 7,2 km/h (2 Bft) O-NO 57 0 min 0,000 mm 1,5 UV-I 287 W/m 5,9 C 10,3 C 9,7 km/h (2 Bft) 100,00 %
23.04.2016 10:34 10,9 C 72 % 1005,6 hPa 0,0 l/m 6,2 km/h (2 Bft) O-NO 77 0 min 0,000 mm 1,5 UV-I 289 W/m 6,1 C 10,9 C 8,0 km/h (2 Bft) 96,30 %
23.04.2016 10:35 10,9 C 72 % 1005,6 hPa 0,0 l/m 7,5 km/h (2 Bft) O-NO 68 0 min 0,000 mm 1,6 UV-I 293 W/m 6,1 C 10,1 C 9,7 km/h (2 Bft) 100,00 %
23.04.2016 10:36 10,9 C 72 % 1005,6 hPa 0,0 l/m 6,3 km/h (2 Bft) NO 50 0 min 0,000 mm 1,6 UV-I 297 W/m 6,1 C 10,9 C 8,0 km/h (2 Bft) 100,00 %
23.04.2016 10:37 10,9 C 72 % 1005,6 hPa 0,0 l/m 6,6 km/h (2 Bft) O-NO 61 0 min 0,000 mm 1,6 UV-I 302 W/m 6,1 C 10,8 C 8,0 km/h (2 Bft) 100,00 %
23.04.2016 10:38 10,9 C 73 % 1005,6 hPa 0,0 l/m 5,1 km/h (1 Bft) O-NO 63 0 min 0,000 mm 1,6 UV-I 306 W/m 6,3 C 10,9 C 6,4 km/h (2 Bft) 100,00 %
23.04.2016 10:39 10,9 C 72 % 1005,6 hPa 0,0 l/m 7,5 km/h (2 Bft) NO 54 0 min 0,000 mm 1,7 UV-I 310 W/m 6,1 C 10,1 C 9,7 km/h (2 Bft) 100,00 %
23.04.2016 10:40 10,9 C 73 % 1005,7 hPa 0,0 l/m 6,1 km/h (2 Bft) NO 51 0 min 0,000 mm 1,7 UV-I 316 W/m 6,3 C 10,9 C 12,9 km/h (3 Bft) 100,00 %
23.04.2016 10:41 11,0 C 72 % 1005,7 hPa 0,0 l/m 3,4 km/h (1 Bft) NO 51 0 min 0,000 mm 1,7 UV-I 322 W/m 6,2 C 11,0 C 4,8 km/h (1 Bft) 100,00 %
23.04.2016 10:42 11,0 C 72 % 1005,6 hPa 0,0 l/m 4,5 km/h (1 Bft) O-NO 65 0 min 0,000 mm 1,7 UV-I 329 W/m 6,2 C 11,0 C 6,4 km/h (2 Bft) 100,00 %
23.04.2016 10:43 11,0 C 71 % 1005,6 hPa 0,0 l/m 4,2 km/h (1 Bft) O-NO 72 0 min 0,000 mm 1,8 UV-I 334 W/m 5,9 C 11,0 C 8,0 km/h (2 Bft) 96,30 %
23.04.2016 10:44 11,1 C 73 % 1005,6 hPa 0,0 l/m 4,0 km/h (1 Bft) O 93 0 min 0,000 mm 1,8 UV-I 341 W/m 6,4 C 11,1 C 6,4 km/h (2 Bft) 100,00 %
23.04.2016 10:45 11,1 C 73 % 1005,6 hPa 0,0 l/m 3,1 km/h (1 Bft) O-SO 109 0 min 0,000 mm 1,8 UV-I 341 W/m 6,4 C 11,1 C 4,8 km/h (1 Bft) 100,00 %
23.04.2016 10:46 11,1 C 72 % 1005,6 hPa 0,0 l/m 3,1 km/h (1 Bft) O-NO 63 0 min 0,000 mm 1,8 UV-I 338 W/m 6,2 C 11,1 C 4,8 km/h (1 Bft) 100,00 %
23.04.2016 10:47 11,2 C 72 % 1005,6 hPa 0,0 l/m 5,4 km/h (1 Bft) NO 49 0 min 0,000 mm 1,8 UV-I 334 W/m 6,3 C 11,2 C 6,4 km/h (2 Bft) 100,00 %
23.04.2016 10:48 11,2 C 73 % 1005,6 hPa 0,0 l/m 5,1 km/h (1 Bft) O-NO 61 0 min 0,000 mm 1,8 UV-I 332 W/m 6,5 C 11,2 C 8,0 km/h (2 Bft) 100,00 %
23.04.2016 10:49 11,2 C 73 % 1005,6 hPa 0,0 l/m 5,0 km/h (1 Bft) N-NO 28 0 min 0,000 mm 1,8 UV-I 335 W/m 6,5 C 11,2 C 6,4 km/h (2 Bft) 95,83 %
23.04.2016 10:50 11,3 C 75 % 1005,7 hPa 0,0 l/m 4,6 km/h (1 Bft) NO 40 0 min 0,000 mm 1,8 UV-I 341 W/m 7,0 C 11,3 C 6,4 km/h (2 Bft) 100,00 %
23.04.2016 10:51 11,3 C 75 % 1005,7 hPa 0,0 l/m 5,2 km/h (1 Bft) NO 40 0 min 0,000 mm 1,8 UV-I 361 W/m 7,0 C 11,3 C 6,4 km/h (2 Bft) 100,00 %
23.04.2016 10:52 11,4 C 73 % 1005,7 hPa 0,0 l/m 4,1 km/h (1 Bft) NO 42 0 min 0,000 mm 1,9 UV-I 378 W/m 6,7 C 11,4 C 4,8 km/h (1 Bft) 100,00 %
23.04.2016 10:53 11,3 C 71 % 1005,7 hPa 0,0 l/m 1,2 km/h (1 Bft) NO 42 0 min 0,000 mm 1,9 UV-I 386 W/m 6,2 C 11,3 C 3,2 km/h (1 Bft) 100,00 %
23.04.2016 10:54 11,3 C 72 % 1005,7 hPa 0,0 l/m 0,4 km/h (0 Bft) NO 42 1 min 0,000 mm 2,0 UV-I 395 W/m 6,4 C 11,3 C 1,6 km/h (1 Bft) 100,00 %
23.04.2016 10:55 11,3 C 73 % 1005,7 hPa 0,0 l/m 1,1 km/h (1 Bft) NO 42 1 min 0,000 mm 2,0 UV-I 400 W/m 6,6 C 11,3 C 3,2 km/h (1 Bft) 91,67 %
23.04.2016 10:56 11,4 C 74 % 1005,7 hPa 0,0 l/m 5,7 km/h (1 Bft) NO 36 1 min 0,000 mm 2,0 UV-I 407 W/m 6,9 C 11,4 C 8,0 km/h (2 Bft) 100,00 %
23.04.2016 10:57 11,4 C 72 % 1005,7 hPa 0,0 l/m 6,3 km/h (2 Bft) NO 52 1 min 0,000 mm 2,0 UV-I 414 W/m 6,5 C 11,4 C 8,0 km/h (2 Bft) 96,30 %
23.04.2016 10:58 11,6 C 72 % 1005,7 hPa 0,0 l/m 7,0 km/h (2 Bft) O-NO 61 1 min 0,000 mm 2,1 UV-I 421 W/m 6,7 C 11,2 C 9,7 km/h (2 Bft) 92,31 %
23.04.2016 10:59 11,7 C 72 % 1005,7 hPa 0,0 l/m 3,9 km/h (1 Bft) O-NO 61 1 min 0,000 mm 2,1 UV-I 428 W/m 6,8 C 11,7 C 6,4 km/h (2 Bft) 100,00 %
23.04.2016 11:00 11,7 C 71 % 1005,7 hPa 0,0 l/m 5,1 km/h (1 Bft) NO 51 1 min 0,152 mm 2,1 UV-I 434 W/m 6,6 C 11,7 C 6,4 km/h (2 Bft) 100,00 %
23.04.2016 11:01 11,8 C 71 % 1005,7 hPa 0,0 l/m 4,0 km/h (1 Bft) NO 49 1 min 0,000 mm 2,1 UV-I 433 W/m 6,7 C 11,8 C 6,4 km/h (2 Bft) 92,31 %
23.04.2016 11:02 11,9 C 72 % 1005,7 hPa 0,0 l/m 5,9 km/h (2 Bft) NO 38 1 min 0,000 mm 2,1 UV-I 431 W/m 7,0 C 11,9 C 8,0 km/h (2 Bft) 95,83 %
23.04.2016 11:03 12,0 C 70 % 1005,7 hPa 0,0 l/m 5,3 km/h (1 Bft) NO 44 1 min 0,000 mm 2,1 UV-I 429 W/m 6,7 C 12,0 C 8,0 km/h (2 Bft) 100,00 %
23.04.2016 11:04 12,1 C 70 % 1005,7 hPa 0,0 l/m 7,5 km/h (2 Bft) NO 48 1 min 0,000 mm 2,2 UV-I 440 W/m 6,8 C 11,4 C 9,7 km/h (2 Bft) 95,83 %
23.04.2016 11:05 12,1 C 68 % 1005,7 hPa 0,0 l/m 8,7 km/h (2 Bft) O-NO 70 1 min 0,000 mm 2,2 UV-I 459 W/m 6,4 C 10,6 C 11,3 km/h (2 Bft) 100,00 %
23.04.2016 11:06 12,1 C 67 % 1005,6 hPa 0,0 l/m 6,9 km/h (2 Bft) O-NO 61 1 min 0,000 mm 2,3 UV-I 463 W/m 6,2 C 11,8 C 9,7 km/h (2 Bft) 96,30 %
23.04.2016 11:07 12,0 C 67 % 1005,6 hPa 0,0 l/m 5,3 km/h (1 Bft) O 86 1 min 0,000 mm 2,3 UV-I 477 W/m 6,1 C 12,0 C 8,0 km/h (2 Bft) 96,15 %
23.04.2016 11:08 12,0 C 68 % 1005,6 hPa 0,0 l/m 7,0 km/h (2 Bft) O-NO 64 1 min 0,000 mm 2,3 UV-I 479 W/m 6,3 C 11,6 C 9,7 km/h (2 Bft) 100,00 %
23.04.2016 11:09 12,0 C 68 % 1005,6 hPa 0,0 l/m 3,7 km/h (1 Bft) O-NO 69 1 min 0,000 mm 2,3 UV-I 479 W/m 6,3 C 12,0 C 6,4 km/h (2 Bft) 96,15 %
23.04.2016 11:10 12,0 C 68 % 1005,6 hPa 0,0 l/m 3,8 km/h (1 Bft) O-NO 61 1 min 0,000 mm 2,3 UV-I 468 W/m 6,3 C 12,0 C 4,8 km/h (1 Bft) 95,83 %
23.04.2016 11:11 12,1 C 73 % 1005,6 hPa 0,0 l/m 3,6 km/h (1 Bft) N-NO 24 1 min 0,000 mm 2,3 UV-I 468 W/m 7,4 C 12,1 C 6,4 km/h (2 Bft) 96,15 %
23.04.2016 11:12 12,2 C 70 % 1005,6 hPa 0,0 l/m 5,9 km/h (2 Bft) NO 53 1 min 0,000 mm 2,3 UV-I 470 W/m 6,9 C 12,2 C 6,4 km/h (2 Bft) 93,33 %
23.04.2016 11:13 12,2 C 69 % 1005,6 hPa 0,0 l/m 6,3 km/h (2 Bft) O-NO 58 1 min 0,000 mm 2,3 UV-I 478 W/m 6,7 C 12,2 C 8,0 km/h (2 Bft) 96,55 %
23.04.2016 11:14 12,3 C 68 % 1005,6 hPa 0,0 l/m 7,8 km/h (2 Bft) NO 34 1 min 0,000 mm 2,3 UV-I 480 W/m 6,6 C 11,4 C 9,7 km/h (2 Bft) 100,00 %
23.04.2016 11:15 12,3 C 68 % 1005,5 hPa 0,0 l/m 7,7 km/h (2 Bft) NO 46 1 min 0,000 mm 2,3 UV-I 484 W/m 6,6 C 11,5 C 11,3 km/h (2 Bft) 92,86 %
23.04.2016 11:16 12,4 C 69 % 1005,5 hPa 0,0 l/m 9,1 km/h (2 Bft) NO 40 1 min 0,000 mm 2,4 UV-I 485 W/m 6,9 C 10,7 C 14,5 km/h (3 Bft) 91,67 %
23.04.2016 11:17 12,4 C 68 % 1005,5 hPa 0,0 l/m 8,1 km/h (2 Bft) NO 55 1 min 0,000 mm 2,4 UV-I 482 W/m 6,7 C 11,3 C 11,3 km/h (2 Bft) 95,83 %
23.04.2016 11:18 12,4 C 65 % 1005,5 hPa 0,0 l/m 6,2 km/h (2 Bft) N-NO 32 1 min 0,000 mm 2,4 UV-I 478 W/m 6,0 C 12,4 C 12,9 km/h (3 Bft) 96,15 %
23.04.2016 11:19 12,3 C 66 % 1005,5 hPa 0,0 l/m 9,1 km/h (2 Bft) N-NO 28 1 min 0,000 mm 2,3 UV-I 469 W/m 6,1 C 10,6 C 12,9 km/h (3 Bft) 100,00 %
23.04.2016 11:20 12,4 C 68 % 1005,5 hPa 0,0 l/m 7,3 km/h (2 Bft) O 85 1 min 0,000 mm 2,3 UV-I 467 W/m 6,7 C 11,8 C 12,9 km/h (3 Bft) 93,33 %
23.04.2016 11:21 12,4 C 64 % 1005,5 hPa 0,0 l/m 7,3 km/h (2 Bft) O-NO 73 1 min 0,000 mm 2,3 UV-I 466 W/m 5,8 C 11,8 C 11,3 km/h (2 Bft) 100,00 %
23.04.2016 11:22 12,3 C 65 % 1005,5 hPa 0,0 l/m 6,4 km/h (2 Bft) NO 56 1 min 0,000 mm 2,4 UV-I 463 W/m 5,9 C 12,3 C 14,5 km/h (3 Bft) 95,65 %
23.04.2016 11:23 12,3 C 64 % 1005,5 hPa 0,0 l/m 8,8 km/h (2 Bft) O-NO 67 1 min 0,000 mm 2,4 UV-I 468 W/m 5,7 C 10,8 C 12,9 km/h (3 Bft) 100,00 %
23.04.2016 11:24 12,3 C 64 % 1005,5 hPa 0,0 l/m 5,8 km/h (2 Bft) O-NO 61 1 min 0,000 mm 2,4 UV-I 469 W/m 5,7 C 12,3 C 9,7 km/h (2 Bft) 95,65 %
23.04.2016 11:25 12,3 C 63 % 1005,5 hPa 0,0 l/m 5,0 km/h (1 Bft) O-NO 63 1 min 0,000 mm 2,4 UV-I 469 W/m 5,5 C 12,3 C 8,0 km/h (2 Bft) 100,00 %
23.04.2016 11:26 12,3 C 65 % 1005,5 hPa 0,0 l/m 5,8 km/h (2 Bft) O 100 1 min 0,000 mm 2,4 UV-I 467 W/m 5,9 C 12,3 C 11,3 km/h (2 Bft) 96,15 %
23.04.2016 11:27 12,3 C 65 % 1005,5 hPa 0,0 l/m 7,6 km/h (2 Bft) O-NO 67 1 min 0,000 mm 2,4 UV-I 465 W/m 5,9 C 11,5 C 9,7 km/h (2 Bft) 100,00 %
23.04.2016 11:28 12,3 C 65 % 1005,4 hPa 0,0 l/m 8,0 km/h (2 Bft) O-NO 69 1 min 0,000 mm 2,4 UV-I 460 W/m 5,9 C 11,3 C 12,9 km/h (3 Bft) 100,00 %
23.04.2016 11:29 12,3 C 64 % 1005,5 hPa 0,0 l/m 6,8 km/h (2 Bft) O 86 1 min 0,000 mm 2,3 UV-I 455 W/m 5,7 C 12,0 C 8,0 km/h (2 Bft) 96,67 %
23.04.2016 11:30 12,3 C 65 % 1005,5 hPa 0,0 l/m 3,2 km/h (1 Bft) O-NO 65 1 min 0,000 mm 2,3 UV-I 455 W/m 5,9 C 12,3 C 6,4 km/h (2 Bft) 100,00 %
23.04.2016 11:31 12,4 C 64 % 1005,5 hPa 0,0 l/m 7,1 km/h (2 Bft) O-NO 67 1 min 0,000 mm 2,4 UV-I 457 W/m 5,8 C 11,9 C 12,9 km/h (3 Bft) 100,00 %
23.04.2016 11:32 12,4 C 62 % 1005,4 hPa 0,0 l/m 9,1 km/h (2 Bft) O-NO 74 1 min 0,000 mm 2,4 UV-I 459 W/m 5,3 C 10,7 C 14,5 km/h (3 Bft) 100,00 %
23.04.2016 11:33 12,4 C 65 % 1005,4 hPa 0,0 l/m 9,0 km/h (2 Bft) O-NO 76 1 min 0,000 mm 2,4 UV-I 456 W/m 6,0 C 10,8 C 14,5 km/h (3 Bft) 96,30 %
23.04.2016 11:34 12,4 C 64 % 1005,4 hPa 0,0 l/m 6,1 km/h (2 Bft) O 88 1 min 0,000 mm 2,4 UV-I 454 W/m 5,8 C 12,4 C 11,3 km/h (2 Bft) 95,65 %
23.04.2016 11:35 12,5 C 64 % 1005,4 hPa 0,0 l/m 7,9 km/h (2 Bft) O-NO 78 1 min 0,000 mm 2,4 UV-I 455 W/m 5,9 C 11,5 C 9,7 km/h (2 Bft) 100,00 %
23.04.2016 11:36 12,5 C 64 % 1005,4 hPa 0,0 l/m 6,5 km/h (2 Bft) O-NO 69 1 min 0,000 mm 2,4 UV-I 460 W/m 5,9 C 12,5 C 8,0 km/h (2 Bft) 100,00 %
23.04.2016 11:37 12,5 C 65 % 1005,4 hPa 0,0 l/m 3,8 km/h (1 Bft) O-NO 69 1 min 0,000 mm 2,4 UV-I 461 W/m 6,1 C 12,5 C 6,4 km/h (2 Bft) 100,00 %
23.04.2016 11:38 12,4 C 65 % 1005,3 hPa 0,0 l/m 2,0 km/h (1 Bft) O-NO 65 1 min 0,000 mm 2,4 UV-I 463 W/m 6,0 C 12,4 C 4,8 km/h (1 Bft) 94,12 %
23.04.2016 11:39 12,5 C 66 % 1005,3 hPa 0,0 l/m 1,6 km/h (1 Bft) O-NO 65 1 min 0,000 mm 2,4 UV-I 464 W/m 6,3 C 12,5 C 3,2 km/h (1 Bft) 100,00 %
23.04.2016 11:40 12,6 C 66 % 1005,3 hPa 0,0 l/m 2,7 km/h (1 Bft) N 5 1 min 0,000 mm 2,5 UV-I 466 W/m 6,4 C 12,6 C 6,4 km/h (2 Bft) 100,00 %
23.04.2016 11:41 12,8 C 70 % 1005,3 hPa 0,0 l/m 5,5 km/h (1 Bft) N 355 1 min 0,000 mm 2,5 UV-I 470 W/m 7,5 C 12,8 C 8,0 km/h (2 Bft) 94,12 %
23.04.2016 11:42 12,8 C 70 % 1005,3 hPa 0,0 l/m 4,1 km/h (1 Bft) N 11 1 min 0,000 mm 2,5 UV-I 474 W/m 7,5 C 12,8 C 6,4 km/h (2 Bft) 100,00 %
23.04.2016 11:43 12,8 C 70 % 1005,3 hPa 0,0 l/m 9,6 km/h (2 Bft) N-NO 12 1 min 0,000 mm 2,5 UV-I 477 W/m 7,5 C 10,9 C 14,5 km/h (3 Bft) 100,00 %
23.04.2016 11:44 12,8 C 66 % 1005,2 hPa 0,0 l/m 4,5 km/h (1 Bft) N-NW 341 1 min 0,000 mm 2,6 UV-I 489 W/m 6,6 C 12,8 C 6,4 km/h (2 Bft) 96,30 %
23.04.2016 11:45 12,8 C 66 % 1005,3 hPa 0,0 l/m 7,0 km/h (2 Bft) NO 53 1 min 0,000 mm 2,6 UV-I 496 W/m 6,6 C 12,4 C 11,3 km/h (2 Bft) 100,00 %
23.04.2016 11:46 12,8 C 66 % 1005,2 hPa 0,0 l/m 8,8 km/h (2 Bft) NO 42 1 min 0,000 mm 2,6 UV-I 501 W/m 6,6 C 11,3 C 12,9 km/h (3 Bft) 100,00 %
23.04.2016 11:47 12,8 C 66 % 1005,2 hPa 0,0 l/m 9,7 km/h (2 Bft) O-NO 61 1 min 0,000 mm 2,6 UV-I 500 W/m 6,6 C 10,8 C 12,9 km/h (3 Bft) 95,65 %
23.04.2016 11:48 12,9 C 63 % 1005,2 hPa 0,0 l/m 9,2 km/h (2 Bft) O-NO 71 1 min 0,000 mm 2,7 UV-I 501 W/m 6,0 C 11,2 C 14,5 km/h (3 Bft) 100,00 %
23.04.2016 11:49 12,9 C 59 % 1005,2 hPa 0,0 l/m 7,9 km/h (2 Bft) NO 37 1 min 0,000 mm 2,6 UV-I 487 W/m 5,1 C 12,0 C 12,9 km/h (3 Bft) 100,00 %
23.04.2016 11:50 12,8 C 61 % 1005,2 hPa 0,0 l/m 5,3 km/h (1 Bft) NO 36 1 min 0,000 mm 2,6 UV-I 477 W/m 5,5 C 12,8 C 9,7 km/h (2 Bft) 100,00 %
23.04.2016 11:51 12,8 C 62 % 1005,2 hPa 0,0 l/m 7,5 km/h (2 Bft) O-NO 75 1 min 0,000 mm 2,6 UV-I 475 W/m 5,7 C 12,1 C 11,3 km/h (2 Bft) 100,00 %
23.04.2016 11:52 12,9 C 60 % 1005,2 hPa 0,0 l/m 5,8 km/h (2 Bft) NO 37 1 min 0,000 mm 2,6 UV-I 479 W/m 5,3 C 12,9 C 8,0 km/h (2 Bft) 100,00 %
23.04.2016 11:53 12,9 C 63 % 1005,2 hPa 0,0 l/m 9,7 km/h (2 Bft) O-NO 62 1 min 0,000 mm 2,6 UV-I 494 W/m 6,0 C 11,0 C 14,5 km/h (3 Bft) 95,65 %
23.04.2016 11:54 13,0 C 61 % 1005,2 hPa 0,0 l/m 7,4 km/h (2 Bft) NO 42 1 min 0,000 mm 2,6 UV-I 491 W/m 5,7 C 12,4 C 9,7 km/h (2 Bft) 100,00 %
23.04.2016 11:55 13,1 C 61 % 1005,2 hPa 0,0 l/m 5,9 km/h (2 Bft) N-NO 33 1 min 0,000 mm 2,6 UV-I 490 W/m 5,8 C 13,1 C 8,0 km/h (2 Bft) 100,00 %
23.04.2016 11:56 13,1 C 62 % 1005,2 hPa 0,0 l/m 8,5 km/h (2 Bft) N-NO 28 1 min 0,000 mm 2,5 UV-I 485 W/m 6,0 C 11,8 C 9,7 km/h (2 Bft) 100,00 %
23.04.2016 11:57 13,2 C 61 % 1005,2 hPa 0,0 l/m 4,7 km/h (1 Bft) NO 40 1 min 0,000 mm 2,5 UV-I 479 W/m 5,8 C 13,2 C 9,7 km/h (2 Bft) 100,00 %
23.04.2016 11:58 13,1 C 61 % 1005,2 hPa 0,0 l/m 6,0 km/h (2 Bft) NO 46 1 min 0,000 mm 2,5 UV-I 476 W/m 5,8 C 13,1 C 9,7 km/h (2 Bft) 100,00 %
23.04.2016 11:59 13,1 C 63 % 1005,2 hPa 0,0 l/m 8,9 km/h (2 Bft) NO 51 1 min 0,000 mm 2,5 UV-I 472 W/m 6,2 C 11,6 C 12,9 km/h (3 Bft) 100,00 %
23.04.2016 12:00 13,1 C 61 % 1005,1 hPa 0,0 l/m 9,3 km/h (2 Bft) O-NO 68 1 min 0,254 mm 2,5 UV-I 468 W/m 5,8 C 11,4 C 14,5 km/h (3 Bft) 100,00 %
23.04.2016 12:01 13,1 C 59 % 1005,1 hPa 0,0 l/m 5,2 km/h (1 Bft) O-NO 76 1 min 0,000 mm 2,5 UV-I 466 W/m 5,3 C 13,1 C 6,4 km/h (2 Bft) 100,00 %
23.04.2016 12:02 13,0 C 59 % 1005,1 hPa 0,0 l/m 3,3 km/h (1 Bft) O 82 1 min 0,000 mm 2,5 UV-I 465 W/m 5,2 C 13,0 C 4,8 km/h (1 Bft) 95,65 %
23.04.2016 12:03 13,0 C 60 % 1005,2 hPa 0,0 l/m 8,5 km/h (2 Bft) O-NO 74 1 min 0,000 mm 2,5 UV-I 464 W/m 5,4 C 11,7 C 11,3 km/h (2 Bft) 100,00 %
23.04.2016 12:04 13,0 C 59 % 1005,1 hPa 0,0 l/m 6,3 km/h (2 Bft) O-NO 76 1 min 0,000 mm 2,5 UV-I 462 W/m 5,2 C 13,0 C 9,7 km/h (2 Bft) 91,30 %
23.04.2016 12:05 13,0 C 61 % 1005,1 hPa 0,0 l/m 5,5 km/h (1 Bft) O-NO 74 1 min 0,000 mm 2,5 UV-I 465 W/m 5,7 C 13,0 C 9,7 km/h (2 Bft) 100,00 %
23.04.2016 12:06 13,1 C 60 % 1005,1 hPa 0,0 l/m 3,2 km/h (1 Bft) O-NO 58 1 min 0,000 mm 2,6 UV-I 470 W/m 5,5 C 13,1 C 4,8 km/h (1 Bft) 95,65 %
23.04.2016 12:07 13,1 C 60 % 1005,1 hPa 0,0 l/m 4,1 km/h (1 Bft) O-NO 57 1 min 0,000 mm 2,6 UV-I 467 W/m 5,5 C 13,1 C 6,4 km/h (2 Bft) 100,00 %
23.04.2016 12:08 13,1 C 58 % 1005,1 hPa 0,0 l/m 6,4 km/h (2 Bft) O-NO 72 1 min 0,000 mm 2,6 UV-I 465 W/m 5,0 C 13,1 C 9,7 km/h (2 Bft) 100,00 %
23.04.2016 12:09 13,1 C 60 % 1005,1 hPa 0,0 l/m 5,4 km/h (1 Bft) O-NO 71 1 min 0,000 mm 2,6 UV-I 468 W/m 5,5 C 13,1 C 8,0 km/h (2 Bft) 100,00 %
23.04.2016 12:10 13,1 C 60 % 1005,1 hPa 0,0 l/m 1,9 km/h (1 Bft) O-SO 118 1 min 0,000 mm 2,6 UV-I 476 W/m 5,5 C 13,1 C 4,8 km/h (1 Bft) 100,00 %
23.04.2016 12:11 13,1 C 59 % 1005,0 hPa 0,0 l/m 3,2 km/h (1 Bft) O-NO 71 1 min 0,000 mm 2,7 UV-I 486 W/m 5,3 C 13,1 C 4,8 km/h (1 Bft) 100,00 %
23.04.2016 12:12 13,2 C 60 % 1005,0 hPa 0,0 l/m 4,6 km/h (1 Bft) N-NO 27 1 min 0,000 mm 2,7 UV-I 486 W/m 5,6 C 13,2 C 6,4 km/h (2 Bft) 100,00 %
23.04.2016 12:13 13,2 C 61 % 1005,0 hPa 0,0 l/m 7,0 km/h (2 Bft) N-NO 30 1 min 0,000 mm 2,7 UV-I 477 W/m 5,8 C 12,8 C 12,9 km/h (3 Bft) 100,00 %
23.04.2016 12:14 13,3 C 59 % 1005,0 hPa 0,0 l/m 10,1 km/h (2 Bft) N-NO 32 1 min 0,000 mm 2,6 UV-I 472 W/m 5,5 C 11,2 C 14,5 km/h (3 Bft) 100,00 %
23.04.2016 12:15 13,3 C 60 % 1004,9 hPa 0,0 l/m 6,0 km/h (2 Bft) NO 35 1 min 0,000 mm 2,6 UV-I 452 W/m 5,7 C 13,3 C 8,0 km/h (2 Bft) 100,00 %
23.04.2016 12:16 13,4 C 62 % 1005,0 hPa 0,0 l/m 5,2 km/h (1 Bft) NO 51 0 min 0,000 mm 2,5 UV-I 430 W/m 6,3 C 13,4 C 8,0 km/h (2 Bft) 100,00 %
23.04.2016 12:17 13,4 C 61 % 1005,0 hPa 0,0 l/m 6,0 km/h (2 Bft) N-NO 26 0 min 0,000 mm 2,5 UV-I 424 W/m 6,0 C 13,4 C 8,0 km/h (2 Bft) 100,00 %
23.04.2016 12:18 13,4 C 64 % 1005,0 hPa 0,0 l/m 1,2 km/h (1 Bft) N-NO 26 0 min 0,000 mm 2,5 UV-I 423 W/m 6,7 C 13,4 C 3,2 km/h (1 Bft) 100,00 %
23.04.2016 12:19 13,4 C 59 % 1005,0 hPa 0,0 l/m 2,5 km/h (1 Bft) NO 42 0 min 0,000 mm 2,5 UV-I 417 W/m 5,6 C 13,4 C 4,8 km/h (1 Bft) 100,00 %
23.04.2016 12:20 13,3 C 58 % 1005,0 hPa 0,0 l/m 2,2 km/h (1 Bft) O 79 0 min 0,000 mm 2,5 UV-I 410 W/m 5,2 C 13,3 C 4,8 km/h (1 Bft) 100,00 %
23.04.2016 12:21 13,3 C 61 % 1004,9 hPa 0,0 l/m 6,0 km/h (2 Bft) NO 45 0 min 0,000 mm 2,5 UV-I 408 W/m 5,9 C 13,3 C 12,9 km/h (3 Bft) 96,15 %
23.04.2016 12:22 13,3 C 59 % 1005,0 hPa 0,0 l/m 10,1 km/h (2 Bft) NO 54 0 min 0,000 mm 2,5 UV-I 415 W/m 5,5 C 11,2 C 14,5 km/h (3 Bft) 100,00 %
23.04.2016 12:23 13,4 C 60 % 1005,0 hPa 0,0 l/m 9,0 km/h (2 Bft) NO 52 0 min 0,000 mm 2,5 UV-I 414 W/m 5,8 C 11,9 C 12,9 km/h (3 Bft) 100,00 %
23.04.2016 12:24 13,4 C 59 % 1005,0 hPa 0,0 l/m 9,7 km/h (2 Bft) NO 55 0 min 0,000 mm 2,5 UV-I 421 W/m 5,6 C 11,5 C 14,5 km/h (3 Bft) 100,00 %
23.04.2016 12:25 13,4 C 60 % 1005,0 hPa 0,0 l/m 6,3 km/h (2 Bft) NO 56 0 min 0,000 mm 2,6 UV-I 431 W/m 5,8 C 13,4 C 8,0 km/h (2 Bft) 100,00 %
23.04.2016 12:26 13,4 C 61 % 1004,9 hPa 0,0 l/m 5,0 km/h (1 Bft) NO 36 1 min 0,000 mm 2,6 UV-I 448 W/m 6,0 C 13,4 C 6,4 km/h (2 Bft) 100,00 %
23.04.2016 12:27 13,5 C 61 % 1005,0 hPa 0,0 l/m 5,1 km/h (1 Bft) O-NO 73 1 min 0,000 mm 2,7 UV-I 463 W/m 6,1 C 13,5 C 8,0 km/h (2 Bft) 100,00 %
23.04.2016 12:28 13,5 C 58 % 1004,9 hPa 0,0 l/m 4,7 km/h (1 Bft) O-NO 58 1 min 0,000 mm 2,7 UV-I 479 W/m 5,4 C 13,5 C 6,4 km/h (2 Bft) 100,00 %
23.04.2016 12:29 13,5 C 61 % 1004,9 hPa 0,0 l/m 5,6 km/h (1 Bft) O-NO 69 1 min 0,000 mm 2,8 UV-I 501 W/m 6,1 C 13,5 C 6,4 km/h (2 Bft) 100,00 %
23.04.2016 12:30 13,5 C 58 % 1004,9 hPa 0,0 l/m 6,8 km/h (2 Bft) NO 40 1 min 0,000 mm 2,8 UV-I 516 W/m 5,4 C 13,3 C 8,0 km/h (2 Bft) 100,00 %
23.04.2016 12:31 13,5 C 61 % 1004,9 hPa 0,0 l/m 6,3 km/h (2 Bft) O-NO 65 1 min 0,000 mm 2,8 UV-I 505 W/m 6,1 C 13,5 C 8,0 km/h (2 Bft) 100,00 %
23.04.2016 12:32 13,6 C 60 % 1004,9 hPa 0,0 l/m 7,0 km/h (2 Bft) NO 53 1 min 0,000 mm 2,8 UV-I 472 W/m 6,0 C 13,2 C 8,0 km/h (2 Bft) 100,00 %
23.04.2016 12:33 13,6 C 62 % 1004,9 hPa 0,0 l/m 6,8 km/h (2 Bft) NO 46 1 min 0,000 mm 2,8 UV-I 465 W/m 6,5 C 13,4 C 9,7 km/h (2 Bft) 100,00 %
23.04.2016 12:34 13,6 C 59 % 1004,8 hPa 0,0 l/m 5,7 km/h (1 Bft) N-NO 27 1 min 0,000 mm 3,0 UV-I 541 W/m 5,7 C 13,6 C 8,0 km/h (2 Bft) 100,00 %
23.04.2016 12:35 13,6 C 59 % 1004,8 hPa 0,0 l/m 4,1 km/h (1 Bft) O-NO 61 1 min 0,000 mm 3,0 UV-I 579 W/m 5,7 C 13,6 C 6,4 km/h (2 Bft) 100,00 %
23.04.2016 12:36 13,6 C 59 % 1004,8 hPa 0,0 l/m 5,1 km/h (1 Bft) NO 35 1 min 0,000 mm 3,0 UV-I 561 W/m 5,7 C 13,6 C 9,7 km/h (2 Bft) 100,00 %
23.04.2016 12:37 13,6 C 64 % 1004,8 hPa 0,0 l/m 4,5 km/h (1 Bft) NO 55 1 min 0,000 mm 3,0 UV-I 532 W/m 6,9 C 13,6 C 8,0 km/h (2 Bft) 100,00 %
23.04.2016 12:38 13,7 C 59 % 1004,8 hPa 0,0 l/m 7,0 km/h (2 Bft) O-NO 60 1 min 0,000 mm 2,9 UV-I 498 W/m 5,8 C 13,3 C 9,7 km/h (2 Bft) 100,00 %
23.04.2016 12:39 13,7 C 58 % 1004,8 hPa 0,0 l/m 6,4 km/h (2 Bft) NO 49 1 min 0,000 mm 2,8 UV-I 485 W/m 5,6 C 13,7 C 8,0 km/h (2 Bft) 100,00 %
23.04.2016 12:40 13,7 C 58 % 1004,8 hPa 0,0 l/m 6,3 km/h (2 Bft) O-NO 63 1 min 0,000 mm 2,8 UV-I 500 W/m 5,6 C 13,7 C 8,0 km/h (2 Bft) 100,00 %
23.04.2016 12:41 13,7 C 58 % 1004,8 hPa 0,0 l/m 6,7 km/h (2 Bft) O-NO 60 1 min 0,000 mm 2,8 UV-I 493 W/m 5,6 C 13,5 C 8,0 km/h (2 Bft) 100,00 %
23.04.2016 12:42 13,7 C 57 % 1004,8 hPa 0,0 l/m 2,8 km/h (1 Bft) SO 136 1 min 0,000 mm 2,8 UV-I 492 W/m 5,3 C 13,7 C 6,4 km/h (2 Bft) 100,00 %
23.04.2016 12:43 13,6 C 59 % 1004,8 hPa 0,0 l/m 7,2 km/h (2 Bft) O 92 1 min 0,000 mm 2,8 UV-I 494 W/m 5,7 C 13,1 C 9,7 km/h (2 Bft) 100,00 %
23.04.2016 12:44 13,6 C 59 % 1004,8 hPa 0,0 l/m 4,9 km/h (1 Bft) NO 50 1 min 0,000 mm 2,8 UV-I 496 W/m 5,7 C 13,6 C 9,7 km/h (2 Bft) 100,00 %
23.04.2016 12:45 13,6 C 60 % 1004,7 hPa 0,0 l/m 7,4 km/h (2 Bft) NO 34 1 min 0,000 mm 2,8 UV-I 503 W/m 6,0 C 13,0 C 9,7 km/h (2 Bft) 95,83 %
23.04.2016 12:46 13,6 C 60 % 1004,8 hPa 0,0 l/m 4,7 km/h (1 Bft) N 11 1 min 0,000 mm 2,8 UV-I 504 W/m 6,0 C 13,6 C 8,0 km/h (2 Bft) 91,30 %
23.04.2016 12:47 13,7 C 60 % 1004,7 hPa 0,0 l/m 3,6 km/h (1 Bft) NO 34 1 min 0,000 mm 2,8 UV-I 493 W/m 6,1 C 13,7 C 6,4 km/h (2 Bft) 100,00 %
23.04.2016 12:48 13,7 C 60 % 1004,7 hPa 0,0 l/m 8,2 km/h (2 Bft) O-NO 57 1 min 0,000 mm 2,7 UV-I 477 W/m 6,1 C 12,6 C 12,9 km/h (3 Bft) 92,86 %
23.04.2016 12:49 13,7 C 58 % 1004,7 hPa 0,0 l/m 8,3 km/h (2 Bft) O-NO 59 1 min 0,000 mm 2,6 UV-I 463 W/m 5,6 C 12,6 C 9,7 km/h (2 Bft) 100,00 %
23.04.2016 12:50 13,7 C 60 % 1004,7 hPa 0,0 l/m 8,1 km/h (2 Bft) O-NO 72 1 min 0,000 mm 2,6 UV-I 458 W/m 6,1 C 12,7 C 11,3 km/h (2 Bft) 96,55 %
23.04.2016 12:51 13,7 C 57 % 1004,7 hPa 0,0 l/m 6,2 km/h (2 Bft) O-NO 69 1 min 0,000 mm 2,6 UV-I 461 W/m 5,3 C 13,7 C 8,0 km/h (2 Bft) 95,83 %
23.04.2016 12:52 13,6 C 57 % 1004,7 hPa 0,0 l/m 5,4 km/h (1 Bft) O-NO 66 1 min 0,000 mm 2,6 UV-I 461 W/m 5,2 C 13,6 C 8,0 km/h (2 Bft) 100,00 %
23.04.2016 12:53 13,6 C 58 % 1004,7 hPa 0,0 l/m 2,6 km/h (1 Bft) O-NO 66 1 min 0,000 mm 2,6 UV-I 460 W/m 5,5 C 13,6 C 4,8 km/h (1 Bft) 92,59 %
23.04.2016 12:54 13,5 C 57 % 1004,6 hPa 0,0 l/m 2,1 km/h (1 Bft) NO 49 1 min 0,000 mm 2,6 UV-I 456 W/m 5,2 C 13,5 C 4,8 km/h (1 Bft) 100,00 %
23.04.2016 12:55 13,4 C 61 % 1004,7 hPa 0,0 l/m 9,3 km/h (2 Bft) NO 49 1 min 0,000 mm 2,6 UV-I 448 W/m 6,0 C 11,7 C 14,5 km/h (3 Bft) 95,83 %
23.04.2016 12:56 13,5 C 61 % 1004,6 hPa 0,0 l/m 5,7 km/h (1 Bft) N-NO 21 1 min 0,000 mm 2,5 UV-I 450 W/m 6,1 C 13,5 C 8,0 km/h (2 Bft) 100,00 %
23.04.2016 12:57 13,6 C 63 % 1004,6 hPa 0,0 l/m 4,6 km/h (1 Bft) N 11 0 min 0,000 mm 2,5 UV-I 434 W/m 6,7 C 13,6 C 9,7 km/h (2 Bft) 95,83 %
23.04.2016 12:58 13,5 C 62 % 1004,7 hPa 0,0 l/m 6,0 km/h (2 Bft) NO 34 0 min 0,000 mm 2,4 UV-I 420 W/m 6,4 C 13,5 C 9,7 km/h (2 Bft) 100,00 %
23.04.2016 12:59 13,6 C 62 % 1004,7 hPa 0,0 l/m 7,3 km/h (2 Bft) NO 54 0 min 0,000 mm 2,4 UV-I 407 W/m 6,5 C 13,0 C 9,7 km/h (2 Bft) 96,15 %
23.04.2016 13:00 13,6 C 57 % 1004,6 hPa 0,0 l/m 3,4 km/h (1 Bft) NO 50 0 min 0,000 mm 2,4 UV-I 400 W/m 5,2 C 13,6 C 8,0 km/h (2 Bft) 100,00 %
23.04.2016 13:02 13,5 C 60 % 1004,6 hPa 0,0 l/m 0,8 km/h (0 Bft) NO 50 0 min 0,254 mm 2,4 UV-I 396 W/m 5,9 C 13,5 C 3,2 km/h (1 Bft) 94,00 %
23.04.2016 13:03 13,6 C 62 % 1004,6 hPa 0,0 l/m 1,1 km/h (1 Bft) N 349 0 min 0,000 mm 2,4 UV-I 396 W/m 6,5 C 13,6 C 3,2 km/h (1 Bft) 100,00 %
23.04.2016 13:04 13,6 C 65 % 1004,6 hPa 0,0 l/m 2,0 km/h (1 Bft) N 11 0 min 0,000 mm 2,4 UV-I 393 W/m 7,1 C 13,6 C 4,8 km/h (1 Bft) 91,67 %
23.04.2016 13:05 13,6 C 65 % 1004,6 hPa 0,0 l/m 3,2 km/h (1 Bft) N 5 0 min 0,000 mm 2,4 UV-I 389 W/m 7,1 C 13,6 C 6,4 km/h (2 Bft) 100,00 %
23.04.2016 13:06 13,7 C 61 % 1004,5 hPa 0,0 l/m 5,6 km/h (1 Bft) O-NO 58 0 min 0,000 mm 2,4 UV-I 386 W/m 6,3 C 13,7 C 11,3 km/h (2 Bft) 92,59 %
23.04.2016 13:07 13,7 C 63 % 1004,5 hPa 0,0 l/m 1,4 km/h (1 Bft) N-NO 15 0 min 0,000 mm 2,4 UV-I 384 W/m 6,8 C 13,7 C 3,2 km/h (1 Bft) 96,15 %
23.04.2016 13:08 13,7 C 62 % 1004,5 hPa 0,0 l/m 4,1 km/h (1 Bft) N-NO 30 0 min 0,000 mm 2,4 UV-I 383 W/m 6,6 C 13,7 C 9,7 km/h (2 Bft) 96,30 %
23.04.2016 13:09 13,7 C 62 % 1004,5 hPa 0,0 l/m 5,6 km/h (1 Bft) NO 46 0 min 0,000 mm 2,4 UV-I 384 W/m 6,6 C 13,7 C 8,0 km/h (2 Bft) 95,65 %
23.04.2016 13:10 13,6 C 59 % 1004,5 hPa 0,0 l/m 6,2 km/h (2 Bft) NO 43 0 min 0,000 mm 2,4 UV-I 388 W/m 5,7 C 13,6 C 8,0 km/h (2 Bft) 100,00 %
23.04.2016 13:11 13,6 C 61 % 1004,5 hPa 0,0 l/m 5,7 km/h (1 Bft) NO 39 0 min 0,000 mm 2,4 UV-I 395 W/m 6,2 C 13,6 C 8,0 km/h (2 Bft) 98,58 %
23.04.2016 13:12 13,6 C 56 % 1004,5 hPa 0,0 l/m 2,9 km/h (1 Bft) N-NO 22 0 min 0,000 mm 2,5 UV-I 404 W/m 5,0 C 13,6 C 4,8 km/h (1 Bft) 97,56 %
23.04.2016 13:13 13,5 C 60 % 1004,5 hPa 0,0 l/m 4,8 km/h (1 Bft) O-NO 58 0 min 0,000 mm 2,5 UV-I 408 W/m 5,9 C 13,5 C 6,4 km/h (2 Bft) 95,65 %
23.04.2016 13:14 13,6 C 60 % 1004,5 hPa 0,0 l/m 4,1 km/h (1 Bft) NO 46 0 min 0,000 mm 2,5 UV-I 410 W/m 6,0 C 13,6 C 6,4 km/h (2 Bft) 100,00 %
23.04.2016 13:15 13,7 C 63 % 1004,4 hPa 0,0 l/m 6,1 km/h (2 Bft) O 86 0 min 0,000 mm 2,5 UV-I 413 W/m 6,8 C 13,7 C 8,0 km/h (2 Bft) 91,30 %
23.04.2016 13:16 13,7 C 59 % 1004,4 hPa 0,0 l/m 5,6 km/h (1 Bft) O 98 0 min 0,000 mm 2,5 UV-I 407 W/m 5,8 C 13,7 C 9,7 km/h (2 Bft) 100,00 %
23.04.2016 13:17 13,8 C 56 % 1004,4 hPa 0,0 l/m 3,8 km/h (1 Bft) O 94 0 min 0,000 mm 2,5 UV-I 409 W/m 5,2 C 13,8 C 4,8 km/h (1 Bft) 95,83 %
23.04.2016 13:18 13,8 C 56 % 1004,4 hPa 0,0 l/m 2,9 km/h (1 Bft) O 94 0 min 0,000 mm 2,5 UV-I 409 W/m 5,2 C 13,8 C 4,8 km/h (1 Bft) 96,15 %
23.04.2016 13:19 13,7 C 57 % 1004,4 hPa 0,0 l/m 4,5 km/h (1 Bft) O-NO 59 0 min 0,000 mm 2,5 UV-I 410 W/m 5,3 C 13,7 C 6,4 km/h (2 Bft) 100,00 %
23.04.2016 13:20 13,8 C 56 % 1004,4 hPa 0,0 l/m 4,9 km/h (1 Bft) O-NO 72 0 min 0,000 mm 2,5 UV-I 426 W/m 5,2 C 13,8 C 6,4 km/h (2 Bft) 95,83 %
23.04.2016 13:21 13,7 C 54 % 1004,4 hPa 0,0 l/m 5,6 km/h (1 Bft) O-NO 73 0 min 0,000 mm 2,6 UV-I 433 W/m 4,6 C 13,7 C 6,4 km/h (2 Bft) 100,00 %
23.04.2016 13:22 13,8 C 56 % 1004,4 hPa 0,0 l/m 4,4 km/h (1 Bft) O-NO 67 0 min 0,000 mm 2,6 UV-I 425 W/m 5,2 C 13,8 C 6,4 km/h (2 Bft) 95,83 %
23.04.2016 13:23 13,8 C 58 % 1004,4 hPa 0,0 l/m 4,4 km/h (1 Bft) O-NO 66 0 min 0,000 mm 2,5 UV-I 408 W/m 5,7 C 13,8 C 6,4 km/h (2 Bft) 100,00 %
23.04.2016 13:24 13,9 C 57 % 1004,3 hPa 0,0 l/m 3,8 km/h (1 Bft) O 84 0 min 0,000 mm 2,5 UV-I 399 W/m 5,5 C 13,9 C 6,4 km/h (2 Bft) 100,00 %
23.04.2016 13:25 13,9 C 57 % 1004,3 hPa 0,0 l/m 4,8 km/h (1 Bft) O-NO 76 0 min 0,000 mm 2,4 UV-I 387 W/m 5,5 C 13,9 C 6,4 km/h (2 Bft) 100,00 %
23.04.2016 13:26 13,9 C 57 % 1004,3 hPa 0,0 l/m 3,4 km/h (1 Bft) O 82 0 min 0,000 mm 2,4 UV-I 379 W/m 5,5 C 13,9 C 4,8 km/h (1 Bft) 95,65 %
23.04.2016 13:27 13,9 C 57 % 1004,4 hPa 0,0 l/m 5,3 km/h (1 Bft) O 85 0 min 0,000 mm 2,3 UV-I 373 W/m 5,5 C 13,9 C 8,0 km/h (2 Bft) 100,00 %
23.04.2016 13:28 13,9 C 57 % 1004,3 hPa 0,0 l/m 4,0 km/h (1 Bft) O-SO 107 0 min 0,000 mm 2,3 UV-I 369 W/m 5,5 C 13,9 C 6,4 km/h (2 Bft) 96,15 %
23.04.2016 13:29 13,9 C 56 % 1004,3 hPa 0,0 l/m 6,4 km/h (2 Bft) O 96 0 min 0,000 mm 2,3 UV-I 368 W/m 5,3 C 13,9 C 9,7 km/h (2 Bft) 100,00 %
23.04.2016 13:30 13,9 C 55 % 1004,3 hPa 0,0 l/m 3,5 km/h (1 Bft) O 96 0 min 0,000 mm 2,3 UV-I 370 W/m 5,0 C 13,9 C 4,8 km/h (1 Bft) 100,00 %
23.04.2016 13:31 13,9 C 54 % 1004,3 hPa 0,0 l/m 1,7 km/h (1 Bft) O 96 0 min 0,000 mm 2,3 UV-I 373 W/m 4,7 C 13,9 C 3,2 km/h (1 Bft) 100,00 %
23.04.2016 13:32 13,8 C 57 % 1004,3 hPa 0,0 l/m 0,3 km/h (0 Bft) O 96 0 min 0,000 mm 2,2 UV-I 374 W/m 5,4 C 13,8 C 1,6 km/h (1 Bft) 100,00 %
23.04.2016 13:33 13,8 C 55 % 1004,3 hPa 0,0 l/m 0,3 km/h (0 Bft) O 96 0 min 0,000 mm 2,2 UV-I 377 W/m 4,9 C 13,8 C 1,6 km/h (1 Bft) 100,00 %
23.04.2016 13:34 13,8 C 56 % 1004,3 hPa 0,0 l/m 2,3 km/h (1 Bft) O 96 0 min 0,000 mm 2,2 UV-I 374 W/m 5,2 C 13,8 C 3,2 km/h (1 Bft) 100,00 %
23.04.2016 13:35 13,8 C 57 % 1004,3 hPa 0,0 l/m 2,1 km/h (1 Bft) O-NO 75 0 min 0,000 mm 2,2 UV-I 369 W/m 5,4 C 13,8 C 3,2 km/h (1 Bft) 96,15 %
23.04.2016 13:36 13,8 C 57 % 1004,2 hPa 0,0 l/m 2,8 km/h (1 Bft) O-NO 76 0 min 0,000 mm 2,2 UV-I 366 W/m 5,4 C 13,8 C 4,8 km/h (1 Bft) 100,00 %
23.04.2016 13:37 13,9 C 58 % 1004,2 hPa 0,0 l/m 1,0 km/h (0 Bft) O-NO 76 0 min 0,000 mm 2,2 UV-I 361 W/m 5,8 C 13,9 C 1,6 km/h (1 Bft) 100,00 %
23.04.2016 13:38 13,9 C 57 % 1004,2 hPa 0,0 l/m 1,2 km/h (1 Bft) O-NO 76 0 min 0,000 mm 2,1 UV-I 354 W/m 5,5 C 13,9 C 1,6 km/h (1 Bft) 100,00 %
23.04.2016 13:39 14,1 C 61 % 1004,3 hPa 0,0 l/m 1,9 km/h (1 Bft) NO 40 0 min 0,000 mm 2,1 UV-I 346 W/m 6,7 C 14,1 C 6,4 km/h (2 Bft) 100,00 %
23.04.2016 13:40 14,2 C 62 % 1004,2 hPa 0,0 l/m 2,8 km/h (1 Bft) N-NO 32 0 min 0,000 mm 2,1 UV-I 340 W/m 7,0 C 14,2 C 4,8 km/h (1 Bft) 100,00 %
23.04.2016 13:41 14,2 C 64 % 1004,2 hPa 0,0 l/m 4,7 km/h (1 Bft) NO 38 0 min 0,000 mm 2,0 UV-I 333 W/m 7,5 C 14,2 C 9,7 km/h (2 Bft) 96,15 %
23.04.2016 13:42 14,3 C 62 % 1004,2 hPa 0,0 l/m 7,5 km/h (2 Bft) N-NO 22 0 min 0,000 mm 2,0 UV-I 328 W/m 7,1 C 13,7 C 11,3 km/h (2 Bft) 98,57 %
23.04.2016 13:43 14,3 C 60 % 1004,2 hPa 0,0 l/m 8,0 km/h (2 Bft) NO 40 0 min 0,000 mm 1,9 UV-I 323 W/m 6,6 C 13,4 C 9,7 km/h (2 Bft) 100,00 %
23.04.2016 13:44 14,3 C 60 % 1004,2 hPa 0,0 l/m 6,8 km/h (2 Bft) NO 41 0 min 0,000 mm 1,9 UV-I 322 W/m 6,6 C 14,1 C 9,7 km/h (2 Bft) 96,30 %
23.04.2016 13:45 14,2 C 61 % 1004,1 hPa 0,0 l/m 5,0 km/h (1 Bft) N-NO 25 0 min 0,000 mm 1,9 UV-I 320 W/m 6,8 C 14,2 C 8,0 km/h (2 Bft) 100,00 %
23.04.2016 13:46 14,2 C 58 % 1004,1 hPa 0,0 l/m 6,0 km/h (2 Bft) NO 53 0 min 0,000 mm 1,9 UV-I 319 W/m 6,1 C 14,2 C 8,0 km/h (2 Bft) 100,00 %
23.04.2016 13:47 14,2 C 59 % 1004,1 hPa 0,0 l/m 5,9 km/h (2 Bft) NO 55 0 min 0,000 mm 1,9 UV-I 318 W/m 6,3 C 14,2 C 8,0 km/h (2 Bft) 100,00 %
23.04.2016 13:48 14,2 C 55 % 1004,1 hPa 0,0 l/m 6,7 km/h (2 Bft) NO 44 0 min 0,000 mm 1,9 UV-I 318 W/m 5,3 C 14,0 C 8,0 km/h (2 Bft) 100,00 %
23.04.2016 13:49 14,2 C 59 % 1004,1 hPa 0,0 l/m 5,0 km/h (1 Bft) NO 49 0 min 0,000 mm 1,8 UV-I 316 W/m 6,3 C 14,2 C 6,4 km/h (2 Bft) 100,00 %
23.04.2016 13:50 14,2 C 59 % 1004,1 hPa 0,0 l/m 5,2 km/h (1 Bft) NO 49 0 min 0,000 mm 1,8 UV-I 316 W/m 6,3 C 14,2 C 6,4 km/h (2 Bft) 96,30 %
23.04.2016 13:51 14,2 C 57 % 1004,1 hPa 0,0 l/m 3,8 km/h (1 Bft) NO 49 0 min 0,000 mm 1,8 UV-I 316 W/m 5,8 C 14,2 C 4,8 km/h (1 Bft) 100,00 %
23.04.2016 13:52 14,1 C 55 % 1004,1 hPa 0,0 l/m 1,0 km/h (0 Bft) NO 49 0 min 0,000 mm 1,8 UV-I 316 W/m 5,2 C 14,1 C 3,2 km/h (1 Bft) 100,00 %
23.04.2016 13:53 14,1 C 57 % 1004,1 hPa 0,0 l/m 2,4 km/h (1 Bft) NO 49 0 min 0,000 mm 1,8 UV-I 318 W/m 5,7 C 14,1 C 3,2 km/h (1 Bft) 100,00 %
23.04.2016 13:54 14,1 C 57 % 1004,0 hPa 0,0 l/m 3,9 km/h (1 Bft) NO 49 0 min 0,000 mm 1,8 UV-I 320 W/m 5,7 C 14,1 C 4,8 km/h (1 Bft) 100,00 %
23.04.2016 13:55 14,1 C 59 % 1004,0 hPa 0,0 l/m 5,1 km/h (1 Bft) NO 48 0 min 0,000 mm 1,8 UV-I 322 W/m 6,2 C 14,1 C 6,4 km/h (2 Bft) 100,00 %
23.04.2016 13:56 14,2 C 59 % 1004,0 hPa 0,0 l/m 4,2 km/h (1 Bft) NO 48 0 min 0,000 mm 1,8 UV-I 324 W/m 6,3 C 14,2 C 6,4 km/h (2 Bft) 100,00 %
23.04.2016 13:57 14,2 C 59 % 1004,0 hPa 0,0 l/m 2,6 km/h (1 Bft) NO 48 0 min 0,000 mm 1,8 UV-I 328 W/m 6,3 C 14,2 C 3,2 km/h (1 Bft) 96,30 %
23.04.2016 13:58 14,2 C 55 % 1004,0 hPa 0,0 l/m 2,8 km/h (1 Bft) NO 51 0 min 0,000 mm 1,9 UV-I 332 W/m 5,3 C 14,2 C 4,8 km/h (1 Bft) 96,15 %
23.04.2016 13:59 14,3 C 58 % 1004,0 hPa 0,0 l/m 5,4 km/h (1 Bft) NO 44 0 min 0,000 mm 1,9 UV-I 337 W/m 6,2 C 14,3 C 8,0 km/h (2 Bft) 100,00 %
23.04.2016 14:00 14,3 C 58 % 1004,0 hPa 0,0 l/m 4,3 km/h (1 Bft) O-NO 63 0 min 0,000 mm 1,9 UV-I 342 W/m 6,2 C 14,3 C 6,4 km/h (2 Bft) 100,00 %
23.04.2016 14:01 14,3 C 59 % 1004,0 hPa 0,0 l/m 1,7 km/h (1 Bft) NO 46 0 min 0,204 mm 1,9 UV-I 346 W/m 6,4 C 14,3 C 4,8 km/h (1 Bft) 100,00 %
23.04.2016 14:02 14,3 C 56 % 1004,0 hPa 0,0 l/m 3,4 km/h (1 Bft) NO 48 0 min 0,000 mm 1,9 UV-I 350 W/m 5,6 C 14,3 C 6,4 km/h (2 Bft) 100,00 %
23.04.2016 14:03 14,3 C 57 % 1004,0 hPa 0,0 l/m 3,6 km/h (1 Bft) NO 49 0 min 0,000 mm 2,0 UV-I 352 W/m 5,9 C 14,3 C 6,4 km/h (2 Bft) 100,00 %
23.04.2016 14:04 14,3 C 55 % 1004,0 hPa 0,0 l/m 4,5 km/h (1 Bft) O-NO 68 0 min 0,000 mm 2,0 UV-I 354 W/m 5,4 C 14,3 C 4,8 km/h (1 Bft) 100,00 %
23.04.2016 14:05 14,3 C 57 % 1003,9 hPa 0,0 l/m 5,4 km/h (1 Bft) NO 34 0 min 0,000 mm 2,0 UV-I 356 W/m 5,9 C 14,3 C 6,4 km/h (2 Bft) 100,00 %
23.04.2016 14:06 14,3 C 57 % 1004,0 hPa 0,0 l/m 3,3 km/h (1 Bft) N-NO 32 0 min 0,000 mm 2,0 UV-I 359 W/m 5,9 C 14,3 C 6,4 km/h (2 Bft) 97,56 %
23.04.2016 14:07 14,3 C 57 % 1003,9 hPa 0,0 l/m 2,8 km/h (1 Bft) N-NO 32 0 min 0,000 mm 2,0 UV-I 364 W/m 5,9 C 14,3 C 4,8 km/h (1 Bft) 100,00 %
23.04.2016 14:08 14,3 C 60 % 1003,9 hPa 0,0 l/m 3,9 km/h (1 Bft) NO 45 0 min 0,000 mm 2,0 UV-I 366 W/m 6,6 C 14,3 C 4,8 km/h (1 Bft) 100,00 %
23.04.2016 14:09 14,3 C 60 % 1004,0 hPa 0,0 l/m 2,3 km/h (1 Bft) NO 45 0 min 0,000 mm 2,0 UV-I 366 W/m 6,6 C 14,3 C 4,8 km/h (1 Bft) 100,00 %
23.04.2016 14:10 14,3 C 57 % 1003,9 hPa 0,0 l/m 4,7 km/h (1 Bft) NO 50 0 min 0,000 mm 2,0 UV-I 366 W/m 5,9 C 14,3 C 6,4 km/h (2 Bft) 100,00 %
23.04.2016 14:11 14,3 C 60 % 1003,9 hPa 0,0 l/m 6,6 km/h (2 Bft) N-NO 23 0 min 0,000 mm 2,0 UV-I 368 W/m 6,6 C 14,2 C 9,7 km/h (2 Bft) 100,00 %
23.04.2016 14:12 14,4 C 58 % 1003,9 hPa 0,0 l/m 3,1 km/h (1 Bft) N-NO 21 0 min 0,000 mm 2,0 UV-I 369 W/m 6,2 C 14,4 C 6,4 km/h (2 Bft) 100,00 %
23.04.2016 14:13 14,4 C 59 % 1003,8 hPa 0,0 l/m 6,0 km/h (2 Bft) N-NO 23 0 min 0,000 mm 2,0 UV-I 367 W/m 6,5 C 14,4 C 8,0 km/h (2 Bft) 98,61 %
23.04.2016 14:14 14,4 C 60 % 1003,9 hPa 0,0 l/m 3,9 km/h (1 Bft) NO 38 0 min 0,000 mm 2,0 UV-I 363 W/m 6,7 C 14,4 C 6,4 km/h (2 Bft) 100,00 %
23.04.2016 14:15 14,4 C 58 % 1003,8 hPa 0,0 l/m 5,1 km/h (1 Bft) N-NO 13 0 min 0,000 mm 2,0 UV-I 360 W/m 6,2 C 14,4 C 8,0 km/h (2 Bft) 96,30 %
23.04.2016 14:16 14,5 C 61 % 1003,8 hPa 0,0 l/m 4,5 km/h (1 Bft) N-NO 24 0 min 0,000 mm 2,0 UV-I 361 W/m 7,1 C 14,5 C 11,3 km/h (2 Bft) 98,61 %
23.04.2016 14:17 14,5 C 62 % 1003,8 hPa 0,0 l/m 1,6 km/h (1 Bft) NO 49 0 min 0,000 mm 2,0 UV-I 362 W/m 7,3 C 14,5 C 3,2 km/h (1 Bft) 100,00 %
23.04.2016 14:18 14,5 C 64 % 1003,8 hPa 0,0 l/m 2,8 km/h (1 Bft) N-NO 15 0 min 0,000 mm 2,0 UV-I 362 W/m 7,8 C 14,5 C 6,4 km/h (2 Bft) 100,00 %
23.04.2016 14:19 14,5 C 59 % 1003,8 hPa 0,0 l/m 4,4 km/h (1 Bft) N-NO 23 0 min 0,000 mm 2,0 UV-I 364 W/m 6,6 C 14,5 C 8,0 km/h (2 Bft) 100,00 %
23.04.2016 14:20 14,5 C 60 % 1003,7 hPa 0,0 l/m 1,7 km/h (1 Bft) N-NO 17 0 min 0,000 mm 2,0 UV-I 365 W/m 6,8 C 14,5 C 3,2 km/h (1 Bft) 100,00 %
23.04.2016 14:21 14,4 C 59 % 1003,8 hPa 0,0 l/m 3,4 km/h (1 Bft) N-NO 12 0 min 0,000 mm 2,0 UV-I 366 W/m 6,5 C 14,4 C 6,4 km/h (2 Bft) 100,00 %
23.04.2016 14:22 14,4 C 57 % 1003,8 hPa 0,0 l/m 3,4 km/h (1 Bft) N 9 0 min 0,000 mm 2,0 UV-I 365 W/m 6,0 C 14,4 C 6,4 km/h (2 Bft) 100,00 %
23.04.2016 14:23 14,4 C 57 % 1003,8 hPa 0,0 l/m 3,2 km/h (1 Bft) N-NO 14 0 min 0,000 mm 2,0 UV-I 360 W/m 6,0 C 14,4 C 4,8 km/h (1 Bft) 100,00 %
23.04.2016 14:24 14,4 C 58 % 1003,7 hPa 0,0 l/m 1,8 km/h (1 Bft) N-NO 14 0 min 0,000 mm 1,9 UV-I 355 W/m 6,2 C 14,4 C 3,2 km/h (1 Bft) 100,00 %
23.04.2016 14:25 14,4 C 61 % 1003,7 hPa 0,0 l/m 1,4 km/h (1 Bft) N-NO 15 0 min 0,000 mm 1,9 UV-I 347 W/m 7,0 C 14,4 C 3,2 km/h (1 Bft) 100,00 %
23.04.2016 14:26 14,4 C 56 % 1003,7 hPa 0,0 l/m 2,8 km/h (1 Bft) N-NW 342 0 min 0,000 mm 1,9 UV-I 341 W/m 5,7 C 14,4 C 6,4 km/h (2 Bft) 100,00 %
23.04.2016 14:27 14,4 C 57 % 1003,7 hPa 0,0 l/m 0,0 km/h (0 Bft) N-NW 342 0 min 0,000 mm 1,9 UV-I 337 W/m 6,0 C 14,4 C 0,0 km/h (0 Bft) 100,00 %
23.04.2016 14:28 14,4 C 53 % 1003,7 hPa 0,0 l/m 0,2 km/h (0 Bft) N-NW 342 0 min 0,000 mm 1,9 UV-I 333 W/m 4,9 C 14,4 C 1,6 km/h (1 Bft) 100,00 %
23.04.2016 14:29 14,3 C 53 % 1003,7 hPa 0,0 l/m 0,2 km/h (0 Bft) N-NW 342 0 min 0,000 mm 1,8 UV-I 332 W/m 4,9 C 14,3 C 1,6 km/h (1 Bft) 100,00 %
23.04.2016 14:30 14,4 C 57 % 1003,7 hPa 0,0 l/m 0,1 km/h (0 Bft) N-NW 342 0 min 0,000 mm 1,9 UV-I 336 W/m 6,0 C 14,4 C 1,6 km/h (1 Bft) 100,00 %
23.04.2016 14:31 14,4 C 58 % 1003,6 hPa 0,0 l/m 0,3 km/h (0 Bft) N-NW 342 0 min 0,000 mm 1,9 UV-I 343 W/m 6,2 C 14,4 C 1,6 km/h (1 Bft) 100,00 %
23.04.2016 14:32 14,5 C 58 % 1003,6 hPa 0,0 l/m 1,8 km/h (1 Bft) N-NW 342 0 min 0,000 mm 1,9 UV-I 352 W/m 6,3 C 14,5 C 3,2 km/h (1 Bft) 100,00 %
23.04.2016 14:33 14,6 C 57 % 1003,6 hPa 0,0 l/m 1,1 km/h (1 Bft) N-NW 342 0 min 0,000 mm 1,9 UV-I 355 W/m 6,2 C 14,6 C 3,2 km/h (1 Bft) 100,00 %
23.04.2016 14:34 14,6 C 58 % 1003,6 hPa 0,0 l/m 2,1 km/h (1 Bft) N-NO 32 0 min 0,000 mm 1,9 UV-I 356 W/m 6,4 C 14,6 C 4,8 km/h (1 Bft) 100,00 %
23.04.2016 14:35 14,7 C 58 % 1003,6 hPa 0,0 l/m 4,3 km/h (1 Bft) NO 46 0 min 0,000 mm 2,0 UV-I 365 W/m 6,5 C 14,7 C 6,4 km/h (2 Bft) 100,00 %
23.04.2016 14:36 14,7 C 58 % 1003,6 hPa 0,0 l/m 2,5 km/h (1 Bft) N-NO 30 0 min 0,000 mm 2,0 UV-I 371 W/m 6,5 C 14,7 C 6,4 km/h (2 Bft) 100,00 %
23.04.2016 14:37 14,7 C 58 % 1003,6 hPa 0,0 l/m 1,8 km/h (1 Bft) NO 42 0 min 0,000 mm 2,0 UV-I 378 W/m 6,5 C 14,7 C 6,4 km/h (2 Bft) 100,00 %
23.04.2016 14:38 14,8 C 62 % 1003,6 hPa 0,0 l/m 5,3 km/h (1 Bft) NO 38 0 min 0,000 mm 2,0 UV-I 379 W/m 7,6 C 14,8 C 8,0 km/h (2 Bft) 100,00 %
23.04.2016 14:39 14,8 C 61 % 1003,5 hPa 0,0 l/m 3,8 km/h (1 Bft) NO 40 0 min 0,000 mm 2,0 UV-I 371 W/m 7,4 C 14,8 C 6,4 km/h (2 Bft) 100,00 %
23.04.2016 14:40 14,8 C 56 % 1003,6 hPa 0,0 l/m 4,2 km/h (1 Bft) NO 36 0 min 0,000 mm 2,0 UV-I 370 W/m 6,1 C 14,8 C 8,0 km/h (2 Bft) 91,67 %
23.04.2016 14:41 14,9 C 59 % 1003,6 hPa 0,0 l/m 6,7 km/h (2 Bft) N-NO 12 0 min 0,000 mm 2,0 UV-I 372 W/m 7,0 C 14,7 C 8,0 km/h (2 Bft) 100,00 %
23.04.2016 14:42 14,9 C 60 % 1003,5 hPa 0,0 l/m 6,4 km/h (2 Bft) O-NO 59 0 min 0,000 mm 2,0 UV-I 383 W/m 7,2 C 14,9 C 8,0 km/h (2 Bft) 100,00 %
23.04.2016 14:43 14,9 C 53 % 1003,5 hPa 0,0 l/m 7,8 km/h (2 Bft) NO 49 0 min 0,000 mm 2,1 UV-I 390 W/m 5,4 C 14,1 C 12,9 km/h (3 Bft) 95,83 %
23.04.2016 14:44 14,9 C 58 % 1003,5 hPa 0,0 l/m 5,4 km/h (1 Bft) NO 34 0 min 0,000 mm 2,1 UV-I 390 W/m 6,7 C 14,9 C 8,0 km/h (2 Bft) 100,00 %
23.04.2016 14:45 14,9 C 61 % 1003,5 hPa 0,0 l/m 2,6 km/h (1 Bft) N 355 0 min 0,000 mm 2,1 UV-I 386 W/m 7,4 C 14,9 C 6,4 km/h (2 Bft) 100,00 %
23.04.2016 14:46 14,8 C 59 % 1003,4 hPa 0,0 l/m 0,6 km/h (0 Bft) N 355 0 min 0,000 mm 2,1 UV-I 386 W/m 6,9 C 14,8 C 1,6 km/h (1 Bft) 100,00 %
23.04.2016 14:47 14,8 C 57 % 1003,5 hPa 0,0 l/m 0,9 km/h (0 Bft) N 5 0 min 0,000 mm 2,1 UV-I 394 W/m 6,4 C 14,8 C 3,2 km/h (1 Bft) 100,00 %
23.04.2016 14:48 14,8 C 57 % 1003,5 hPa 0,0 l/m 1,3 km/h (1 Bft) N 5 0 min 0,000 mm 2,1 UV-I 403 W/m 6,4 C 14,8 C 1,6 km/h (1 Bft) 95,65 %
23.04.2016 14:49 14,8 C 59 % 1003,4 hPa 0,0 l/m 5,7 km/h (1 Bft) NO 53 0 min 0,000 mm 2,1 UV-I 407 W/m 6,9 C 14,8 C 8,0 km/h (2 Bft) 100,00 %
23.04.2016 14:50 14,9 C 58 % 1003,4 hPa 0,0 l/m 5,0 km/h (1 Bft) N-NO 26 1 min 0,000 mm 2,1 UV-I 409 W/m 6,7 C 14,9 C 6,4 km/h (2 Bft) 95,65 %
23.04.2016 14:51 14,9 C 57 % 1003,4 hPa 0,0 l/m 5,6 km/h (1 Bft) N-NO 29 0 min 0,000 mm 2,1 UV-I 406 W/m 6,5 C 14,9 C 6,4 km/h (2 Bft) 95,83 %
23.04.2016 14:52 14,9 C 55 % 1003,4 hPa 0,0 l/m 3,8 km/h (1 Bft) NO 34 0 min 0,000 mm 2,1 UV-I 401 W/m 5,9 C 14,9 C 6,4 km/h (2 Bft) 100,00 %
23.04.2016 14:53 14,9 C 57 % 1003,4 hPa 0,0 l/m 3,6 km/h (1 Bft) N-NO 31 0 min 0,000 mm 2,1 UV-I 401 W/m 6,5 C 14,9 C 4,8 km/h (1 Bft) 96,55 %
23.04.2016 14:54 14,9 C 57 % 1003,4 hPa 0,0 l/m 4,2 km/h (1 Bft) N-NO 18 1 min 0,000 mm 2,2 UV-I 415 W/m 6,5 C 14,9 C 6,4 km/h (2 Bft) 96,15 %
23.04.2016 14:55 14,9 C 57 % 1003,4 hPa 0,0 l/m 1,4 km/h (1 Bft) NO 42 1 min 0,000 mm 2,2 UV-I 420 W/m 6,5 C 14,9 C 3,2 km/h (1 Bft) 93,33 %
23.04.2016 14:56 14,9 C 58 % 1003,4 hPa 0,0 l/m 1,5 km/h (1 Bft) N-NW 344 1 min 0,000 mm 2,2 UV-I 426 W/m 6,7 C 14,9 C 3,2 km/h (1 Bft) 100,00 %
23.04.2016 14:57 14,9 C 57 % 1003,4 hPa 0,0 l/m 2,5 km/h (1 Bft) N-NO 33 1 min 0,000 mm 2,2 UV-I 423 W/m 6,5 C 14,9 C 4,8 km/h (1 Bft) 91,30 %
23.04.2016 14:58 14,9 C 57 % 1003,3 hPa 0,0 l/m 3,4 km/h (1 Bft) N-NO 19 1 min 0,000 mm 2,2 UV-I 428 W/m 6,5 C 14,9 C 4,8 km/h (1 Bft) 100,00 %
23.04.2016 14:59 14,9 C 60 % 1003,3 hPa 0,0 l/m 3,8 km/h (1 Bft) NO 46 1 min 0,000 mm 2,2 UV-I 436 W/m 7,2 C 14,9 C 6,4 km/h (2 Bft) 96,15 %
23.04.2016 15:00 15,1 C 59 % 1003,3 hPa 0,0 l/m 6,7 km/h (2 Bft) NO 40 1 min 0,000 mm 2,2 UV-I 436 W/m 7,1 C 14,9 C 8,0 km/h (2 Bft) 100,00 %
23.04.2016 15:01 15,1 C 56 % 1003,3 hPa 0,0 l/m 6,4 km/h (2 Bft) NO 36 1 min 0,203 mm 2,2 UV-I 438 W/m 6,4 C 15,1 C 9,7 km/h (2 Bft) 96,30 %
23.04.2016 15:02 15,1 C 57 % 1003,3 hPa 0,0 l/m 6,3 km/h (2 Bft) O-NO 57 1 min 0,000 mm 2,2 UV-I 448 W/m 6,6 C 15,1 C 9,7 km/h (2 Bft) 96,97 %
23.04.2016 15:03 15,2 C 57 % 1003,3 hPa 0,0 l/m 4,2 km/h (1 Bft) O-NO 57 1 min 0,000 mm 2,3 UV-I 454 W/m 6,7 C 15,2 C 6,4 km/h (2 Bft) 95,65 %
23.04.2016 15:04 15,2 C 59 % 1003,3 hPa 0,0 l/m 4,7 km/h (1 Bft) N-NW 343 1 min 0,000 mm 2,3 UV-I 453 W/m 7,2 C 15,2 C 8,0 km/h (2 Bft) 91,67 %
23.04.2016 15:05 15,3 C 57 % 1003,2 hPa 0,0 l/m 2,9 km/h (1 Bft) N-NO 24 1 min 0,000 mm 2,3 UV-I 450 W/m 6,8 C 15,3 C 6,4 km/h (2 Bft) 100,00 %
23.04.2016 15:06 15,3 C 56 % 1003,2 hPa 0,0 l/m 0,5 km/h (0 Bft) N-NO 24 1 min 0,000 mm 2,3 UV-I 440 W/m 6,6 C 15,3 C 1,6 km/h (1 Bft) 96,55 %
23.04.2016 15:07 15,3 C 58 % 1003,2 hPa 0,0 l/m 3,6 km/h (1 Bft) N-NO 20 1 min 0,000 mm 2,2 UV-I 432 W/m 7,1 C 15,3 C 4,8 km/h (1 Bft) 100,00 %
23.04.2016 15:08 15,3 C 60 % 1003,2 hPa 0,0 l/m 3,2 km/h (1 Bft) N 11 1 min 0,000 mm 2,2 UV-I 422 W/m 7,6 C 15,3 C 6,4 km/h (2 Bft) 96,67 %
23.04.2016 15:09 15,2 C 58 % 1003,2 hPa 0,0 l/m 0,9 km/h (0 Bft) N 5 1 min 0,000 mm 2,2 UV-I 414 W/m 7,0 C 15,2 C 1,6 km/h (1 Bft) 98,61 %
23.04.2016 15:10 15,1 C 56 % 1003,2 hPa 0,0 l/m 1,3 km/h (1 Bft) N 5 1 min 0,000 mm 2,2 UV-I 411 W/m 6,4 C 15,1 C 3,2 km/h (1 Bft) 97,73 %
23.04.2016 15:11 15,1 C 54 % 1003,2 hPa 0,0 l/m 0,6 km/h (0 Bft) N 5 1 min 0,000 mm 2,2 UV-I 415 W/m 5,9 C 15,1 C 1,6 km/h (1 Bft) 96,15 %
23.04.2016 15:12 15,1 C 53 % 1003,2 hPa 0,0 l/m 3,2 km/h (1 Bft) NO 50 1 min 0,000 mm 2,2 UV-I 421 W/m 5,6 C 15,1 C 4,8 km/h (1 Bft) 100,00 %
23.04.2016 15:13 15,1 C 56 % 1003,1 hPa 0,0 l/m 4,5 km/h (1 Bft) NO 42 1 min 0,000 mm 2,1 UV-I 412 W/m 6,4 C 15,1 C 6,4 km/h (2 Bft) 83,33 %
23.04.2016 15:14 15,2 C 55 % 1003,1 hPa 0,0 l/m 4,7 km/h (1 Bft) NO 35 1 min 0,000 mm 2,1 UV-I 401 W/m 6,2 C 15,2 C 14,5 km/h (3 Bft) 100,00 %
23.04.2016 15:15 15,2 C 56 % 1003,1 hPa 0,0 l/m 6,9 km/h (2 Bft) N-NO 18 1 min 0,000 mm 2,1 UV-I 388 W/m 6,5 C 14,9 C 14,5 km/h (3 Bft) 93,33 %
23.04.2016 15:16 15,2 C 58 % 1003,1 hPa 0,0 l/m 7,7 km/h (2 Bft) NO 51 0 min 0,000 mm 2,0 UV-I 380 W/m 7,0 C 14,5 C 9,7 km/h (2 Bft) 98,59 %
23.04.2016 15:17 15,2 C 59 % 1003,1 hPa 0,0 l/m 5,3 km/h (1 Bft) N 9 0 min 0,000 mm 2,0 UV-I 373 W/m 7,2 C 15,2 C 9,7 km/h (2 Bft) 98,31 %
23.04.2016 15:18 15,2 C 56 % 1003,1 hPa 0,0 l/m 1,7 km/h (1 Bft) N-NW 327 0 min 0,000 mm 2,0 UV-I 369 W/m 6,5 C 15,2 C 3,2 km/h (1 Bft) 96,15 %
23.04.2016 15:19 15,2 C 56 % 1003,1 hPa 0,0 l/m 4,3 km/h (1 Bft) N-NO 22 0 min 0,000 mm 2,0 UV-I 372 W/m 6,5 C 15,2 C 8,0 km/h (2 Bft) 100,00 %
23.04.2016 15:20 15,2 C 59 % 1003,1 hPa 0,0 l/m 1,4 km/h (1 Bft) NW 321 0 min 0,000 mm 2,0 UV-I 378 W/m 7,2 C 15,2 C 3,2 km/h (1 Bft) 92,31 %
23.04.2016 15:21 15,2 C 55 % 1003,0 hPa 0,0 l/m 1,6 km/h (1 Bft) N 5 1 min 0,000 mm 2,0 UV-I 387 W/m 6,2 C 15,2 C 3,2 km/h (1 Bft) 100,00 %
23.04.2016 15:22 15,2 C 55 % 1003,1 hPa 0,0 l/m 2,2 km/h (1 Bft) N 5 1 min 0,000 mm 2,0 UV-I 393 W/m 6,2 C 15,2 C 4,8 km/h (1 Bft) 92,31 %
23.04.2016 15:23 15,2 C 55 % 1003,0 hPa 0,0 l/m 3,8 km/h (1 Bft) NW 310 1 min 0,000 mm 2,0 UV-I 398 W/m 6,2 C 15,2 C 6,4 km/h (2 Bft) 93,33 %
23.04.2016 15:24 15,1 C 54 % 1003,0 hPa 0,0 l/m 1,4 km/h (1 Bft) NW 310 1 min 0,000 mm 2,0 UV-I 405 W/m 5,9 C 15,1 C 3,2 km/h (1 Bft) 100,00 %
23.04.2016 15:25 15,1 C 54 % 1003,0 hPa 0,0 l/m 0,5 km/h (0 Bft) NW 310 1 min 0,000 mm 2,0 UV-I 401 W/m 5,9 C 15,1 C 1,6 km/h (1 Bft) 100,00 %
23.04.2016 15:26 15,1 C 55 % 1002,9 hPa 0,0 l/m 0,1 km/h (0 Bft) NW 310 1 min 0,000 mm 2,0 UV-I 399 W/m 6,1 C 15,1 C 1,6 km/h (1 Bft) 100,00 %
23.04.2016 15:27 15,1 C 56 % 1003,0 hPa 0,0 l/m 2,1 km/h (1 Bft) N 360 1 min 0,000 mm 2,0 UV-I 395 W/m 6,4 C 15,1 C 4,8 km/h (1 Bft) 100,00 %
23.04.2016 15:28 15,1 C 56 % 1002,9 hPa 0,0 l/m 2,4 km/h (1 Bft) N 5 1 min 0,000 mm 2,0 UV-I 392 W/m 6,4 C 15,1 C 4,8 km/h (1 Bft) 100,00 %
23.04.2016 15:29 15,2 C 56 % 1003,0 hPa 0,0 l/m 3,0 km/h (1 Bft) N 5 1 min 0,000 mm 2,0 UV-I 395 W/m 6,5 C 15,2 C 4,8 km/h (1 Bft) 95,83 %
23.04.2016 15:30 15,1 C 53 % 1003,0 hPa 0,0 l/m 1,2 km/h (1 Bft) N 5 1 min 0,000 mm 2,0 UV-I 401 W/m 5,6 C 15,1 C 1,6 km/h (1 Bft) 100,00 %
23.04.2016 15:31 15,1 C 54 % 1002,9 hPa 0,0 l/m 1,1 km/h (1 Bft) N 5 1 min 0,000 mm 2,0 UV-I 408 W/m 5,9 C 15,1 C 3,2 km/h (1 Bft) 95,83 %
23.04.2016 15:32 15,2 C 54 % 1003,0 hPa 0,0 l/m 1,5 km/h (1 Bft) NO 44 1 min 0,000 mm 2,0 UV-I 410 W/m 6,0 C 15,2 C 3,2 km/h (1 Bft) 95,65 %
23.04.2016 15:33 15,2 C 54 % 1002,9 hPa 0,0 l/m 6,4 km/h (2 Bft) O-NO 60 1 min 0,000 mm 2,0 UV-I 422 W/m 6,0 C 15,2 C 9,7 km/h (2 Bft) 100,00 %
23.04.2016 15:34 15,3 C 54 % 1002,9 hPa 0,0 l/m 5,6 km/h (1 Bft) O-NO 60 1 min 0,000 mm 2,1 UV-I 449 W/m 6,0 C 15,3 C 8,0 km/h (2 Bft) 100,00 %
23.04.2016 15:35 15,3 C 53 % 1002,9 hPa 0,0 l/m 3,2 km/h (1 Bft) O-NO 60 1 min 0,000 mm 2,1 UV-I 446 W/m 5,8 C 15,3 C 4,8 km/h (1 Bft) 100,00 %
23.04.2016 15:36 15,3 C 54 % 1002,9 hPa 0,0 l/m 3,1 km/h (1 Bft) O-NO 60 1 min 0,000 mm 2,1 UV-I 461 W/m 6,0 C 15,3 C 4,8 km/h (1 Bft) 100,00 %
23.04.2016 15:37 15,3 C 54 % 1002,9 hPa 0,0 l/m 2,0 km/h (1 Bft) O-NO 60 1 min 0,000 mm 2,1 UV-I 467 W/m 6,0 C 15,3 C 3,2 km/h (1 Bft) 100,00 %
23.04.2016 15:38 15,3 C 54 % 1002,9 hPa 0,0 l/m 0,3 km/h (0 Bft) O-NO 60 1 min 0,000 mm 2,1 UV-I 478 W/m 6,0 C 15,3 C 1,6 km/h (1 Bft) 100,00 %
23.04.2016 15:39 15,3 C 53 % 1002,9 hPa 0,0 l/m 2,1 km/h (1 Bft) O-NO 60 1 min 0,000 mm 2,1 UV-I 476 W/m 5,8 C 15,3 C 3,2 km/h (1 Bft) 100,00 %
23.04.2016 15:40 15,4 C 54 % 1002,9 hPa 0,0 l/m 2,3 km/h (1 Bft) O-NO 61 1 min 0,000 mm 2,1 UV-I 471 W/m 6,1 C 15,4 C 4,8 km/h (1 Bft) 96,67 %
23.04.2016 15:41 15,4 C 54 % 1002,8 hPa 0,0 l/m 1,9 km/h (1 Bft) NO 43 1 min 0,000 mm 2,0 UV-I 464 W/m 6,1 C 15,4 C 4,8 km/h (1 Bft) 100,00 %
23.04.2016 15:42 15,5 C 56 % 1002,8 hPa 0,0 l/m 6,7 km/h (2 Bft) NO 36 1 min 0,000 mm 2,0 UV-I 451 W/m 6,8 C 15,3 C 9,7 km/h (2 Bft) 100,00 %
23.04.2016 15:43 15,6 C 60 % 1002,8 hPa 0,0 l/m 5,4 km/h (1 Bft) N-NO 27 1 min 0,000 mm 2,0 UV-I 474 W/m 7,9 C 15,6 C 6,4 km/h (2 Bft) 100,00 %
23.04.2016 15:44 15,6 C 59 % 1002,8 hPa 0,0 l/m 2,0 km/h (1 Bft) N-NO 24 1 min 0,000 mm 2,0 UV-I 472 W/m 7,6 C 15,6 C 4,8 km/h (1 Bft) 100,00 %
23.04.2016 15:45 15,6 C 52 % 1002,8 hPa 0,0 l/m 3,0 km/h (1 Bft) N 11 1 min 0,000 mm 1,9 UV-I 448 W/m 5,8 C 15,6 C 3,2 km/h (1 Bft) 100,00 %
23.04.2016 15:46 15,5 C 52 % 1002,7 hPa 0,0 l/m 3,7 km/h (1 Bft) NW 308 1 min 0,000 mm 1,8 UV-I 424 W/m 5,7 C 15,5 C 4,8 km/h (1 Bft) 100,00 %
23.04.2016 15:47 15,4 C 52 % 1002,7 hPa 0,0 l/m 3,5 km/h (1 Bft) O-NO 63 1 min 0,000 mm 1,8 UV-I 416 W/m 5,6 C 15,4 C 4,8 km/h (1 Bft) 100,00 %
23.04.2016 15:48 15,4 C 55 % 1002,7 hPa 0,0 l/m 3,1 km/h (1 Bft) O-NO 63 1 min 0,000 mm 1,8 UV-I 423 W/m 6,4 C 15,4 C 4,8 km/h (1 Bft) 100,00 %
23.04.2016 15:49 15,4 C 53 % 1002,7 hPa 0,0 l/m 1,6 km/h (1 Bft) O-NO 63 1 min 0,000 mm 1,8 UV-I 417 W/m 5,9 C 15,4 C 3,2 km/h (1 Bft) 100,00 %
23.04.2016 15:50 15,4 C 55 % 1002,7 hPa 0,0 l/m 2,7 km/h (1 Bft) NO 51 1 min 0,000 mm 1,7 UV-I 395 W/m 6,4 C 15,4 C 4,8 km/h (1 Bft) 96,30 %
23.04.2016 15:51 15,4 C 58 % 1002,7 hPa 0,0 l/m 1,4 km/h (1 Bft) NO 51 1 min 0,000 mm 1,6 UV-I 372 W/m 7,2 C 15,4 C 3,2 km/h (1 Bft) 96,15 %
23.04.2016 15:52 15,6 C 56 % 1002,7 hPa 0,0 l/m 1,3 km/h (1 Bft) NO 51 1 min 0,000 mm 1,6 UV-I 356 W/m 6,9 C 15,6 C 3,2 km/h (1 Bft) 100,00 %
23.04.2016 15:53 15,6 C 53 % 1002,6 hPa 0,0 l/m 3,3 km/h (1 Bft) NO 51 0 min 0,000 mm 1,6 UV-I 338 W/m 6,1 C 15,6 C 4,8 km/h (1 Bft) 100,00 %
23.04.2016 15:54 15,6 C 52 % 1002,6 hPa 0,0 l/m 1,0 km/h (0 Bft) NO 51 0 min 0,000 mm 1,5 UV-I 326 W/m 5,8 C 15,6 C 3,2 km/h (1 Bft) 96,55 %
23.04.2016 15:55 15,5 C 52 % 1002,6 hPa 0,0 l/m 2,1 km/h (1 Bft) NO 51 0 min 0,000 mm 1,5 UV-I 320 W/m 5,7 C 15,5 C 4,8 km/h (1 Bft) 95,65 %
23.04.2016 15:56 15,4 C 56 % 1002,6 hPa 0,0 l/m 4,1 km/h (1 Bft) NO 44 0 min 0,000 mm 1,5 UV-I 314 W/m 6,7 C 15,4 C 8,0 km/h (2 Bft) 95,83 %
23.04.2016 15:57 15,5 C 58 % 1002,6 hPa 0,0 l/m 4,4 km/h (1 Bft) NO 49 0 min 0,000 mm 1,4 UV-I 309 W/m 7,3 C 15,5 C 6,4 km/h (2 Bft) 100,00 %
23.04.2016 15:58 15,6 C 59 % 1002,6 hPa 0,0 l/m 4,2 km/h (1 Bft) N-NO 20 0 min 0,000 mm 1,4 UV-I 313 W/m 7,6 C 15,6 C 4,8 km/h (1 Bft) 100,00 %
23.04.2016 15:59 15,5 C 56 % 1002,6 hPa 0,0 l/m 2,6 km/h (1 Bft) N-NO 15 0 min 0,000 mm 1,4 UV-I 324 W/m 6,8 C 15,5 C 4,8 km/h (1 Bft) 100,00 %
23.04.2016 16:00 15,4 C 58 % 1002,6 hPa 0,0 l/m 5,1 km/h (1 Bft) N-NO 15 0 min 0,000 mm 1,4 UV-I 330 W/m 7,2 C 15,4 C 8,0 km/h (2 Bft) 100,00 %
23.04.2016 16:02 15,3 C 58 % 1002,6 hPa 0,0 l/m 1,2 km/h (1 Bft) N-NO 15 0 min 0,228 mm 1,4 UV-I 322 W/m 7,1 C 15,3 C 4,8 km/h (1 Bft) 97,56 %
23.04.2016 16:03 15,4 C 61 % 1002,6 hPa 0,0 l/m 0,7 km/h (0 Bft) N 10 0 min 0,000 mm 1,3 UV-I 320 W/m 7,9 C 15,4 C 1,6 km/h (1 Bft) 100,00 %
23.04.2016 16:04 15,4 C 53 % 1002,6 hPa 0,0 l/m 1,0 km/h (0 Bft) N 10 0 min 0,000 mm 1,3 UV-I 322 W/m 5,9 C 15,4 C 1,6 km/h (1 Bft) 100,00 %
23.04.2016 16:05 15,4 C 53 % 1002,6 hPa 0,0 l/m 0,6 km/h (0 Bft) N 10 0 min 0,000 mm 1,3 UV-I 328 W/m 5,9 C 15,4 C 1,6 km/h (1 Bft) 96,30 %
23.04.2016 16:06 15,4 C 54 % 1002,6 hPa 0,0 l/m 2,8 km/h (1 Bft) NO 55 0 min 0,000 mm 1,3 UV-I 333 W/m 6,1 C 15,4 C 6,4 km/h (2 Bft) 100,00 %
23.04.2016 16:07 15,5 C 55 % 1002,6 hPa 0,0 l/m 4,0 km/h (1 Bft) O-NO 67 1 min 0,000 mm 1,4 UV-I 338 W/m 6,5 C 15,5 C 6,4 km/h (2 Bft) 100,00 %
23.04.2016 16:08 15,6 C 53 % 1002,6 hPa 0,0 l/m 4,2 km/h (1 Bft) O-NO 71 1 min 0,000 mm 1,4 UV-I 345 W/m 6,1 C 15,6 C 6,4 km/h (2 Bft) 96,55 %
23.04.2016 16:09 15,6 C 53 % 1002,5 hPa 0,0 l/m 3,9 km/h (1 Bft) NO 55 1 min 0,000 mm 1,4 UV-I 351 W/m 6,1 C 15,6 C 4,8 km/h (1 Bft) 95,83 %
23.04.2016 16:10 15,7 C 57 % 1002,6 hPa 0,0 l/m 7,4 km/h (2 Bft) NO 48 1 min 0,000 mm 1,4 UV-I 361 W/m 7,2 C 15,2 C 9,7 km/h (2 Bft) 100,00 %
23.04.2016 16:11 15,7 C 58 % 1002,5 hPa 0,0 l/m 7,8 km/h (2 Bft) N-NO 27 1 min 0,000 mm 1,4 UV-I 363 W/m 7,5 C 14,9 C 9,7 km/h (2 Bft) 96,30 %
23.04.2016 16:12 15,7 C 57 % 1002,5 hPa 0,0 l/m 2,7 km/h (1 Bft) N-NO 26 1 min 0,000 mm 1,4 UV-I 354 W/m 7,2 C 15,7 C 4,8 km/h (1 Bft) 100,00 %
23.04.2016 16:13 15,7 C 59 % 1002,5 hPa 0,0 l/m 3,7 km/h (1 Bft) NO 40 1 min 0,000 mm 1,3 UV-I 349 W/m 7,7 C 15,7 C 6,4 km/h (2 Bft) 100,00 %
23.04.2016 16:14 15,7 C 54 % 1002,5 hPa 0,0 l/m 7,1 km/h (2 Bft) NO 38 1 min 0,000 mm 1,3 UV-I 341 W/m 6,4 C 15,3 C 8,0 km/h (2 Bft) 100,00 %
23.04.2016 16:15 15,7 C 54 % 1002,5 hPa 0,0 l/m 5,2 km/h (1 Bft) NO 40 1 min 0,000 mm 1,3 UV-I 337 W/m 6,4 C 15,7 C 6,4 km/h (2 Bft) 97,56 %
23.04.2016 16:16 15,7 C 53 % 1002,5 hPa 0,0 l/m 5,7 km/h (1 Bft) NO 38 1 min 0,000 mm 1,3 UV-I 339 W/m 6,1 C 15,7 C 6,4 km/h (2 Bft) 91,67 %
23.04.2016 16:17 15,7 C 52 % 1002,5 hPa 0,0 l/m 3,8 km/h (1 Bft) NO 53 1 min 0,000 mm 1,3 UV-I 332 W/m 5,9 C 15,7 C 6,4 km/h (2 Bft) 96,88 %
23.04.2016 16:18 15,6 C 52 % 1002,5 hPa 0,0 l/m 3,0 km/h (1 Bft) NO 55 1 min 0,000 mm 1,3 UV-I 325 W/m 5,8 C 15,6 C 4,8 km/h (1 Bft) 100,00 %
23.04.2016 16:19 15,6 C 51 % 1002,5 hPa 0,0 l/m 2,4 km/h (1 Bft) NO 55 0 min 0,000 mm 1,2 UV-I 317 W/m 5,5 C 15,6 C 4,8 km/h (1 Bft) 100,00 %
23.04.2016 16:20 15,6 C 55 % 1002,5 hPa 0,0 l/m 2,1 km/h (1 Bft) O-NO 57 0 min 0,000 mm 1,2 UV-I 310 W/m 6,6 C 15,6 C 4,8 km/h (1 Bft) 100,00 %
23.04.2016 16:21 15,6 C 53 % 1002,4 hPa 0,0 l/m 3,9 km/h (1 Bft) O-NO 57 0 min 0,000 mm 1,2 UV-I 304 W/m 6,1 C 15,6 C 4,8 km/h (1 Bft) 100,00 %
23.04.2016 16:22 15,6 C 54 % 1002,4 hPa 0,0 l/m 3,7 km/h (1 Bft) NO 55 0 min 0,000 mm 1,2 UV-I 301 W/m 6,3 C 15,6 C 4,8 km/h (1 Bft) 100,00 %
23.04.2016 16:23 15,7 C 52 % 1002,4 hPa 0,0 l/m 3,7 km/h (1 Bft) O-NO 59 0 min 0,000 mm 1,2 UV-I 297 W/m 5,9 C 15,7 C 4,8 km/h (1 Bft) 96,15 %
23.04.2016 16:24 15,6 C 52 % 1002,5 hPa 0,0 l/m 3,3 km/h (1 Bft) NO 56 0 min 0,000 mm 1,2 UV-I 291 W/m 5,8 C 15,6 C 4,8 km/h (1 Bft) 100,00 %
23.04.2016 16:25 15,6 C 52 % 1002,4 hPa 0,0 l/m 2,7 km/h (1 Bft) O-NO 65 0 min 0,000 mm 1,2 UV-I 292 W/m 5,8 C 15,6 C 4,8 km/h (1 Bft) 100,00 %
23.04.2016 16:26 15,6 C 51 % 1002,4 hPa 0,0 l/m 3,6 km/h (1 Bft) O 96 0 min 0,000 mm 1,1 UV-I 282 W/m 5,5 C 15,6 C 4,8 km/h (1 Bft) 100,00 %
23.04.2016 16:27 15,5 C 51 % 1002,4 hPa 0,0 l/m 0,5 km/h (0 Bft) O 96 0 min 0,000 mm 1,1 UV-I 274 W/m 5,4 C 15,5 C 1,6 km/h (1 Bft) 100,00 %
23.04.2016 16:28 15,5 C 52 % 1002,4 hPa 0,0 l/m 0,1 km/h (0 Bft) O 96 0 min 0,000 mm 1,1 UV-I 273 W/m 5,7 C 15,5 C 1,6 km/h (1 Bft) 100,00 %
23.04.2016 16:29 15,4 C 53 % 1002,3 hPa 0,0 l/m 0,1 km/h (0 Bft) O 96 0 min 0,000 mm 1,1 UV-I 268 W/m 5,9 C 15,4 C 1,6 km/h (1 Bft) 96,88 %
23.04.2016 16:30 15,4 C 51 % 1002,3 hPa 0,0 l/m 0,3 km/h (0 Bft) O 96 0 min 0,000 mm 1,1 UV-I 264 W/m 5,3 C 15,4 C 1,6 km/h (1 Bft) 100,00 %
23.04.2016 16:31 15,4 C 52 % 1002,3 hPa 0,0 l/m 0,6 km/h (0 Bft) O 96 0 min 0,000 mm 1,1 UV-I 265 W/m 5,6 C 15,4 C 1,6 km/h (1 Bft) 100,00 %
23.04.2016 16:32 15,4 C 54 % 1002,3 hPa 0,0 l/m 0,7 km/h (0 Bft) O 96 0 min 0,000 mm 1,1 UV-I 268 W/m 6,1 C 15,4 C 1,6 km/h (1 Bft) 100,00 %
23.04.2016 16:33 15,4 C 55 % 1002,3 hPa 0,0 l/m 3,0 km/h (1 Bft) O 90 0 min 0,000 mm 1,1 UV-I 272 W/m 6,4 C 15,4 C 4,8 km/h (1 Bft) 100,00 %
23.04.2016 16:34 15,5 C 58 % 1002,3 hPa 0,0 l/m 3,1 km/h (1 Bft) O 90 0 min 0,000 mm 1,1 UV-I 280 W/m 7,3 C 15,5 C 4,8 km/h (1 Bft) 93,33 %
23.04.2016 16:35 15,6 C 54 % 1002,2 hPa 0,0 l/m 4,1 km/h (1 Bft) O 90 0 min 0,000 mm 1,1 UV-I 280 W/m 6,3 C 15,6 C 4,8 km/h (1 Bft) 100,00 %
23.04.2016 16:36 15,6 C 53 % 1002,3 hPa 0,0 l/m 4,0 km/h (1 Bft) O 101 0 min 0,000 mm 1,0 UV-I 286 W/m 6,1 C 15,6 C 6,4 km/h (2 Bft) 96,15 %
23.04.2016 16:37 15,6 C 52 % 1002,3 hPa 0,0 l/m 2,3 km/h (1 Bft) O 101 0 min 0,000 mm 1,0 UV-I 274 W/m 5,8 C 15,6 C 4,8 km/h (1 Bft) 100,00 %
23.04.2016 16:38 15,5 C 52 % 1002,3 hPa 0,0 l/m 0,6 km/h (0 Bft) O 101 0 min 0,000 mm 1,0 UV-I 253 W/m 5,7 C 15,5 C 1,6 km/h (1 Bft) 100,00 %
23.04.2016 16:39 15,5 C 57 % 1002,2 hPa 0,0 l/m 2,6 km/h (1 Bft) O 83 0 min 0,000 mm 0,9 UV-I 244 W/m 7,0 C 15,5 C 4,8 km/h (1 Bft) 100,00 %
23.04.2016 16:40 15,5 C 56 % 1002,2 hPa 0,0 l/m 5,4 km/h (1 Bft) O 91 0 min 0,000 mm 0,9 UV-I 239 W/m 6,8 C 15,5 C 6,4 km/h (2 Bft) 100,00 %
23.04.2016 16:41 15,4 C 52 % 1002,3 hPa 0,0 l/m 2,2 km/h (1 Bft) O 91 0 min 0,000 mm 0,9 UV-I 236 W/m 5,6 C 15,4 C 4,8 km/h (1 Bft) 100,00 %
23.04.2016 16:42 15,3 C 54 % 1002,2 hPa 0,0 l/m 0,4 km/h (0 Bft) O 91 0 min 0,000 mm 0,9 UV-I 235 W/m 6,0 C 15,3 C 3,2 km/h (1 Bft) 100,00 %
23.04.2016 16:43 15,3 C 53 % 1002,2 hPa 0,0 l/m 0,3 km/h (0 Bft) O 91 0 min 0,000 mm 0,9 UV-I 236 W/m 5,8 C 15,3 C 1,6 km/h (1 Bft) 100,00 %
23.04.2016 16:44 15,3 C 54 % 1002,2 hPa 0,0 l/m 2,3 km/h (1 Bft) O 93 0 min 0,000 mm 0,9 UV-I 234 W/m 6,0 C 15,3 C 6,4 km/h (2 Bft) 100,00 %
23.04.2016 16:45 15,3 C 55 % 1002,2 hPa 0,0 l/m 3,8 km/h (1 Bft) O 83 0 min 0,000 mm 0,9 UV-I 230 W/m 6,3 C 15,3 C 4,8 km/h (1 Bft) 100,00 %
23.04.2016 16:46 15,4 C 58 % 1002,2 hPa 0,0 l/m 4,3 km/h (1 Bft) O-NO 78 0 min 0,000 mm 0,9 UV-I 225 W/m 7,2 C 15,4 C 4,8 km/h (1 Bft) 96,55 %
23.04.2016 16:47 15,4 C 53 % 1002,2 hPa 0,0 l/m 2,4 km/h (1 Bft) O-NO 78 0 min 0,000 mm 0,9 UV-I 219 W/m 5,9 C 15,4 C 3,2 km/h (1 Bft) 100,00 %
23.04.2016 16:48 15,4 C 53 % 1002,2 hPa 0,0 l/m 1,8 km/h (1 Bft) O-NO 78 0 min 0,000 mm 0,8 UV-I 213 W/m 5,9 C 15,4 C 4,8 km/h (1 Bft) 100,00 %
23.04.2016 16:49 15,4 C 54 % 1002,2 hPa 0,0 l/m 2,1 km/h (1 Bft) O-NO 78 0 min 0,000 mm 0,8 UV-I 208 W/m 6,1 C 15,4 C 3,2 km/h (1 Bft) 100,00 %
23.04.2016 16:50 15,4 C 56 % 1002,2 hPa 0,0 l/m 2,5 km/h (1 Bft) O 80 0 min 0,000 mm 0,8 UV-I 201 W/m 6,7 C 15,4 C 3,2 km/h (1 Bft) 95,65 %
23.04.2016 16:51 15,4 C 55 % 1002,2 hPa 0,0 l/m 3,0 km/h (1 Bft) O 80 0 min 0,000 mm 0,8 UV-I 197 W/m 6,4 C 15,4 C 4,8 km/h (1 Bft) 100,00 %
23.04.2016 16:52 15,4 C 53 % 1002,2 hPa 0,0 l/m 2,3 km/h (1 Bft) O 80 0 min 0,000 mm 0,7 UV-I 193 W/m 5,9 C 15,4 C 3,2 km/h (1 Bft) 91,67 %
23.04.2016 16:53 15,4 C 53 % 1002,2 hPa 0,0 l/m 0,3 km/h (0 Bft) O 80 0 min 0,000 mm 0,7 UV-I 188 W/m 5,9 C 15,4 C 1,6 km/h (1 Bft) 96,55 %
23.04.2016 16:54 15,3 C 54 % 1002,2 hPa 0,0 l/m 0,2 km/h (0 Bft) O 80 0 min 0,000 mm 0,7 UV-I 186 W/m 6,0 C 15,3 C 1,6 km/h (1 Bft) 95,83 %
23.04.2016 16:55 15,3 C 56 % 1002,1 hPa 0,0 l/m 3,1 km/h (1 Bft) O-NO 59 0 min 0,000 mm 0,7 UV-I 184 W/m 6,6 C 15,3 C 4,8 km/h (1 Bft) 96,15 %
23.04.2016 16:56 15,3 C 57 % 1002,1 hPa 0,0 l/m 5,0 km/h (1 Bft) O-NO 58 0 min 0,000 mm 0,7 UV-I 183 W/m 6,8 C 15,3 C 8,0 km/h (2 Bft) 100,00 %
23.04.2016 16:57 15,4 C 57 % 1002,1 hPa 0,0 l/m 4,3 km/h (1 Bft) O-NO 58 0 min 0,000 mm 0,7 UV-I 181 W/m 6,9 C 15,4 C 6,4 km/h (2 Bft) 92,86 %
23.04.2016 16:58 15,4 C 55 % 1002,1 hPa 0,0 l/m 4,8 km/h (1 Bft) O-NO 58 0 min 0,000 mm 0,6 UV-I 180 W/m 6,4 C 15,4 C 4,8 km/h (1 Bft) 100,00 %
23.04.2016 16:59 15,4 C 54 % 1002,1 hPa 0,0 l/m 3,0 km/h (1 Bft) O-NO 58 0 min 0,000 mm 0,6 UV-I 179 W/m 6,1 C 15,4 C 4,8 km/h (1 Bft) 95,65 %
23.04.2016 17:00 15,3 C 55 % 1002,1 hPa 0,0 l/m 0,3 km/h (0 Bft) O-NO 58 0 min 0,000 mm 0,6 UV-I 176 W/m 6,3 C 15,3 C 1,6 km/h (1 Bft) 100,00 %
23.04.2016 17:01 15,3 C 55 % 1002,2 hPa 0,0 l/m 0,0 km/h (0 Bft) O-NO 58 0 min 0,153 mm 0,6 UV-I 172 W/m 6,3 C 15,3 C 0,0 km/h (0 Bft) 96,15 %
23.04.2016 17:02 15,3 C 64 % 1002,1 hPa 0,0 l/m 0,1 km/h (0 Bft) O-NO 58 0 min 0,000 mm 0,6 UV-I 169 W/m 8,5 C 15,3 C 1,6 km/h (1 Bft) 95,83 %
23.04.2016 17:03 15,3 C 60 % 1002,1 hPa 0,0 l/m 0,0 km/h (0 Bft) O-NO 58 0 min 0,000 mm 0,5 UV-I 166 W/m 7,6 C 15,3 C 0,0 km/h (0 Bft) 88,46 %
23.04.2016 17:04 15,2 C 61 % 1002,1 hPa 0,0 l/m 1,1 km/h (1 Bft) O-NO 58 0 min 0,000 mm 0,5 UV-I 162 W/m 7,7 C 15,2 C 3,2 km/h (1 Bft) 91,67 %
23.04.2016 17:05 15,2 C 60 % 1002,1 hPa 0,0 l/m 1,3 km/h (1 Bft) O-NO 58 0 min 0,000 mm 0,5 UV-I 158 W/m 7,5 C 15,2 C 1,6 km/h (1 Bft) 94,74 %
23.04.2016 17:06 15,2 C 59 % 1002,1 hPa 0,0 l/m 4,7 km/h (1 Bft) W 271 0 min 0,000 mm 0,5 UV-I 152 W/m 7,2 C 15,2 C 11,3 km/h (2 Bft) 93,33 %
23.04.2016 17:07 15,1 C 58 % 1002,1 hPa 0,0 l/m 2,3 km/h (1 Bft) NW 304 0 min 0,000 mm 0,5 UV-I 148 W/m 6,9 C 15,1 C 4,8 km/h (1 Bft) 100,00 %
23.04.2016 17:08 15,1 C 61 % 1002,1 hPa 0,0 l/m 5,7 km/h (1 Bft) N-NO 26 0 min 0,000 mm 0,5 UV-I 144 W/m 7,6 C 15,1 C 9,7 km/h (2 Bft) 93,10 %
23.04.2016 17:09 15,1 C 60 % 1002,1 hPa 0,0 l/m 4,6 km/h (1 Bft) N-NO 20 0 min 0,000 mm 0,5 UV-I 141 W/m 7,4 C 15,1 C 8,0 km/h (2 Bft) 100,00 %
23.04.2016 17:10 15,0 C 60 % 1002,1 hPa 0,0 l/m 6,9 km/h (2 Bft) N-NO 28 0 min 0,000 mm 0,0 UV-I 138 W/m 7,3 C 14,7 C 9,7 km/h (2 Bft) 92,31 %
23.04.2016 17:11 14,9 C 60 % 1002,1 hPa 0,0 l/m 0,9 km/h (0 Bft) N-NO 23 0 min 0,000 mm 0,0 UV-I 136 W/m 7,2 C 14,9 C 3,2 km/h (1 Bft) 100,00 %
23.04.2016 17:12 14,9 C 62 % 1002,1 hPa 0,0 l/m 2,7 km/h (1 Bft) N-NO 23 0 min 0,000 mm 0,0 UV-I 134 W/m 7,7 C 14,9 C 6,4 km/h (2 Bft) 96,15 %
23.04.2016 17:13 14,8 C 59 % 1002,1 hPa 0,0 l/m 1,4 km/h (1 Bft) N-NO 26 0 min 0,000 mm 0,0 UV-I 134 W/m 6,9 C 14,8 C 3,2 km/h (1 Bft) 96,15 %
23.04.2016 17:14 14,8 C 63 % 1002,1 hPa 0,0 l/m 4,3 km/h (1 Bft) N-NO 30 0 min 0,000 mm 0,0 UV-I 134 W/m 7,8 C 14,8 C 6,4 km/h (2 Bft) 100,00 %
23.04.2016 17:15 14,8 C 61 % 1002,1 hPa 0,0 l/m 1,0 km/h (0 Bft) N-NO 31 0 min 0,000 mm 0,0 UV-I 134 W/m 7,4 C 14,8 C 3,2 km/h (1 Bft) 96,30 %
23.04.2016 17:16 14,8 C 60 % 1002,1 hPa 0,0 l/m 0,5 km/h (0 Bft) N-NO 28 0 min 0,000 mm 0,0 UV-I 133 W/m 7,1 C 14,8 C 1,6 km/h (1 Bft) 100,00 %
23.04.2016 17:17 14,7 C 63 % 1002,1 hPa 0,0 l/m 1,9 km/h (1 Bft) NO 36 0 min 0,000 mm 0,0 UV-I 132 W/m 7,7 C 14,7 C 4,8 km/h (1 Bft) 96,30 %
23.04.2016 17:18 14,7 C 60 % 1002,0 hPa 0,0 l/m 5,4 km/h (1 Bft) W-NW 296 0 min 0,000 mm 0,0 UV-I 133 W/m 7,0 C 14,7 C 8,0 km/h (2 Bft) 96,15 %
23.04.2016 17:19 14,7 C 59 % 1002,1 hPa 0,0 l/m 5,0 km/h (1 Bft) N-NW 346 0 min 0,000 mm 0,0 UV-I 134 W/m 6,8 C 14,7 C 9,7 km/h (2 Bft) 100,00 %
23.04.2016 17:20 14,7 C 59 % 1002,1 hPa 0,0 l/m 3,8 km/h (1 Bft) W-NW 298 0 min 0,000 mm 0,0 UV-I 134 W/m 6,8 C 14,7 C 9,7 km/h (2 Bft) 92,31 %
23.04.2016 17:21 14,7 C 63 % 1002,0 hPa 0,0 l/m 1,8 km/h (1 Bft) N-NW 335 0 min 0,000 mm 0,0 UV-I 132 W/m 7,7 C 14,7 C 3,2 km/h (1 Bft) 100,00 %
23.04.2016 17:22 14,6 C 59 % 1002,0 hPa 0,0 l/m 3,9 km/h (1 Bft) W-NW 299 0 min 0,000 mm 0,0 UV-I 131 W/m 6,7 C 14,6 C 8,0 km/h (2 Bft) 96,55 %
23.04.2016 17:23 14,6 C 60 % 1002,0 hPa 0,0 l/m 3,2 km/h (1 Bft) N-NW 342 0 min 0,000 mm 0,0 UV-I 128 W/m 6,9 C 14,6 C 6,4 km/h (2 Bft) 100,00 %
23.04.2016 17:24 14,6 C 60 % 1002,1 hPa 0,0 l/m 1,0 km/h (0 Bft) N-NW 336 0 min 0,000 mm 0,0 UV-I 125 W/m 6,9 C 14,6 C 3,2 km/h (1 Bft) 88,46 %
23.04.2016 17:25 14,6 C 60 % 1002,1 hPa 0,0 l/m 1,7 km/h (1 Bft) NW 316 0 min 0,000 mm 0,0 UV-I 123 W/m 6,9 C 14,6 C 4,8 km/h (1 Bft) 100,00 %
23.04.2016 17:26 14,6 C 59 % 1002,0 hPa 0,0 l/m 1,4 km/h (1 Bft) N-NW 328 0 min 0,000 mm 0,0 UV-I 120 W/m 6,7 C 14,6 C 1,6 km/h (1 Bft) 95,65 %
23.04.2016 17:27 14,6 C 60 % 1002,1 hPa 0,0 l/m 2,3 km/h (1 Bft) N-NW 338 0 min 0,000 mm 0,0 UV-I 117 W/m 6,9 C 14,6 C 4,8 km/h (1 Bft) 95,83 %
23.04.2016 17:28 14,6 C 61 % 1002,1 hPa 0,0 l/m 5,0 km/h (1 Bft) NW 317 0 min 0,000 mm 0,0 UV-I 113 W/m 7,2 C 14,6 C 11,3 km/h (2 Bft) 100,00 %
23.04.2016 17:29 14,6 C 60 % 1002,1 hPa 0,0 l/m 2,7 km/h (1 Bft) W 281 0 min 0,000 mm 0,0 UV-I 111 W/m 6,9 C 14,6 C 4,8 km/h (1 Bft) 95,83 %
23.04.2016 17:30 14,6 C 60 % 1002,1 hPa 0,0 l/m 1,9 km/h (1 Bft) NW 315 0 min 0,000 mm 0,0 UV-I 106 W/m 6,9 C 14,6 C 4,8 km/h (1 Bft) 96,15 %
23.04.2016 17:31 14,6 C 61 % 1002,1 hPa 0,0 l/m 0,7 km/h (0 Bft) N 349 0 min 0,000 mm 0,0 UV-I 104 W/m 7,2 C 14,6 C 1,6 km/h (1 Bft) 95,83 %
23.04.2016 17:32 14,6 C 62 % 1002,0 hPa 0,0 l/m 2,9 km/h (1 Bft) NW 315 0 min 0,000 mm 0,0 UV-I 102 W/m 7,4 C 14,6 C 4,8 km/h (1 Bft) 100,00 %
23.04.2016 17:33 14,5 C 62 % 1002,0 hPa 0,0 l/m 3,2 km/h (1 Bft) NW 325 0 min 0,000 mm 0,0 UV-I 99 W/m 7,3 C 14,5 C 6,4 km/h (2 Bft) 86,67 %
23.04.2016 17:34 14,5 C 61 % 1002,0 hPa 0,0 l/m 1,0 km/h (0 Bft) NW 321 0 min 0,000 mm 0,0 UV-I 98 W/m 7,1 C 14,5 C 3,2 km/h (1 Bft) 100,00 %
23.04.2016 17:35 14,5 C 60 % 1002,0 hPa 0,0 l/m 2,0 km/h (1 Bft) NW 319 0 min 0,000 mm 0,0 UV-I 98 W/m 6,8 C 14,5 C 3,2 km/h (1 Bft) 100,00 %
23.04.2016 17:36 14,5 C 61 % 1002,0 hPa 0,0 l/m 0,3 km/h (0 Bft) NW 319 0 min 0,000 mm 0,0 UV-I 97 W/m 7,1 C 14,5 C 1,6 km/h (1 Bft) 100,00 %
23.04.2016 17:37 14,5 C 62 % 1002,0 hPa 0,0 l/m 2,0 km/h (1 Bft) NW 313 0 min 0,000 mm 0,0 UV-I 97 W/m 7,3 C 14,5 C 4,8 km/h (1 Bft) 86,96 %
23.04.2016 17:38 14,5 C 60 % 1002,0 hPa 0,0 l/m 3,0 km/h (1 Bft) N 5 0 min 0,000 mm 0,0 UV-I 97 W/m 6,8 C 14,5 C 4,8 km/h (1 Bft) 100,00 %
23.04.2016 17:39 14,6 C 62 % 1002,0 hPa 0,0 l/m 2,1 km/h (1 Bft) N-NW 338 0 min 0,000 mm 0,0 UV-I 98 W/m 7,4 C 14,6 C 4,8 km/h (1 Bft) 100,00 %
23.04.2016 17:40 14,5 C 62 % 1002,1 hPa 0,0 l/m 0,6 km/h (0 Bft) N-NW 336 0 min 0,000 mm 0,0 UV-I 98 W/m 7,3 C 14,5 C 1,6 km/h (1 Bft) 96,30 %
23.04.2016 17:41 14,5 C 62 % 1002,0 hPa 0,0 l/m 2,6 km/h (1 Bft) N 355 0 min 0,000 mm 0,0 UV-I 99 W/m 7,3 C 14,5 C 4,8 km/h (1 Bft) 100,00 %
23.04.2016 17:42 14,5 C 61 % 1002,0 hPa 0,0 l/m 1,9 km/h (1 Bft) N-NW 328 0 min 0,000 mm 0,0 UV-I 101 W/m 7,1 C 14,5 C 3,2 km/h (1 Bft) 100,00 %
23.04.2016 17:43 14,5 C 60 % 1002,0 hPa 0,0 l/m 5,7 km/h (1 Bft) W-NW 298 0 min 0,000 mm 0,0 UV-I 102 W/m 6,8 C 14,5 C 8,0 km/h (2 Bft) 100,00 %
23.04.2016 17:44 14,5 C 60 % 1002,0 hPa 0,0 l/m 4,0 km/h (1 Bft) NW 322 0 min 0,000 mm 0,0 UV-I 104 W/m 6,8 C 14,5 C 4,8 km/h (1 Bft) 100,00 %
23.04.2016 17:45 14,5 C 61 % 1002,0 hPa 0,0 l/m 3,7 km/h (1 Bft) N-NW 327 0 min 0,000 mm 0,0 UV-I 104 W/m 7,1 C 14,5 C 8,0 km/h (2 Bft) 100,00 %
23.04.2016 17:46 14,4 C 61 % 1002,0 hPa 0,0 l/m 3,1 km/h (1 Bft) NW 309 0 min 0,000 mm 0,0 UV-I 105 W/m 7,0 C 14,4 C 6,4 km/h (2 Bft) 100,00 %
23.04.2016 17:47 14,4 C 60 % 1002,0 hPa 0,0 l/m 3,1 km/h (1 Bft) NW 325 0 min 0,000 mm 0,0 UV-I 106 W/m 6,7 C 14,4 C 6,4 km/h (2 Bft) 100,00 %
23.04.2016 17:48 14,4 C 63 % 1002,0 hPa 0,0 l/m 1,4 km/h (1 Bft) NW 326 0 min 0,000 mm 0,0 UV-I 108 W/m 7,4 C 14,4 C 3,2 km/h (1 Bft) 96,30 %
23.04.2016 17:49 14,4 C 61 % 1002,0 hPa 0,0 l/m 1,2 km/h (1 Bft) NW 313 0 min 0,000 mm 0,0 UV-I 109 W/m 7,0 C 14,4 C 3,2 km/h (1 Bft) 98,48 %
23.04.2016 17:50 14,4 C 62 % 1002,0 hPa 0,0 l/m 0,7 km/h (0 Bft) NW 313 0 min 0,000 mm 0,0 UV-I 111 W/m 7,2 C 14,4 C 3,2 km/h (1 Bft) 97,37 %
23.04.2016 17:51 14,4 C 64 % 1001,9 hPa 0,0 l/m 1,3 km/h (1 Bft) NW 313 0 min 0,000 mm 0,0 UV-I 111 W/m 7,7 C 14,4 C 1,6 km/h (1 Bft) 100,00 %
23.04.2016 17:52 14,4 C 61 % 1002,0 hPa 0,0 l/m 3,6 km/h (1 Bft) NW 324 0 min 0,000 mm 0,0 UV-I 111 W/m 7,0 C 14,4 C 4,8 km/h (1 Bft) 96,15 %
23.04.2016 17:53 14,4 C 62 % 1002,0 hPa 0,0 l/m 1,9 km/h (1 Bft) NW 317 0 min 0,000 mm 0,0 UV-I 110 W/m 7,2 C 14,4 C 4,8 km/h (1 Bft) 100,00 %
23.04.2016 17:54 14,4 C 62 % 1001,9 hPa 0,0 l/m 1,9 km/h (1 Bft) NW 315 0 min 0,000 mm 0,0 UV-I 106 W/m 7,2 C 14,4 C 3,2 km/h (1 Bft) 90,91 %
23.04.2016 17:55 14,3 C 63 % 1002,0 hPa 0,0 l/m 1,8 km/h (1 Bft) W-NW 302 0 min 0,000 mm 0,0 UV-I 102 W/m 7,4 C 14,3 C 4,8 km/h (1 Bft) 100,00 %
23.04.2016 17:56 14,3 C 64 % 1002,0 hPa 0,0 l/m 2,8 km/h (1 Bft) NW 314 0 min 0,000 mm 0,0 UV-I 97 W/m 7,6 C 14,3 C 3,2 km/h (1 Bft) 100,00 %
23.04.2016 17:57 14,3 C 62 % 1001,9 hPa 0,0 l/m 0,5 km/h (0 Bft) NW 315 0 min 0,000 mm 0,0 UV-I 92 W/m 7,1 C 14,3 C 1,6 km/h (1 Bft) 100,00 %
23.04.2016 17:58 14,3 C 62 % 1001,9 hPa 0,0 l/m 2,2 km/h (1 Bft) NW 306 0 min 0,000 mm 0,0 UV-I 88 W/m 7,1 C 14,3 C 4,8 km/h (1 Bft) 96,15 %
23.04.2016 17:59 14,3 C 62 % 1002,0 hPa 0,0 l/m 2,6 km/h (1 Bft) N-NW 327 0 min 0,000 mm 0,0 UV-I 84 W/m 7,1 C 14,3 C 4,8 km/h (1 Bft) 100,00 %
23.04.2016 18:00 14,3 C 62 % 1002,0 hPa 0,0 l/m 2,1 km/h (1 Bft) W-NW 303 0 min 0,000 mm 0,0 UV-I 80 W/m 7,1 C 14,3 C 4,8 km/h (1 Bft) 100,00 %
23.04.2016 18:02 14,3 C 63 % 1002,0 hPa 0,0 l/m 1,9 km/h (1 Bft) NW 304 0 min 0,076 mm 0,0 UV-I 75 W/m 7,4 C 14,3 C 3,2 km/h (1 Bft) 100,00 %
23.04.2016 18:03 14,2 C 61 % 1001,9 hPa 0,0 l/m 3,1 km/h (1 Bft) W-NW 291 0 min 0,000 mm 0,0 UV-I 71 W/m 6,8 C 14,2 C 6,4 km/h (2 Bft) 100,00 %
23.04.2016 18:04 14,2 C 63 % 1002,0 hPa 0,0 l/m 1,9 km/h (1 Bft) NW 306 0 min 0,000 mm 0,0 UV-I 70 W/m 7,3 C 14,2 C 4,8 km/h (1 Bft) 100,00 %
23.04.2016 18:05 14,2 C 61 % 1001,9 hPa 0,0 l/m 1,3 km/h (1 Bft) NW 306 0 min 0,000 mm 0,0 UV-I 69 W/m 6,8 C 14,2 C 3,2 km/h (1 Bft) 100,00 %
23.04.2016 18:06 14,2 C 62 % 1002,0 hPa 0,0 l/m 1,5 km/h (1 Bft) NW 308 0 min 0,000 mm 0,0 UV-I 67 W/m 7,0 C 14,2 C 3,2 km/h (1 Bft) 100,00 %
23.04.2016 18:07 14,2 C 62 % 1001,9 hPa 0,0 l/m 0,6 km/h (0 Bft) NW 308 0 min 0,000 mm 0,0 UV-I 65 W/m 7,0 C 14,2 C 1,6 km/h (1 Bft) 100,00 %
23.04.2016 18:08 14,2 C 62 % 1001,9 hPa 0,0 l/m 0,1 km/h (0 Bft) NW 308 0 min 0,000 mm 0,0 UV-I 64 W/m 7,0 C 14,2 C 1,6 km/h (1 Bft) 100,00 %
23.04.2016 18:09 14,2 C 63 % 1001,9 hPa 0,0 l/m 0,5 km/h (0 Bft) NW 308 0 min 0,000 mm 0,0 UV-I 63 W/m 7,3 C 14,2 C 1,6 km/h (1 Bft) 100,00 %
23.04.2016 18:10 14,2 C 63 % 1001,9 hPa 0,0 l/m 1,1 km/h (1 Bft) NW 308 0 min 0,000 mm 0,0 UV-I 62 W/m 7,3 C 14,2 C 3,2 km/h (1 Bft) 95,83 %
23.04.2016 18:11 14,2 C 62 % 1001,9 hPa 0,0 l/m 1,0 km/h (0 Bft) NW 308 0 min 0,000 mm 0,0 UV-I 61 W/m 7,0 C 14,2 C 3,2 km/h (1 Bft) 95,65 %
23.04.2016 18:12 14,2 C 61 % 1001,9 hPa 0,0 l/m 0,8 km/h (0 Bft) NW 308 0 min 0,000 mm 0,0 UV-I 58 W/m 6,8 C 14,2 C 1,6 km/h (1 Bft) 100,00 %
23.04.2016 18:13 14,2 C 63 % 1001,9 hPa 0,0 l/m 2,3 km/h (1 Bft) NW 304 0 min 0,000 mm 0,0 UV-I 58 W/m 7,3 C 14,2 C 4,8 km/h (1 Bft) 96,55 %
23.04.2016 18:15 14,2 C 62 % 1001,9 hPa 0,0 l/m 1,6 km/h (1 Bft) NW 315 0 min 0,000 mm 0,0 UV-I 57 W/m 7,0 C 14,2 C 4,8 km/h (1 Bft) 100,00 %
23.04.2016 18:20 14,1 C 62 % 1001,8 hPa 0,0 l/m 0,0 km/h (0 Bft) NW 315 0 min 0,000 mm 0,0 UV-I 54 W/m 6,9 C 14,1 C 3,2 km/h (1 Bft) 99,12 %
23.04.2016 18:25 14,0 C 65 % 1001,8 hPa 0,0 l/m 0,0 km/h (0 Bft) NW 315 0 min 0,000 mm 0,0 UV-I 49 W/m 7,5 C 14,0 C 3,2 km/h (1 Bft) 100,00 %
23.04.2016 18:26 14,0 C 66 % 1001,8 hPa 0,0 l/m 0,5 km/h (0 Bft) NW 306 0 min 0,000 mm 0,0 UV-I 49 W/m 7,7 C 14,0 C 1,6 km/h (1 Bft) 99,34 %
23.04.2016 18:27 14,0 C 65 % 1001,8 hPa 0,0 l/m 0,4 km/h (0 Bft) NW 306 0 min 0,000 mm 0,0 UV-I 44 W/m 7,5 C 14,0 C 1,6 km/h (1 Bft) 100,00 %
23.04.2016 18:28 14,0 C 65 % 1001,8 hPa 0,0 l/m 0,0 km/h (0 Bft) NW 306 0 min 0,000 mm 0,0 UV-I 43 W/m 7,5 C 14,0 C 0,0 km/h (0 Bft) 100,00 %
23.04.2016 18:29 14,0 C 66 % 1001,8 hPa 0,0 l/m 0,5 km/h (0 Bft) NW 306 0 min 0,000 mm 0,0 UV-I 42 W/m 7,7 C 14,0 C 1,6 km/h (1 Bft) 100,00 %
23.04.2016 18:30 13,9 C 67 % 1001,8 hPa 0,0 l/m 0,4 km/h (0 Bft) NW 306 0 min 0,000 mm 0,0 UV-I 42 W/m 7,9 C 13,9 C 1,6 km/h (1 Bft) 100,00 %
23.04.2016 18:31 13,9 C 64 % 1001,8 hPa 0,0 l/m 0,2 km/h (0 Bft) NW 306 0 min 0,000 mm 0,0 UV-I 40 W/m 7,2 C 13,9 C 1,6 km/h (1 Bft) 100,00 %
23.04.2016 18:32 13,9 C 64 % 1001,8 hPa 0,0 l/m 0,7 km/h (0 Bft) NW 306 0 min 0,000 mm 0,0 UV-I 40 W/m 7,2 C 13,9 C 1,6 km/h (1 Bft) 100,00 %
23.04.2016 18:33 13,9 C 67 % 1001,7 hPa 0,0 l/m 0,2 km/h (0 Bft) NW 306 0 min 0,000 mm 0,0 UV-I 40 W/m 7,9 C 13,9 C 1,6 km/h (1 Bft) 100,00 %
23.04.2016 18:34 13,9 C 67 % 1001,7 hPa 0,0 l/m 0,9 km/h (0 Bft) NW 306 0 min 0,000 mm 0,0 UV-I 39 W/m 7,9 C 13,9 C 1,6 km/h (1 Bft) 100,00 %
23.04.2016 18:35 13,9 C 66 % 1001,7 hPa 0,0 l/m 0,5 km/h (0 Bft) NW 306 0 min 0,000 mm 0,0 UV-I 39 W/m 7,7 C 13,9 C 1,6 km/h (1 Bft) 100,00 %
23.04.2016 18:36 13,8 C 65 % 1001,7 hPa 0,0 l/m 0,1 km/h (0 Bft) NW 306 0 min 0,000 mm 0,0 UV-I 39 W/m 7,3 C 13,8 C 1,6 km/h (1 Bft) 91,67 %
23.04.2016 18:37 13,8 C 67 % 1001,7 hPa 0,0 l/m 1,5 km/h (1 Bft) NW 306 0 min 0,000 mm 0,0 UV-I 39 W/m 7,8 C 13,8 C 3,2 km/h (1 Bft) 100,00 %
23.04.2016 18:38 13,8 C 67 % 1001,7 hPa 0,0 l/m 3,5 km/h (1 Bft) W 259 0 min 0,000 mm 0,0 UV-I 39 W/m 7,8 C 13,8 C 9,7 km/h (2 Bft) 100,00 %
23.04.2016 18:39 13,8 C 67 % 1001,7 hPa 0,0 l/m 4,2 km/h (1 Bft) SW 233 0 min 0,000 mm 0,0 UV-I 39 W/m 7,8 C 13,8 C 8,0 km/h (2 Bft) 100,00 %
23.04.2016 18:40 13,8 C 68 % 1001,7 hPa 0,0 l/m 0,7 km/h (0 Bft) SW 233 0 min 0,000 mm 0,0 UV-I 40 W/m 8,0 C 13,8 C 3,2 km/h (1 Bft) 100,00 %
23.04.2016 18:41 13,8 C 67 % 1001,7 hPa 0,0 l/m 0,2 km/h (0 Bft) W-SW 242 0 min 0,000 mm 0,0 UV-I 40 W/m 7,8 C 13,8 C 1,6 km/h (1 Bft) 100,00 %
23.04.2016 18:42 13,7 C 67 % 1001,7 hPa 0,0 l/m 0,0 km/h (0 Bft) W-SW 242 0 min 0,000 mm 0,0 UV-I 40 W/m 7,7 C 13,7 C 0,0 km/h (0 Bft) 100,00 %
23.04.2016 18:43 13,7 C 68 % 1001,7 hPa 0,0 l/m 0,6 km/h (0 Bft) W-SW 242 0 min 0,000 mm 0,0 UV-I 40 W/m 7,9 C 13,7 C 1,6 km/h (1 Bft) 100,00 %
23.04.2016 18:44 13,7 C 68 % 1001,6 hPa 0,0 l/m 2,3 km/h (1 Bft) NW 308 0 min 0,000 mm 0,0 UV-I 40 W/m 7,9 C 13,7 C 3,2 km/h (1 Bft) 100,00 %
23.04.2016 18:45 13,7 C 67 % 1001,7 hPa 0,0 l/m 0,4 km/h (0 Bft) NW 308 0 min 0,000 mm 0,0 UV-I 40 W/m 7,7 C 13,7 C 1,6 km/h (1 Bft) 95,83 %
23.04.2016 18:46 13,7 C 68 % 1001,6 hPa 0,0 l/m 0,5 km/h (0 Bft) NW 308 0 min 0,000 mm 0,0 UV-I 40 W/m 7,9 C 13,7 C 1,6 km/h (1 Bft) 100,00 %
23.04.2016 18:47 13,7 C 68 % 1001,6 hPa 0,0 l/m 2,2 km/h (1 Bft) NW 313 0 min 0,000 mm 0,0 UV-I 40 W/m 7,9 C 13,7 C 4,8 km/h (1 Bft) 100,00 %
23.04.2016 18:48 13,6 C 69 % 1001,6 hPa 0,0 l/m 1,9 km/h (1 Bft) W-NW 296 0 min 0,000 mm 0,0 UV-I 40 W/m 8,0 C 13,6 C 3,2 km/h (1 Bft) 100,00 %
23.04.2016 18:49 13,7 C 69 % 1001,6 hPa 0,0 l/m 0,9 km/h (0 Bft) NW 317 0 min 0,000 mm 0,0 UV-I 40 W/m 8,1 C 13,7 C 4,8 km/h (1 Bft) 100,00 %
23.04.2016 18:50 13,6 C 69 % 1001,6 hPa 0,0 l/m 1,1 km/h (1 Bft) NW 313 0 min 0,000 mm 0,0 UV-I 40 W/m 8,0 C 13,6 C 3,2 km/h (1 Bft) 96,15 %
23.04.2016 18:51 13,6 C 68 % 1001,6 hPa 0,0 l/m 2,1 km/h (1 Bft) N-NW 329 0 min 0,000 mm 0,0 UV-I 40 W/m 7,8 C 13,6 C 3,2 km/h (1 Bft) 100,00 %
23.04.2016 18:52 13,6 C 69 % 1001,6 hPa 0,0 l/m 1,0 km/h (0 Bft) N-NW 329 0 min 0,000 mm 0,0 UV-I 41 W/m 8,0 C 13,6 C 1,6 km/h (1 Bft) 100,00 %
23.04.2016 18:53 13,5 C 69 % 1001,6 hPa 0,0 l/m 1,0 km/h (0 Bft) W-NW 296 0 min 0,000 mm 0,0 UV-I 40 W/m 7,9 C 13,5 C 3,2 km/h (1 Bft) 100,00 %
23.04.2016 18:54 13,5 C 69 % 1001,6 hPa 0,0 l/m 0,9 km/h (0 Bft) W-NW 296 0 min 0,000 mm 0,0 UV-I 40 W/m 7,9 C 13,5 C 1,6 km/h (1 Bft) 100,00 %
23.04.2016 18:55 13,5 C 69 % 1001,6 hPa 0,0 l/m 0,5 km/h (0 Bft) W-NW 296 0 min 0,000 mm 0,0 UV-I 40 W/m 7,9 C 13,5 C 1,6 km/h (1 Bft) 100,00 %
23.04.2016 18:56 13,5 C 69 % 1001,6 hPa 0,0 l/m 0,1 km/h (0 Bft) W-NW 296 0 min 0,000 mm 0,0 UV-I 40 W/m 7,9 C 13,5 C 1,6 km/h (1 Bft) 100,00 %
23.04.2016 18:57 13,4 C 72 % 1001,6 hPa 0,0 l/m 0,5 km/h (0 Bft) W-NW 296 0 min 0,000 mm 0,0 UV-I 40 W/m 8,5 C 13,4 C 1,6 km/h (1 Bft) 95,65 %
23.04.2016 18:58 13,4 C 70 % 1001,6 hPa 0,0 l/m 0,4 km/h (0 Bft) W-NW 296 0 min 0,000 mm 0,0 UV-I 40 W/m 8,0 C 13,4 C 1,6 km/h (1 Bft) 100,00 %
23.04.2016 18:59 13,4 C 69 % 1001,6 hPa 0,0 l/m 1,4 km/h (1 Bft) W-NW 300 0 min 0,000 mm 0,0 UV-I 40 W/m 7,8 C 13,4 C 3,2 km/h (1 Bft) 95,65 %
23.04.2016 19:00 13,3 C 70 % 1001,6 hPa 0,0 l/m 1,4 km/h (1 Bft) W-NW 300 0 min 0,000 mm 0,0 UV-I 40 W/m 7,9 C 13,3 C 3,2 km/h (1 Bft) 100,00 %
23.04.2016 19:02 13,3 C 70 % 1001,6 hPa 0,0 l/m 1,0 km/h (0 Bft) W-NW 300 0 min 0,025 mm 0,0 UV-I 39 W/m 7,9 C 13,3 C 1,6 km/h (1 Bft) 96,23 %
23.04.2016 19:03 13,3 C 71 % 1001,6 hPa 0,0 l/m 1,0 km/h (0 Bft) W-NW 300 0 min 0,000 mm 0,0 UV-I 39 W/m 8,2 C 13,3 C 1,6 km/h (1 Bft) 96,15 %
23.04.2016 19:04 13,3 C 71 % 1001,6 hPa 0,0 l/m 0,9 km/h (0 Bft) NW 304 0 min 0,000 mm 0,0 UV-I 39 W/m 8,2 C 13,3 C 3,2 km/h (1 Bft) 95,83 %
23.04.2016 19:05 13,3 C 71 % 1001,6 hPa 0,0 l/m 1,1 km/h (1 Bft) NW 304 0 min 0,000 mm 0,0 UV-I 39 W/m 8,2 C 13,3 C 1,6 km/h (1 Bft) 100,00 %
23.04.2016 19:06 13,2 C 70 % 1001,6 hPa 0,0 l/m 0,1 km/h (0 Bft) NW 304 0 min 0,000 mm 0,0 UV-I 37 W/m 7,9 C 13,2 C 1,6 km/h (1 Bft) 96,30 %
23.04.2016 19:07 13,2 C 71 % 1001,6 hPa 0,0 l/m 0,3 km/h (0 Bft) NW 304 0 min 0,000 mm 0,0 UV-I 37 W/m 8,1 C 13,2 C 1,6 km/h (1 Bft) 100,00 %
23.04.2016 19:08 13,2 C 72 % 1001,6 hPa 0,0 l/m 1,9 km/h (1 Bft) NW 305 0 min 0,000 mm 0,0 UV-I 38 W/m 8,3 C 13,2 C 3,2 km/h (1 Bft) 95,83 %
23.04.2016 19:09 13,2 C 71 % 1001,6 hPa 0,0 l/m 1,0 km/h (0 Bft) NW 305 0 min 0,000 mm 0,0 UV-I 39 W/m 8,1 C 13,2 C 1,6 km/h (1 Bft) 100,00 %
23.04.2016 19:10 13,2 C 71 % 1001,6 hPa 0,0 l/m 0,2 km/h (0 Bft) NW 305 0 min 0,000 mm 0,0 UV-I 40 W/m 8,1 C 13,2 C 1,6 km/h (1 Bft) 96,55 %
23.04.2016 19:11 13,2 C 70 % 1001,7 hPa 0,0 l/m 0,0 km/h (0 Bft) NW 305 0 min 0,000 mm 0,0 UV-I 40 W/m 7,9 C 13,2 C 0,0 km/h (0 Bft) 100,00 %
23.04.2016 19:12 13,2 C 73 % 1001,6 hPa 0,0 l/m 0,7 km/h (0 Bft) NW 305 0 min 0,000 mm 0,0 UV-I 42 W/m 8,5 C 13,2 C 1,6 km/h (1 Bft) 96,55 %
23.04.2016 19:13 13,2 C 73 % 1001,7 hPa 0,0 l/m 0,1 km/h (0 Bft) NW 305 0 min 0,000 mm 0,0 UV-I 44 W/m 8,5 C 13,2 C 1,6 km/h (1 Bft) 95,83 %
23.04.2016 19:14 13,2 C 72 % 1001,6 hPa 0,0 l/m 0,0 km/h (0 Bft) NW 305 0 min 0,000 mm 0,0 UV-I 45 W/m 8,3 C 13,2 C 0,0 km/h (0 Bft) 95,65 %
23.04.2016 19:15 13,2 C 71 % 1001,6 hPa 0,0 l/m 0,0 km/h (0 Bft) NW 305 0 min 0,000 mm 0,0 UV-I 47 W/m 8,1 C 13,2 C 0,0 km/h (0 Bft) 95,83 %
23.04.2016 19:16 13,2 C 73 % 1001,6 hPa 0,0 l/m 0,0 km/h (0 Bft) NW 305 0 min 0,000 mm 0,0 UV-I 47 W/m 8,5 C 13,2 C 0,0 km/h (0 Bft) 100,00 %
23.04.2016 19:17 13,2 C 72 % 1001,6 hPa 0,0 l/m 0,0 km/h (0 Bft) NW 305 0 min 0,000 mm 0,0 UV-I 46 W/m 8,3 C 13,2 C 0,0 km/h (0 Bft) 95,83 %
23.04.2016 19:18 13,2 C 72 % 1001,6 hPa 0,0 l/m 0,1 km/h (0 Bft) NW 305 0 min 0,000 mm 0,0 UV-I 44 W/m 8,3 C 13,2 C 1,6 km/h (1 Bft) 100,00 %
23.04.2016 19:19 13,2 C 71 % 1001,6 hPa 0,0 l/m 0,0 km/h (0 Bft) NW 305 0 min 0,000 mm 0,0 UV-I 41 W/m 8,1 C 13,2 C 0,0 km/h (0 Bft) 95,83 %
23.04.2016 19:20 13,2 C 72 % 1001,6 hPa 0,0 l/m 0,0 km/h (0 Bft) NW 315 0 min 0,000 mm 0,0 UV-I 43 W/m 8,3 C 13,2 C 1,6 km/h (1 Bft) 100,00 %
23.04.2016 19:26 13,2 C 72 % 1001,7 hPa 0,0 l/m 0,0 km/h (0 Bft) NW 305 0 min 0,000 mm 0,0 UV-I 33 W/m 8,3 C 13,2 C 0,0 km/h (0 Bft) 96,32 %
23.04.2016 19:27 13,2 C 71 % 1001,6 hPa 0,0 l/m 0,2 km/h (0 Bft) NW 305 0 min 0,000 mm 0,0 UV-I 25 W/m 8,1 C 13,2 C 1,6 km/h (1 Bft) 100,00 %
23.04.2016 19:28 13,2 C 71 % 1001,6 hPa 0,0 l/m 0,0 km/h (0 Bft) NW 305 0 min 0,000 mm 0,0 UV-I 25 W/m 8,1 C 13,2 C 0,0 km/h (0 Bft) 93,33 %
23.04.2016 19:29 13,2 C 70 % 1001,6 hPa 0,0 l/m 0,0 km/h (0 Bft) NW 305 0 min 0,000 mm 0,0 UV-I 23 W/m 7,9 C 13,2 C 0,0 km/h (0 Bft) 100,00 %
23.04.2016 19:30 13,2 C 71 % 1001,6 hPa 0,0 l/m 0,0 km/h (0 Bft) NW 305 0 min 0,000 mm 0,0 UV-I 22 W/m 8,1 C 13,2 C 0,0 km/h (0 Bft) 96,30 %
23.04.2016 19:31 13,2 C 71 % 1001,6 hPa 0,0 l/m 0,0 km/h (0 Bft) NW 305 0 min 0,000 mm 0,0 UV-I 21 W/m 8,1 C 13,2 C 0,0 km/h (0 Bft) 98,49 %
23.04.2016 19:32 13,2 C 70 % 1001,6 hPa 0,0 l/m 0,1 km/h (0 Bft) NW 305 0 min 0,000 mm 0,0 UV-I 21 W/m 7,9 C 13,2 C 1,6 km/h (1 Bft) 100,00 %
23.04.2016 19:33 13,2 C 69 % 1001,6 hPa 0,0 l/m 0,0 km/h (0 Bft) NW 305 0 min 0,000 mm 0,0 UV-I 20 W/m 7,6 C 13,2 C 0,0 km/h (0 Bft) 95,83 %
23.04.2016 19:34 13,2 C 70 % 1001,6 hPa 0,0 l/m 0,0 km/h (0 Bft) NW 305 0 min 0,000 mm 0,0 UV-I 19 W/m 7,9 C 13,2 C 0,0 km/h (0 Bft) 100,00 %
23.04.2016 19:35 13,2 C 70 % 1001,6 hPa 0,0 l/m 0,0 km/h (0 Bft) NW 305 0 min 0,000 mm 0,0 UV-I 18 W/m 7,9 C 13,2 C 0,0 km/h (0 Bft) 100,00 %
23.04.2016 19:36 13,1 C 70 % 1001,6 hPa 0,0 l/m 0,0 km/h (0 Bft) NW 305 0 min 0,000 mm 0,0 UV-I 16 W/m 7,8 C 13,1 C 0,0 km/h (0 Bft) 96,15 %
23.04.2016 19:37 13,1 C 71 % 1001,6 hPa 0,0 l/m 0,0 km/h (0 Bft) NW 305 0 min 0,000 mm 0,0 UV-I 16 W/m 8,0 C 13,1 C 0,0 km/h (0 Bft) 95,83 %
23.04.2016 19:38 13,1 C 71 % 1001,6 hPa 0,0 l/m 0,0 km/h (0 Bft) NW 305 0 min 0,000 mm 0,0 UV-I 15 W/m 8,0 C 13,1 C 0,0 km/h (0 Bft) 100,00 %
23.04.2016 19:39 13,1 C 70 % 1001,6 hPa 0,0 l/m 0,0 km/h (0 Bft) NW 305 0 min 0,000 mm 0,0 UV-I 14 W/m 7,8 C 13,1 C 0,0 km/h (0 Bft) 95,83 %
23.04.2016 19:40 13,1 C 70 % 1001,6 hPa 0,0 l/m 0,0 km/h (0 Bft) NW 305 0 min 0,000 mm 0,0 UV-I 14 W/m 7,8 C 13,1 C 0,0 km/h (0 Bft) 100,00 %
23.04.2016 19:41 13,1 C 70 % 1001,6 hPa 0,0 l/m 0,5 km/h (0 Bft) NW 305 0 min 0,000 mm 0,0 UV-I 14 W/m 7,8 C 13,1 C 1,6 km/h (1 Bft) 100,00 %
23.04.2016 19:42 13,1 C 70 % 1001,6 hPa 0,0 l/m 0,3 km/h (0 Bft) NW 305 0 min 0,000 mm 0,0 UV-I 14 W/m 7,8 C 13,1 C 1,6 km/h (1 Bft) 95,65 %
23.04.2016 19:43 13,1 C 70 % 1001,6 hPa 0,0 l/m 0,0 km/h (0 Bft) NW 305 0 min 0,000 mm 0,0 UV-I 13 W/m 7,8 C 13,1 C 0,0 km/h (0 Bft) 100,00 %
23.04.2016 19:44 13,1 C 70 % 1001,6 hPa 0,0 l/m 1,3 km/h (1 Bft) NW 305 0 min 0,000 mm 0,0 UV-I 12 W/m 7,8 C 13,1 C 1,6 km/h (1 Bft) 100,00 %
23.04.2016 19:45 13,1 C 70 % 1001,6 hPa 0,0 l/m 0,2 km/h (0 Bft) NW 305 0 min 0,000 mm 0,0 UV-I 12 W/m 7,8 C 13,1 C 1,6 km/h (1 Bft) 100,00 %
23.04.2016 19:46 13,1 C 70 % 1001,6 hPa 0,0 l/m 0,0 km/h (0 Bft) NW 305 0 min 0,000 mm 0,0 UV-I 12 W/m 7,8 C 13,1 C 0,0 km/h (0 Bft) 100,00 %
23.04.2016 19:47 13,1 C 70 % 1001,6 hPa 0,0 l/m 0,0 km/h (0 Bft) NW 305 0 min 0,000 mm 0,0 UV-I 11 W/m 7,8 C 13,1 C 0,0 km/h (0 Bft) 100,00 %
23.04.2016 19:48 13,1 C 70 % 1001,6 hPa 0,0 l/m 0,0 km/h (0 Bft) NW 305 0 min 0,000 mm 0,0 UV-I 11 W/m 7,8 C 13,1 C 0,0 km/h (0 Bft) 100,00 %
23.04.2016 19:49 13,1 C 70 % 1001,7 hPa 0,0 l/m 0,0 km/h (0 Bft) NW 305 0 min 0,000 mm 0,0 UV-I 10 W/m 7,8 C 13,1 C 0,0 km/h (0 Bft) 95,83 %
23.04.2016 19:50 13,1 C 69 % 1001,7 hPa 0,0 l/m 0,0 km/h (0 Bft) NW 305 0 min 0,000 mm 0,0 UV-I 9 W/m 7,5 C 13,1 C 0,0 km/h (0 Bft) 100,00 %
23.04.2016 19:51 13,1 C 71 % 1001,7 hPa 0,0 l/m 0,0 km/h (0 Bft) NW 305 0 min 0,000 mm 0,0 UV-I 8 W/m 8,0 C 13,1 C 0,0 km/h (0 Bft) 100,00 %
23.04.2016 19:52 13,1 C 69 % 1001,7 hPa 0,0 l/m 0,0 km/h (0 Bft) NW 305 0 min 0,000 mm 0,0 UV-I 7 W/m 7,5 C 13,1 C 0,0 km/h (0 Bft) 100,00 %
23.04.2016 19:53 13,1 C 69 % 1001,7 hPa 0,0 l/m 0,0 km/h (0 Bft) NW 305 0 min 0,000 mm 0,0 UV-I 7 W/m 7,5 C 13,1 C 0,0 km/h (0 Bft) 100,00 %
23.04.2016 19:54 13,1 C 69 % 1001,6 hPa 0,0 l/m 0,0 km/h (0 Bft) NW 305 0 min 0,000 mm 0,0 UV-I 5 W/m 7,5 C 13,1 C 0,0 km/h (0 Bft) 100,00 %
23.04.2016 19:55 13,1 C 69 % 1001,6 hPa 0,0 l/m 0,0 km/h (0 Bft) NW 305 0 min 0,000 mm 0,0 UV-I 5 W/m 7,5 C 13,1 C 0,0 km/h (0 Bft) 100,00 %
23.04.2016 19:56 13,1 C 69 % 1001,7 hPa 0,0 l/m 0,0 km/h (0 Bft) NW 305 0 min 0,000 mm 0,0 UV-I 5 W/m 7,5 C 13,1 C 0,0 km/h (0 Bft) 100,00 %
23.04.2016 19:57 13,1 C 69 % 1001,7 hPa 0,0 l/m 0,0 km/h (0 Bft) NW 305 0 min 0,000 mm 0,0 UV-I 2 W/m 7,5 C 13,1 C 0,0 km/h (0 Bft) 100,00 %
23.04.2016 19:58 13,1 C 69 % 1001,7 hPa 0,0 l/m 0,0 km/h (0 Bft) NW 305 0 min 0,000 mm 0,0 UV-I 0 W/m 7,5 C 13,1 C 0,0 km/h (0 Bft) 100,00 %
23.04.2016 19:59 13,1 C 69 % 1001,6 hPa 0,0 l/m 0,0 km/h (0 Bft) NW 305 0 min 0,000 mm 0,0 UV-I 0 W/m 7,5 C 13,1 C 0,0 km/h (0 Bft) 100,00 %
23.04.2016 20:00 13,1 C 69 % 1001,6 hPa 0,0 l/m 0,0 km/h (0 Bft) NW 305 0 min 0,000 mm 0,0 UV-I 0 W/m 7,5 C 13,1 C 0,0 km/h (0 Bft) 100,00 %
23.04.2016 20:01 13,1 C 69 % 1001,7 hPa 0,0 l/m 0,0 km/h (0 Bft) NW 305 0 min 0,026 mm 0,0 UV-I 0 W/m 7,5 C 13,1 C 0,0 km/h (0 Bft) 96,15 %
23.04.2016 20:02 13,1 C 72 % 1001,6 hPa 0,0 l/m 0,0 km/h (0 Bft) NW 305 0 min 0,000 mm 0,0 UV-I 0 W/m 8,2 C 13,1 C 0,0 km/h (0 Bft) 100,00 %
23.04.2016 20:03 13,0 C 73 % 1001,6 hPa 0,0 l/m 0,0 km/h (0 Bft) NW 305 0 min 0,000 mm 0,0 UV-I 0 W/m 8,3 C 13,0 C 0,0 km/h (0 Bft) 100,00 %
23.04.2016 20:04 12,9 C 75 % 1001,6 hPa 0,0 l/m 0,1 km/h (0 Bft) NW 305 0 min 0,000 mm 0,0 UV-I 0 W/m 8,6 C 12,9 C 1,6 km/h (1 Bft) 100,00 %
23.04.2016 20:05 12,8 C 77 % 1001,6 hPa 0,0 l/m 1,0 km/h (0 Bft) NW 305 0 min 0,000 mm 0,0 UV-I 0 W/m 8,9 C 12,8 C 1,6 km/h (1 Bft) 100,00 %
23.04.2016 20:06 12,7 C 78 % 1001,6 hPa 0,0 l/m 0,6 km/h (0 Bft) NW 305 0 min 0,000 mm 0,0 UV-I 0 W/m 9,0 C 12,7 C 1,6 km/h (1 Bft) 100,00 %
23.04.2016 20:07 12,7 C 78 % 1001,6 hPa 0,0 l/m 0,7 km/h (0 Bft) NW 305 0 min 0,000 mm 0,0 UV-I 0 W/m 9,0 C 12,7 C 1,6 km/h (1 Bft) 100,00 %
23.04.2016 20:08 12,6 C 80 % 1001,6 hPa 0,0 l/m 0,3 km/h (0 Bft) NW 305 0 min 0,000 mm 0,0 UV-I 0 W/m 9,2 C 12,6 C 1,6 km/h (1 Bft) 100,00 %
23.04.2016 20:09 12,5 C 80 % 1001,6 hPa 0,0 l/m 0,1 km/h (0 Bft) NW 305 0 min 0,000 mm 0,0 UV-I 0 W/m 9,1 C 12,5 C 1,6 km/h (1 Bft) 100,00 %
23.04.2016 20:10 12,5 C 80 % 1001,6 hPa 0,0 l/m 0,4 km/h (0 Bft) NW 305 0 min 0,000 mm 0,0 UV-I 0 W/m 9,1 C 12,5 C 1,6 km/h (1 Bft) 100,00 %
23.04.2016 20:11 12,4 C 80 % 1001,6 hPa 0,0 l/m 0,2 km/h (0 Bft) NW 305 0 min 0,000 mm 0,0 UV-I 0 W/m 9,0 C 12,4 C 1,6 km/h (1 Bft) 100,00 %
23.04.2016 20:12 12,4 C 80 % 1001,6 hPa 0,0 l/m 0,0 km/h (0 Bft) NW 305 0 min 0,000 mm 0,0 UV-I 0 W/m 9,0 C 12,4 C 0,0 km/h (0 Bft) 100,00 %
23.04.2016 20:13 12,4 C 79 % 1001,6 hPa 0,0 l/m 0,0 km/h (0 Bft) NW 305 0 min 0,000 mm 0,0 UV-I 0 W/m 8,9 C 12,4 C 0,0 km/h (0 Bft) 100,00 %
23.04.2016 20:14 12,4 C 79 % 1001,6 hPa 0,0 l/m 0,0 km/h (0 Bft) NW 305 0 min 0,000 mm 0,0 UV-I 0 W/m 8,9 C 12,4 C 0,0 km/h (0 Bft) 100,00 %
23.04.2016 20:15 12,4 C 80 % 1001,6 hPa 0,0 l/m 0,0 km/h (0 Bft) NW 305 0 min 0,000 mm 0,0 UV-I 0 W/m 9,0 C 12,4 C 0,0 km/h (0 Bft) 100,00 %
23.04.2016 20:16 12,4 C 79 % 1001,6 hPa 0,0 l/m 0,0 km/h (0 Bft) NW 305 0 min 0,000 mm 0,0 UV-I 0 W/m 8,9 C 12,4 C 0,0 km/h (0 Bft) 100,00 %
23.04.2016 20:17 12,4 C 80 % 1001,6 hPa 0,0 l/m 0,0 km/h (0 Bft) NW 305 0 min 0,000 mm 0,0 UV-I 0 W/m 9,0 C 12,4 C 0,0 km/h (0 Bft) 100,00 %
23.04.2016 20:18 12,4 C 79 % 1001,6 hPa 0,0 l/m 0,0 km/h (0 Bft) NW 305 0 min 0,000 mm 0,0 UV-I 0 W/m 8,9 C 12,4 C 0,0 km/h (0 Bft) 100,00 %
23.04.2016 20:19 12,4 C 79 % 1001,6 hPa 0,0 l/m 0,0 km/h (0 Bft) NW 305 0 min 0,000 mm 0,0 UV-I 0 W/m 8,9 C 12,4 C 0,0 km/h (0 Bft) 100,00 %
23.04.2016 20:20 12,4 C 79 % 1001,6 hPa 0,0 l/m 0,0 km/h (0 Bft) NW 305 0 min 0,000 mm 0,0 UV-I 0 W/m 8,9 C 12,4 C 0,0 km/h (0 Bft) 100,00 %
23.04.2016 20:21 12,4 C 78 % 1001,6 hPa 0,0 l/m 0,0 km/h (0 Bft) NW 305 0 min 0,000 mm 0,0 UV-I 0 W/m 8,7 C 12,4 C 0,0 km/h (0 Bft) 100,00 %
23.04.2016 20:22 12,4 C 78 % 1001,5 hPa 0,0 l/m 0,0 km/h (0 Bft) NW 305 0 min 0,000 mm 0,0 UV-I 0 W/m 8,7 C 12,4 C 0,0 km/h (0 Bft) 100,00 %
23.04.2016 20:23 12,3 C 78 % 1001,5 hPa 0,0 l/m 0,0 km/h (0 Bft) NW 305 0 min 0,000 mm 0,0 UV-I 0 W/m 8,6 C 12,3 C 0,0 km/h (0 Bft) 100,00 %
23.04.2016 20:24 12,3 C 78 % 1001,6 hPa 0,0 l/m 0,1 km/h (0 Bft) NW 305 0 min 0,000 mm 0,0 UV-I 0 W/m 8,6 C 12,3 C 1,6 km/h (1 Bft) 100,00 %
23.04.2016 20:25 12,3 C 78 % 1001,5 hPa 0,0 l/m 0,1 km/h (0 Bft) NW 305 0 min 0,000 mm 0,0 UV-I 0 W/m 8,6 C 12,3 C 1,6 km/h (1 Bft) 91,67 %
23.04.2016 20:26 12,2 C 78 % 1001,5 hPa 0,0 l/m 0,0 km/h (0 Bft) NW 305 0 min 0,000 mm 0,0 UV-I 0 W/m 8,5 C 12,2 C 0,0 km/h (0 Bft) 95,65 %
23.04.2016 20:27 12,2 C 78 % 1001,5 hPa 0,0 l/m 0,1 km/h (0 Bft) NW 305 0 min 0,000 mm 0,0 UV-I 0 W/m 8,5 C 12,2 C 1,6 km/h (1 Bft) 100,00 %
23.04.2016 20:28 12,2 C 78 % 1001,5 hPa 0,0 l/m 0,8 km/h (0 Bft) NW 305 0 min 0,000 mm 0,0 UV-I 0 W/m 8,5 C 12,2 C 1,6 km/h (1 Bft) 100,00 %
23.04.2016 20:29 12,2 C 77 % 1001,6 hPa 0,0 l/m 0,7 km/h (0 Bft) NW 305 0 min 0,000 mm 0,0 UV-I 0 W/m 8,3 C 12,2 C 1,6 km/h (1 Bft) 96,30 %
23.04.2016 20:30 12,1 C 76 % 1001,6 hPa 0,0 l/m 0,5 km/h (0 Bft) NW 305 0 min 0,000 mm 0,0 UV-I 0 W/m 8,0 C 12,1 C 1,6 km/h (1 Bft) 100,00 %
23.04.2016 20:31 12,1 C 76 % 1001,5 hPa 0,0 l/m 0,2 km/h (0 Bft) NW 305 0 min 0,000 mm 0,0 UV-I 0 W/m 8,0 C 12,1 C 1,6 km/h (1 Bft) 100,00 %
23.04.2016 20:32 12,1 C 77 % 1001,6 hPa 0,0 l/m 1,0 km/h (0 Bft) NW 305 0 min 0,000 mm 0,0 UV-I 0 W/m 8,2 C 12,1 C 1,6 km/h (1 Bft) 100,00 %
23.04.2016 20:33 12,1 C 78 % 1001,6 hPa 0,0 l/m 0,7 km/h (0 Bft) NW 305 0 min 0,000 mm 0,0 UV-I 0 W/m 8,4 C 12,1 C 1,6 km/h (1 Bft) 100,00 %
23.04.2016 20:34 12,1 C 79 % 1001,6 hPa 0,0 l/m 0,2 km/h (0 Bft) NW 305 0 min 0,000 mm 0,0 UV-I 0 W/m 8,6 C 12,1 C 1,6 km/h (1 Bft) 100,00 %
23.04.2016 20:35 12,1 C 79 % 1001,6 hPa 0,0 l/m 0,0 km/h (0 Bft) NW 305 0 min 0,000 mm 0,0 UV-I 0 W/m 8,6 C 12,1 C 0,0 km/h (0 Bft) 100,00 %
23.04.2016 20:36 12,0 C 79 % 1001,7 hPa 0,0 l/m 0,1 km/h (0 Bft) NW 305 0 min 0,000 mm 0,0 UV-I 0 W/m 8,5 C 12,0 C 1,6 km/h (1 Bft) 100,00 %
23.04.2016 20:37 12,1 C 81 % 1001,7 hPa 0,0 l/m 0,0 km/h (0 Bft) NW 305 0 min 0,000 mm 0,0 UV-I 0 W/m 8,9 C 12,1 C 0,0 km/h (0 Bft) 100,00 %
23.04.2016 20:38 12,1 C 81 % 1001,7 hPa 0,0 l/m 0,0 km/h (0 Bft) NW 305 0 min 0,000 mm 0,0 UV-I 0 W/m 8,9 C 12,1 C 0,0 km/h (0 Bft) 100,00 %
23.04.2016 20:39 12,0 C 80 % 1001,7 hPa 0,0 l/m 0,8 km/h (0 Bft) NW 305 0 min 0,000 mm 0,0 UV-I 0 W/m 8,7 C 12,0 C 1,6 km/h (1 Bft) 100,00 %
23.04.2016 20:40 12,1 C 77 % 1001,7 hPa 0,0 l/m 1,0 km/h (0 Bft) NW 305 0 min 0,000 mm 0,0 UV-I 0 W/m 8,2 C 12,1 C 1,6 km/h (1 Bft) 100,00 %
23.04.2016 20:41 12,1 C 77 % 1001,7 hPa 0,0 l/m 1,3 km/h (1 Bft) NW 305 0 min 0,000 mm 0,0 UV-I 0 W/m 8,2 C 12,1 C 1,6 km/h (1 Bft) 100,00 %
23.04.2016 20:42 12,2 C 77 % 1001,7 hPa 0,0 l/m 1,6 km/h (1 Bft) NW 305 0 min 0,000 mm 0,0 UV-I 0 W/m 8,3 C 12,2 C 1,6 km/h (1 Bft) 100,00 %
23.04.2016 20:43 12,2 C 77 % 1001,7 hPa 0,0 l/m 1,8 km/h (1 Bft) NW 305 0 min 0,000 mm 0,0 UV-I 0 W/m 8,3 C 12,2 C 3,2 km/h (1 Bft) 95,65 %
23.04.2016 20:44 12,2 C 77 % 1001,7 hPa 0,0 l/m 1,7 km/h (1 Bft) NW 305 0 min 0,000 mm 0,0 UV-I 0 W/m 8,3 C 12,2 C 3,2 km/h (1 Bft) 100,00 %
23.04.2016 20:45 12,2 C 77 % 1001,7 hPa 0,0 l/m 1,9 km/h (1 Bft) NW 305 0 min 0,000 mm 0,0 UV-I 0 W/m 8,3 C 12,2 C 3,2 km/h (1 Bft) 100,00 %
23.04.2016 20:46 12,3 C 78 % 1001,7 hPa 0,0 l/m 1,4 km/h (1 Bft) NW 304 0 min 0,000 mm 0,0 UV-I 0 W/m 8,6 C 12,3 C 3,2 km/h (1 Bft) 95,83 %
23.04.2016 20:47 12,3 C 77 % 1001,7 hPa 0,0 l/m 2,6 km/h (1 Bft) W 280 0 min 0,000 mm 0,0 UV-I 0 W/m 8,4 C 12,3 C 3,2 km/h (1 Bft) 100,00 %
23.04.2016 20:48 12,3 C 77 % 1001,7 hPa 0,0 l/m 1,4 km/h (1 Bft) W 279 0 min 0,000 mm 0,0 UV-I 0 W/m 8,4 C 12,3 C 3,2 km/h (1 Bft) 100,00 %
23.04.2016 20:49 12,3 C 77 % 1001,7 hPa 0,0 l/m 1,0 km/h (0 Bft) W 278 0 min 0,000 mm 0,0 UV-I 0 W/m 8,4 C 12,3 C 1,6 km/h (1 Bft) 100,00 %
23.04.2016 20:50 12,2 C 78 % 1001,7 hPa 0,0 l/m 0,4 km/h (0 Bft) W 278 0 min 0,000 mm 0,0 UV-I 0 W/m 8,5 C 12,2 C 1,6 km/h (1 Bft) 95,83 %
23.04.2016 20:51 12,2 C 79 % 1001,7 hPa 0,0 l/m 0,3 km/h (0 Bft) W 278 0 min 0,000 mm 0,0 UV-I 0 W/m 8,7 C 12,2 C 1,6 km/h (1 Bft) 100,00 %
23.04.2016 20:52 12,1 C 78 % 1001,7 hPa 0,0 l/m 0,1 km/h (0 Bft) W 278 0 min 0,000 mm 0,0 UV-I 0 W/m 8,4 C 12,1 C 1,6 km/h (1 Bft) 100,00 %
23.04.2016 20:53 12,1 C 79 % 1001,7 hPa 0,0 l/m 0,4 km/h (0 Bft) W 278 0 min 0,000 mm 0,0 UV-I 0 W/m 8,6 C 12,1 C 1,6 km/h (1 Bft) 100,00 %
23.04.2016 20:54 12,0 C 79 % 1001,6 hPa 0,0 l/m 0,6 km/h (0 Bft) W 278 0 min 0,000 mm 0,0 UV-I 0 W/m 8,5 C 12,0 C 1,6 km/h (1 Bft) 100,00 %
23.04.2016 20:55 11,9 C 78 % 1001,7 hPa 0,0 l/m 0,2 km/h (0 Bft) W 278 0 min 0,000 mm 0,0 UV-I 0 W/m 8,2 C 11,9 C 1,6 km/h (1 Bft) 100,00 %
23.04.2016 20:56 11,9 C 79 % 1001,7 hPa 0,0 l/m 0,2 km/h (0 Bft) W 278 0 min 0,000 mm 0,0 UV-I 0 W/m 8,4 C 11,9 C 1,6 km/h (1 Bft) 100,00 %
23.04.2016 20:57 11,9 C 79 % 1001,7 hPa 0,0 l/m 0,2 km/h (0 Bft) W 278 0 min 0,000 mm 0,0 UV-I 0 W/m 8,4 C 11,9 C 1,6 km/h (1 Bft) 96,30 %
23.04.2016 20:58 11,9 C 78 % 1001,7 hPa 0,0 l/m 0,1 km/h (0 Bft) W 278 0 min 0,000 mm 0,0 UV-I 0 W/m 8,2 C 11,9 C 1,6 km/h (1 Bft) 100,00 %
23.04.2016 20:59 11,8 C 79 % 1001,7 hPa 0,0 l/m 1,6 km/h (1 Bft) W 278 0 min 0,000 mm 0,0 UV-I 0 W/m 8,3 C 11,8 C 3,2 km/h (1 Bft) 100,00 %
23.04.2016 21:00 11,8 C 79 % 1001,7 hPa 0,0 l/m 3,5 km/h (1 Bft) W 278 0 min 0,000 mm 0,0 UV-I 0 W/m 8,3 C 11,8 C 4,8 km/h (1 Bft) 95,65 %
23.04.2016 21:02 11,9 C 79 % 1001,7 hPa 0,0 l/m 2,7 km/h (1 Bft) W 278 0 min 0,000 mm 0,0 UV-I 0 W/m 8,4 C 11,9 C 4,8 km/h (1 Bft) 95,12 %
23.04.2016 21:03 11,9 C 79 % 1001,7 hPa 0,0 l/m 1,7 km/h (1 Bft) W 278 0 min 0,000 mm 0,0 UV-I 0 W/m 8,4 C 11,9 C 3,2 km/h (1 Bft) 95,83 %
23.04.2016 21:04 11,8 C 79 % 1001,7 hPa 0,0 l/m 1,8 km/h (1 Bft) W 278 0 min 0,000 mm 0,0 UV-I 0 W/m 8,3 C 11,8 C 3,2 km/h (1 Bft) 100,00 %
23.04.2016 21:05 11,8 C 79 % 1001,7 hPa 0,0 l/m 1,1 km/h (1 Bft) W 278 0 min 0,000 mm 0,0 UV-I 0 W/m 8,3 C 11,8 C 1,6 km/h (1 Bft) 95,83 %
23.04.2016 21:06 11,8 C 79 % 1001,7 hPa 0,0 l/m 1,3 km/h (1 Bft) W 278 0 min 0,000 mm 0,0 UV-I 0 W/m 8,3 C 11,8 C 3,2 km/h (1 Bft) 92,31 %
23.04.2016 21:07 11,8 C 79 % 1001,7 hPa 0,0 l/m 0,5 km/h (0 Bft) W 278 0 min 0,000 mm 0,0 UV-I 0 W/m 8,3 C 11,8 C 1,6 km/h (1 Bft) 100,00 %
23.04.2016 21:08 11,8 C 80 % 1001,7 hPa 0,0 l/m 1,5 km/h (1 Bft) W 278 0 min 0,000 mm 0,0 UV-I 0 W/m 8,5 C 11,8 C 3,2 km/h (1 Bft) 98,54 %
23.04.2016 21:09 11,8 C 80 % 1001,7 hPa 0,0 l/m 2,1 km/h (1 Bft) W 278 0 min 0,000 mm 0,0 UV-I 0 W/m 8,5 C 11,8 C 3,2 km/h (1 Bft) 97,37 %
23.04.2016 21:10 11,8 C 79 % 1001,7 hPa 0,0 l/m 3,5 km/h (1 Bft) N-NW 336 0 min 0,000 mm 0,0 UV-I 0 W/m 8,3 C 11,8 C 4,8 km/h (1 Bft) 96,15 %
23.04.2016 21:11 11,8 C 79 % 1001,7 hPa 0,0 l/m 4,3 km/h (1 Bft) O-NO 61 0 min 0,000 mm 0,0 UV-I 0 W/m 8,3 C 11,8 C 6,4 km/h (2 Bft) 100,00 %
23.04.2016 21:12 11,8 C 78 % 1001,7 hPa 0,0 l/m 5,6 km/h (1 Bft) O-NO 63 0 min 0,000 mm 0,0 UV-I 0 W/m 8,1 C 11,8 C 8,0 km/h (2 Bft) 92,31 %
23.04.2016 21:13 11,8 C 77 % 1001,7 hPa 0,0 l/m 5,0 km/h (1 Bft) O-NO 77 0 min 0,000 mm 0,0 UV-I 0 W/m 7,9 C 11,8 C 6,4 km/h (2 Bft) 100,00 %
23.04.2016 21:14 11,8 C 77 % 1001,7 hPa 0,0 l/m 5,5 km/h (1 Bft) O-NO 74 0 min 0,000 mm 0,0 UV-I 0 W/m 7,9 C 11,8 C 8,0 km/h (2 Bft) 96,30 %
23.04.2016 21:15 11,8 C 78 % 1001,7 hPa 0,0 l/m 3,5 km/h (1 Bft) O-NO 78 0 min 0,000 mm 0,0 UV-I 0 W/m 8,1 C 11,8 C 6,4 km/h (2 Bft) 96,55 %
23.04.2016 21:16 11,8 C 78 % 1001,7 hPa 0,0 l/m 3,6 km/h (1 Bft) O 92 0 min 0,000 mm 0,0 UV-I 0 W/m 8,1 C 11,8 C 4,8 km/h (1 Bft) 95,83 %
23.04.2016 21:17 11,8 C 80 % 1001,7 hPa 0,0 l/m 5,1 km/h (1 Bft) O-SO 109 0 min 0,000 mm 0,0 UV-I 0 W/m 8,5 C 11,8 C 6,4 km/h (2 Bft) 95,65 %
23.04.2016 21:18 11,8 C 80 % 1001,7 hPa 0,0 l/m 5,8 km/h (2 Bft) O-SO 104 0 min 0,000 mm 0,0 UV-I 0 W/m 8,5 C 11,8 C 6,4 km/h (2 Bft) 100,00 %
23.04.2016 21:19 11,7 C 80 % 1001,7 hPa 0,0 l/m 4,8 km/h (1 Bft) O-SO 104 0 min 0,000 mm 0,0 UV-I 0 W/m 8,4 C 11,7 C 6,4 km/h (2 Bft) 82,61 %
23.04.2016 21:20 11,7 C 79 % 1001,7 hPa 0,0 l/m 4,4 km/h (1 Bft) O-SO 105 0 min 0,000 mm 0,0 UV-I 0 W/m 8,2 C 11,7 C 4,8 km/h (1 Bft) 100,00 %
23.04.2016 21:21 11,7 C 79 % 1001,7 hPa 0,0 l/m 3,9 km/h (1 Bft) O-SO 107 0 min 0,000 mm 0,0 UV-I 0 W/m 8,2 C 11,7 C 4,8 km/h (1 Bft) 91,30 %
23.04.2016 21:22 11,7 C 79 % 1001,7 hPa 0,0 l/m 3,6 km/h (1 Bft) O-SO 107 0 min 0,000 mm 0,0 UV-I 0 W/m 8,2 C 11,7 C 4,8 km/h (1 Bft) 100,00 %
23.04.2016 21:23 11,7 C 79 % 1001,6 hPa 0,0 l/m 3,8 km/h (1 Bft) O-SO 107 0 min 0,000 mm 0,0 UV-I 0 W/m 8,2 C 11,7 C 4,8 km/h (1 Bft) 96,15 %
23.04.2016 21:24 11,8 C 79 % 1001,7 hPa 0,0 l/m 4,4 km/h (1 Bft) O-SO 110 0 min 0,000 mm 0,0 UV-I 0 W/m 8,3 C 11,8 C 4,8 km/h (1 Bft) 96,30 %
23.04.2016 21:25 11,8 C 79 % 1001,7 hPa 0,0 l/m 3,7 km/h (1 Bft) O-SO 110 0 min 0,000 mm 0,0 UV-I 0 W/m 8,3 C 11,8 C 6,4 km/h (2 Bft) 96,15 %
23.04.2016 21:26 11,8 C 79 % 1001,7 hPa 0,0 l/m 3,0 km/h (1 Bft) O-SO 110 0 min 0,000 mm 0,0 UV-I 0 W/m 8,3 C 11,8 C 4,8 km/h (1 Bft) 100,00 %
23.04.2016 21:27 11,8 C 78 % 1001,7 hPa 0,0 l/m 3,0 km/h (1 Bft) O-SO 110 0 min 0,000 mm 0,0 UV-I 0 W/m 8,1 C 11,8 C 4,8 km/h (1 Bft) 100,00 %
23.04.2016 21:28 11,8 C 78 % 1001,7 hPa 0,0 l/m 2,5 km/h (1 Bft) O-SO 116 0 min 0,000 mm 0,0 UV-I 0 W/m 8,1 C 11,8 C 4,8 km/h (1 Bft) 96,30 %
23.04.2016 21:29 11,9 C 78 % 1001,7 hPa 0,0 l/m 1,5 km/h (1 Bft) O-SO 116 0 min 0,000 mm 0,0 UV-I 0 W/m 8,2 C 11,9 C 3,2 km/h (1 Bft) 95,65 %
23.04.2016 21:30 11,9 C 78 % 1001,7 hPa 0,0 l/m 0,8 km/h (0 Bft) O-SO 116 0 min 0,000 mm 0,0 UV-I 0 W/m 8,2 C 11,9 C 1,6 km/h (1 Bft) 100,00 %
23.04.2016 21:31 12,0 C 78 % 1001,7 hPa 0,0 l/m 1,0 km/h (0 Bft) O-SO 116 0 min 0,000 mm 0,0 UV-I 0 W/m 8,3 C 12,0 C 3,2 km/h (1 Bft) 96,55 %
23.04.2016 21:32 12,0 C 78 % 1001,7 hPa 0,0 l/m 0,8 km/h (0 Bft) O-SO 116 0 min 0,000 mm 0,0 UV-I 0 W/m 8,3 C 12,0 C 1,6 km/h (1 Bft) 96,30 %
23.04.2016 21:33 12,1 C 78 % 1001,7 hPa 0,0 l/m 1,1 km/h (1 Bft) O-SO 116 0 min 0,000 mm 0,0 UV-I 0 W/m 8,4 C 12,1 C 3,2 km/h (1 Bft) 95,65 %
23.04.2016 21:34 12,1 C 78 % 1001,7 hPa 0,0 l/m 1,7 km/h (1 Bft) O-SO 116 0 min 0,000 mm 0,0 UV-I 0 W/m 8,4 C 12,1 C 3,2 km/h (1 Bft) 100,00 %
23.04.2016 21:35 12,1 C 78 % 1001,7 hPa 0,0 l/m 1,7 km/h (1 Bft) O-SO 116 0 min 0,000 mm 0,0 UV-I 0 W/m 8,4 C 12,1 C 3,2 km/h (1 Bft) 100,00 %
23.04.2016 21:36 12,0 C 79 % 1001,7 hPa 0,0 l/m 2,9 km/h (1 Bft) O-SO 116 0 min 0,000 mm 0,0 UV-I 0 W/m 8,5 C 12,0 C 4,8 km/h (1 Bft) 100,00 %
23.04.2016 21:37 12,0 C 79 % 1001,7 hPa 0,0 l/m 2,5 km/h (1 Bft) O-SO 116 0 min 0,000 mm 0,0 UV-I 0 W/m 8,5 C 12,0 C 3,2 km/h (1 Bft) 100,00 %
23.04.2016 21:38 11,9 C 80 % 1001,7 hPa 0,0 l/m 2,4 km/h (1 Bft) O-SO 116 0 min 0,000 mm 0,0 UV-I 0 W/m 8,6 C 11,9 C 3,2 km/h (1 Bft) 100,00 %
23.04.2016 21:39 11,9 C 79 % 1001,6 hPa 0,0 l/m 2,5 km/h (1 Bft) O-SO 116 0 min 0,000 mm 0,0 UV-I 0 W/m 8,4 C 11,9 C 4,8 km/h (1 Bft) 95,83 %
23.04.2016 21:40 11,9 C 80 % 1001,6 hPa 0,0 l/m 1,5 km/h (1 Bft) O-SO 116 0 min 0,000 mm 0,0 UV-I 0 W/m 8,6 C 11,9 C 3,2 km/h (1 Bft) 100,00 %
23.04.2016 21:41 11,8 C 79 % 1001,6 hPa 0,0 l/m 1,7 km/h (1 Bft) O-SO 116 0 min 0,000 mm 0,0 UV-I 0 W/m 8,3 C 11,8 C 3,2 km/h (1 Bft) 100,00 %
23.04.2016 21:42 11,9 C 79 % 1001,7 hPa 0,0 l/m 1,2 km/h (1 Bft) O-SO 116 0 min 0,000 mm 0,0 UV-I 0 W/m 8,4 C 11,9 C 3,2 km/h (1 Bft) 100,00 %
23.04.2016 21:43 11,9 C 78 % 1001,7 hPa 0,0 l/m 0,9 km/h (0 Bft) O-SO 116 0 min 0,000 mm 0,0 UV-I 0 W/m 8,2 C 11,9 C 1,6 km/h (1 Bft) 95,83 %
23.04.2016 21:44 11,9 C 78 % 1001,7 hPa 0,0 l/m 2,5 km/h (1 Bft) O-SO 116 0 min 0,000 mm 0,0 UV-I 0 W/m 8,2 C 11,9 C 3,2 km/h (1 Bft) 100,00 %
23.04.2016 21:45 11,9 C 78 % 1001,7 hPa 0,0 l/m 4,5 km/h (1 Bft) O-SO 118 0 min 0,000 mm 0,0 UV-I 0 W/m 8,2 C 11,9 C 4,8 km/h (1 Bft) 100,00 %
23.04.2016 21:46 11,9 C 78 % 1001,7 hPa 0,0 l/m 3,6 km/h (1 Bft) SO 134 0 min 0,000 mm 0,0 UV-I 0 W/m 8,2 C 11,9 C 4,8 km/h (1 Bft) 100,00 %
23.04.2016 21:47 11,9 C 78 % 1001,7 hPa 0,0 l/m 3,1 km/h (1 Bft) SO 134 0 min 0,000 mm 0,0 UV-I 0 W/m 8,2 C 11,9 C 4,8 km/h (1 Bft) 100,00 %
23.04.2016 21:48 12,0 C 77 % 1001,7 hPa 0,0 l/m 3,2 km/h (1 Bft) SO 134 0 min 0,000 mm 0,0 UV-I 0 W/m 8,1 C 12,0 C 4,8 km/h (1 Bft) 100,00 %
23.04.2016 21:49 12,0 C 77 % 1001,7 hPa 0,0 l/m 4,3 km/h (1 Bft) S 185 0 min 0,000 mm 0,0 UV-I 0 W/m 8,1 C 12,0 C 6,4 km/h (2 Bft) 100,00 %
23.04.2016 21:50 12,1 C 77 % 1001,7 hPa 0,0 l/m 5,1 km/h (1 Bft) S 184 0 min 0,000 mm 0,0 UV-I 0 W/m 8,2 C 12,1 C 8,0 km/h (2 Bft) 100,00 %
23.04.2016 21:51 12,0 C 78 % 1001,7 hPa 0,0 l/m 4,1 km/h (1 Bft) S 179 0 min 0,000 mm 0,0 UV-I 0 W/m 8,3 C 12,0 C 6,4 km/h (2 Bft) 100,00 %
23.04.2016 21:52 12,0 C 78 % 1001,7 hPa 0,0 l/m 5,2 km/h (1 Bft) S 182 0 min 0,000 mm 0,0 UV-I 0 W/m 8,3 C 12,0 C 6,4 km/h (2 Bft) 95,65 %
23.04.2016 21:53 12,0 C 78 % 1001,8 hPa 0,0 l/m 4,5 km/h (1 Bft) S 182 0 min 0,000 mm 0,0 UV-I 0 W/m 8,3 C 12,0 C 4,8 km/h (1 Bft) 100,00 %
23.04.2016 21:54 11,9 C 78 % 1001,8 hPa 0,0 l/m 4,5 km/h (1 Bft) S 171 0 min 0,000 mm 0,0 UV-I 0 W/m 8,2 C 11,9 C 6,4 km/h (2 Bft) 100,00 %
23.04.2016 21:55 11,9 C 78 % 1001,7 hPa 0,0 l/m 2,9 km/h (1 Bft) S 171 0 min 0,000 mm 0,0 UV-I 0 W/m 8,2 C 11,9 C 6,4 km/h (2 Bft) 100,00 %
23.04.2016 21:56 11,9 C 78 % 1001,8 hPa 0,0 l/m 2,3 km/h (1 Bft) S 171 0 min 0,000 mm 0,0 UV-I 0 W/m 8,2 C 11,9 C 6,4 km/h (2 Bft) 100,00 %
23.04.2016 21:57 11,9 C 78 % 1001,7 hPa 0,0 l/m 1,9 km/h (1 Bft) S 171 0 min 0,000 mm 0,0 UV-I 0 W/m 8,2 C 11,9 C 3,2 km/h (1 Bft) 100,00 %
23.04.2016 21:58 12,0 C 78 % 1001,7 hPa 0,0 l/m 4,5 km/h (1 Bft) S 177 0 min 0,000 mm 0,0 UV-I 0 W/m 8,3 C 12,0 C 6,4 km/h (2 Bft) 100,00 %
23.04.2016 21:59 12,0 C 78 % 1001,7 hPa 0,0 l/m 3,1 km/h (1 Bft) S 176 0 min 0,000 mm 0,0 UV-I 0 W/m 8,3 C 12,0 C 4,8 km/h (1 Bft) 100,00 %
23.04.2016 22:00 12,0 C 78 % 1001,7 hPa 0,0 l/m 3,5 km/h (1 Bft) S 176 0 min 0,000 mm 0,0 UV-I 0 W/m 8,3 C 12,0 C 4,8 km/h (1 Bft) 100,00 %
23.04.2016 22:02 12,0 C 78 % 1001,8 hPa 0,0 l/m 3,2 km/h (1 Bft) S-SO 165 0 min 0,000 mm 0,0 UV-I 0 W/m 8,3 C 12,0 C 6,4 km/h (2 Bft) 98,00 %
23.04.2016 22:03 12,0 C 77 % 1001,8 hPa 0,0 l/m 2,7 km/h (1 Bft) S-SO 164 0 min 0,000 mm 0,0 UV-I 0 W/m 8,1 C 12,0 C 6,4 km/h (2 Bft) 100,00 %
23.04.2016 22:04 12,1 C 77 % 1001,8 hPa 0,0 l/m 2,9 km/h (1 Bft) S-SO 164 0 min 0,000 mm 0,0 UV-I 0 W/m 8,2 C 12,1 C 6,4 km/h (2 Bft) 100,00 %
23.04.2016 22:05 12,1 C 77 % 1001,7 hPa 0,0 l/m 3,9 km/h (1 Bft) S-SO 165 0 min 0,000 mm 0,0 UV-I 0 W/m 8,2 C 12,1 C 6,4 km/h (2 Bft) 100,00 %
23.04.2016 22:06 12,1 C 78 % 1001,8 hPa 0,0 l/m 5,4 km/h (1 Bft) S-SO 165 0 min 0,000 mm 0,0 UV-I 0 W/m 8,4 C 12,1 C 6,4 km/h (2 Bft) 100,00 %
23.04.2016 22:07 12,1 C 78 % 1001,8 hPa 0,0 l/m 4,4 km/h (1 Bft) S 179 0 min 0,000 mm 0,0 UV-I 0 W/m 8,4 C 12,1 C 6,4 km/h (2 Bft) 100,00 %
23.04.2016 22:08 12,0 C 78 % 1001,8 hPa 0,0 l/m 3,5 km/h (1 Bft) S 180 0 min 0,000 mm 0,0 UV-I 0 W/m 8,3 C 12,0 C 4,8 km/h (1 Bft) 96,30 %
23.04.2016 22:09 12,0 C 78 % 1001,8 hPa 0,0 l/m 3,6 km/h (1 Bft) S 180 0 min 0,000 mm 0,0 UV-I 0 W/m 8,3 C 12,0 C 4,8 km/h (1 Bft) 100,00 %
23.04.2016 22:10 12,0 C 78 % 1001,8 hPa 0,0 l/m 2,3 km/h (1 Bft) S 180 0 min 0,000 mm 0,0 UV-I 0 W/m 8,3 C 12,0 C 3,2 km/h (1 Bft) 100,00 %
23.04.2016 22:11 11,9 C 79 % 1001,8 hPa 0,0 l/m 2,8 km/h (1 Bft) S 184 0 min 0,000 mm 0,0 UV-I 0 W/m 8,4 C 11,9 C 4,8 km/h (1 Bft) 100,00 %
23.04.2016 22:12 11,9 C 79 % 1001,8 hPa 0,0 l/m 4,1 km/h (1 Bft) S-SW 207 0 min 0,000 mm 0,0 UV-I 0 W/m 8,4 C 11,9 C 6,4 km/h (2 Bft) 100,00 %
23.04.2016 22:13 11,9 C 80 % 1001,8 hPa 0,0 l/m 4,2 km/h (1 Bft) S-SW 209 0 min 0,000 mm 0,0 UV-I 0 W/m 8,6 C 11,9 C 4,8 km/h (1 Bft) 100,00 %
23.04.2016 22:14 11,9 C 81 % 1001,8 hPa 0,0 l/m 5,2 km/h (1 Bft) SW 224 0 min 0,000 mm 0,0 UV-I 0 W/m 8,7 C 11,9 C 6,4 km/h (2 Bft) 95,65 %
23.04.2016 22:15 11,8 C 81 % 1001,8 hPa 0,0 l/m 5,1 km/h (1 Bft) SW 215 0 min 0,000 mm 0,0 UV-I 0 W/m 8,6 C 11,8 C 6,4 km/h (2 Bft) 100,00 %
23.04.2016 22:16 11,8 C 82 % 1001,8 hPa 0,0 l/m 4,2 km/h (1 Bft) SW 216 0 min 0,000 mm 0,0 UV-I 0 W/m 8,8 C 11,8 C 4,8 km/h (1 Bft) 100,00 %
23.04.2016 22:18 11,7 C 83 % 1001,9 hPa 0,0 l/m 3,3 km/h (1 Bft) SW 217 0 min 0,000 mm 0,0 UV-I 0 W/m 8,9 C 11,7 C 4,8 km/h (1 Bft) 100,00 %
23.04.2016 22:19 11,6 C 83 % 1001,9 hPa 0,0 l/m 4,2 km/h (1 Bft) SW 220 0 min 0,000 mm 0,0 UV-I 0 W/m 8,8 C 11,6 C 4,8 km/h (1 Bft) 100,00 %
23.04.2016 22:21 11,6 C 82 % 1002,0 hPa 0,0 l/m 8,0 km/h (2 Bft) W-SW 258 0 min 0,000 mm 0,0 UV-I 0 W/m 8,6 C 10,5 C 12,9 km/h (3 Bft) 100,00 %
23.04.2016 22:22 11,6 C 82 % 1002,1 hPa 0,0 l/m 11,2 km/h (2 Bft) W 259 0 min 0,000 mm 0,0 UV-I 0 W/m 8,6 C 8,7 C 12,9 km/h (3 Bft) 100,00 %
23.04.2016 22:23 11,5 C 82 % 1002,1 hPa 0,0 l/m 13,0 km/h (3 Bft) W-SW 257 0 min 0,000 mm 0,0 UV-I 0 W/m 8,5 C 7,8 C 14,5 km/h (3 Bft) 100,00 %
23.04.2016 22:24 11,5 C 82 % 1002,2 hPa 0,0 l/m 14,2 km/h (3 Bft) W 279 0 min 0,000 mm 0,0 UV-I 0 W/m 8,5 C 7,3 C 24,1 km/h (4 Bft) 100,00 %
23.04.2016 22:25 11,5 C 82 % 1002,2 hPa 0,0 l/m 17,4 km/h (3 Bft) S-SW 199 0 min 0,000 mm 0,0 UV-I 0 W/m 8,5 C 6,1 C 24,1 km/h (4 Bft) 100,00 %
23.04.2016 22:26 11,4 C 82 % 1002,2 hPa 0,0 l/m 19,7 km/h (3 Bft) W-SW 246 0 min 0,000 mm 0,0 UV-I 0 W/m 8,4 C 5,2 C 27,4 km/h (4 Bft) 100,00 %
23.04.2016 22:27 11,3 C 82 % 1002,2 hPa 0,0 l/m 19,1 km/h (3 Bft) W 261 0 min 0,000 mm 0,0 UV-I 0 W/m 8,3 C 5,2 C 24,1 km/h (4 Bft) 100,00 %
23.04.2016 22:28 11,2 C 83 % 1002,2 hPa 0,0 l/m 18,3 km/h (3 Bft) W-SW 247 0 min 0,000 mm 0,0 UV-I 0 W/m 8,4 C 5,4 C 25,7 km/h (4 Bft) 100,00 %
23.04.2016 22:29 11,1 C 83 % 1002,2 hPa 0,0 l/m 22,6 km/h (4 Bft) W 275 0 min 0,000 mm 0,0 UV-I 0 W/m 8,3 C 3,9 C 32,2 km/h (5 Bft) 100,00 %
23.04.2016 22:30 10,8 C 83 % 1002,2 hPa 0,0 l/m 14,3 km/h (3 Bft) W-SW 252 0 min 0,000 mm 0,0 UV-I 0 W/m 8,0 C 6,4 C 30,6 km/h (5 Bft) 96,55 %
23.04.2016 22:31 10,7 C 83 % 1002,2 hPa 0,0 l/m 16,1 km/h (3 Bft) W 270 0 min 0,000 mm 0,0 UV-I 0 W/m 7,9 C 5,5 C 29,0 km/h (5 Bft) 96,30 %
23.04.2016 22:32 10,5 C 84 % 1002,3 hPa 0,0 l/m 15,7 km/h (3 Bft) W 259 0 min 0,000 mm 0,0 UV-I 0 W/m 7,9 C 5,5 C 24,1 km/h (4 Bft) 95,65 %
23.04.2016 22:33 10,3 C 84 % 1002,3 hPa 0,0 l/m 16,4 km/h (3 Bft) W-SW 252 0 min 0,000 mm 0,0 UV-I 0 W/m 7,7 C 4,9 C 25,7 km/h (4 Bft) 100,00 %
23.04.2016 22:34 10,2 C 85 % 1002,4 hPa 0,0 l/m 16,1 km/h (3 Bft) W 265 0 min 0,000 mm 0,0 UV-I 0 W/m 7,8 C 4,9 C 25,7 km/h (4 Bft) 100,00 %
23.04.2016 22:35 10,1 C 85 % 1002,4 hPa 0,0 l/m 16,3 km/h (3 Bft) W-SW 257 0 min 0,000 mm 0,0 UV-I 0 W/m 7,7 C 4,7 C 22,5 km/h (4 Bft) 100,00 %
23.04.2016 22:36 9,9 C 86 % 1002,4 hPa 0,0 l/m 14,2 km/h (3 Bft) W-NW 298 0 min 0,000 mm 0,0 UV-I 0 W/m 7,7 C 5,4 C 17,7 km/h (3 Bft) 100,00 %
23.04.2016 22:37 9,8 C 86 % 1002,4 hPa 0,0 l/m 18,0 km/h (3 Bft) W-SW 251 0 min 0,000 mm 0,0 UV-I 0 W/m 7,6 C 3,7 C 24,1 km/h (4 Bft) 100,00 %
23.04.2016 22:38 9,7 C 87 % 1002,4 hPa 0,0 l/m 17,4 km/h (3 Bft) W-SW 246 0 min 0,000 mm 0,0 UV-I 0 W/m 7,6 C 3,8 C 29,0 km/h (5 Bft) 100,00 %
23.04.2016 22:39 9,6 C 87 % 1002,5 hPa 0,0 l/m 7,7 km/h (2 Bft) W-NW 299 0 min 0,000 mm 0,0 UV-I 0 W/m 7,5 C 8,6 C 12,9 km/h (3 Bft) 100,00 %
23.04.2016 22:40 9,6 C 88 % 1002,5 hPa 0,0 l/m 13,0 km/h (3 Bft) W-NW 292 0 min 0,000 mm 0,0 UV-I 0 W/m 7,7 C 5,6 C 19,3 km/h (3 Bft) 100,00 %
23.04.2016 22:41 9,5 C 88 % 1002,5 hPa 0,2 l/m 8,3 km/h (2 Bft) W-SW 258 0 min 0,000 mm 0,0 UV-I 0 W/m 7,6 C 8,1 C 16,1 km/h (3 Bft) 100,00 %
23.04.2016 22:42 9,4 C 88 % 1002,5 hPa 0,0 l/m 11,5 km/h (2 Bft) W 278 0 min 0,000 mm 0,0 UV-I 0 W/m 7,5 C 6,1 C 19,3 km/h (3 Bft) 100,00 %
23.04.2016 22:43 9,4 C 89 % 1002,5 hPa 0,0 l/m 5,9 km/h (2 Bft) W-SW 245 0 min 0,000 mm 0,0 UV-I 0 W/m 7,7 C 9,4 C 9,7 km/h (2 Bft) 100,00 %
23.04.2016 22:44 9,3 C 89 % 1002,5 hPa 0,0 l/m 13,4 km/h (3 Bft) NW 304 0 min 0,000 mm 0,0 UV-I 0 W/m 7,6 C 5,0 C 19,3 km/h (3 Bft) 100,00 %
23.04.2016 22:45 9,3 C 89 % 1002,5 hPa 0,0 l/m 10,3 km/h (2 Bft) W-NW 296 0 min 0,000 mm 0,0 UV-I 0 W/m 7,6 C 6,6 C 19,3 km/h (3 Bft) 100,00 %
23.04.2016 22:46 9,2 C 89 % 1002,5 hPa 0,0 l/m 9,1 km/h (2 Bft) W 259 0 min 0,000 mm 0,0 UV-I 0 W/m 7,5 C 7,3 C 11,3 km/h (2 Bft) 100,00 %
23.04.2016 22:47 9,2 C 89 % 1002,5 hPa 0,0 l/m 9,9 km/h (2 Bft) W-NW 288 0 min 0,000 mm 0,0 UV-I 0 W/m 7,5 C 6,8 C 16,1 km/h (3 Bft) 100,00 %
23.04.2016 22:48 9,1 C 90 % 1002,5 hPa 0,0 l/m 4,9 km/h (1 Bft) W-SW 255 0 min 0,000 mm 0,0 UV-I 0 W/m 7,5 C 9,1 C 6,4 km/h (2 Bft) 96,30 %
23.04.2016 22:49 9,1 C 90 % 1002,5 hPa 0,0 l/m 15,9 km/h (3 Bft) W-SW 245 0 min 0,000 mm 0,0 UV-I 0 W/m 7,5 C 3,7 C 25,7 km/h (4 Bft) 100,00 %
23.04.2016 22:50 9,1 C 90 % 1002,5 hPa 0,0 l/m 15,9 km/h (3 Bft) W 276 0 min 0,000 mm 0,0 UV-I 0 W/m 7,5 C 3,7 C 20,9 km/h (4 Bft) 100,00 %
23.04.2016 22:51 9,1 C 90 % 1002,5 hPa 0,0 l/m 9,3 km/h (2 Bft) W-NW 286 0 min 0,000 mm 0,0 UV-I 0 W/m 7,5 C 7,0 C 14,5 km/h (3 Bft) 100,00 %
23.04.2016 22:52 9,0 C 90 % 1002,6 hPa 0,2 l/m 14,2 km/h (3 Bft) NW 307 0 min 0,000 mm 0,0 UV-I 0 W/m 7,4 C 4,3 C 19,3 km/h (3 Bft) 100,00 %
23.04.2016 22:53 9,0 C 91 % 1002,5 hPa 0,0 l/m 8,9 km/h (2 Bft) W-SW 244 0 min 0,000 mm 0,0 UV-I 0 W/m 7,6 C 7,2 C 16,1 km/h (3 Bft) 100,00 %
23.04.2016 22:54 9,0 C 91 % 1002,6 hPa 0,0 l/m 10,2 km/h (2 Bft) W 267 0 min 0,000 mm 0,0 UV-I 0 W/m 7,6 C 6,4 C 14,5 km/h (3 Bft) 100,00 %
23.04.2016 22:55 8,9 C 91 % 1002,6 hPa 0,0 l/m 9,4 km/h (2 Bft) W 277 0 min 0,000 mm 0,0 UV-I 0 W/m 7,5 C 6,8 C 14,5 km/h (3 Bft) 100,00 %
23.04.2016 22:56 8,9 C 91 % 1002,5 hPa 0,0 l/m 7,1 km/h (2 Bft) W-SW 256 0 min 0,000 mm 0,0 UV-I 0 W/m 7,5 C 8,4 C 11,3 km/h (2 Bft) 100,00 %
23.04.2016 22:57 8,9 C 91 % 1002,6 hPa 0,0 l/m 5,7 km/h (1 Bft) W 267 0 min 0,000 mm 0,0 UV-I 0 W/m 7,5 C 8,9 C 11,3 km/h (2 Bft) 100,00 %
23.04.2016 22:58 8,9 C 91 % 1002,6 hPa 0,0 l/m 7,4 km/h (2 Bft) W-NW 288 0 min 0,000 mm 0,0 UV-I 0 W/m 7,5 C 8,1 C 12,9 km/h (3 Bft) 100,00 %
23.04.2016 22:59 8,9 C 91 % 1002,7 hPa 0,2 l/m 9,5 km/h (2 Bft) W 265 0 min 0,000 mm 0,0 UV-I 0 W/m 7,5 C 6,7 C 12,9 km/h (3 Bft) 100,00 %
23.04.2016 23:00 8,8 C 91 % 1002,7 hPa 0,0 l/m 9,5 km/h (2 Bft) W-NW 288 0 min 0,000 mm 0,0 UV-I 0 W/m 7,4 C 6,6 C 17,7 km/h (3 Bft) 94,44 %
23.04.2016 23:02 8,8 C 92 % 1002,7 hPa 0,0 l/m 5,7 km/h (1 Bft) W 269 0 min 0,025 mm 0,0 UV-I 0 W/m 7,6 C 8,8 C 9,7 km/h (2 Bft) 100,00 %
23.04.2016 23:03 8,8 C 92 % 1002,7 hPa 0,2 l/m 12,2 km/h (2 Bft) NW 315 0 min 0,000 mm 0,0 UV-I 0 W/m 7,6 C 5,0 C 16,1 km/h (3 Bft) 96,67 %
23.04.2016 23:04 8,8 C 92 % 1002,8 hPa 0,0 l/m 11,8 km/h (2 Bft) W 268 0 min 0,000 mm 0,0 UV-I 0 W/m 7,6 C 5,2 C 20,9 km/h (4 Bft) 90,91 %
23.04.2016 23:05 8,8 C 92 % 1002,8 hPa 0,0 l/m 10,1 km/h (2 Bft) W-SW 237 0 min 0,000 mm 0,0 UV-I 0 W/m 7,6 C 6,2 C 17,7 km/h (3 Bft) 96,30 %
23.04.2016 23:06 8,8 C 92 % 1002,9 hPa 0,0 l/m 11,7 km/h (2 Bft) W 259 0 min 0,000 mm 0,0 UV-I 0 W/m 7,6 C 5,3 C 14,5 km/h (3 Bft) 96,55 %
23.04.2016 23:07 8,8 C 92 % 1002,8 hPa 0,0 l/m 16,9 km/h (3 Bft) W 264 0 min 0,000 mm 0,0 UV-I 0 W/m 7,6 C 2,9 C 25,7 km/h (4 Bft) 100,00 %
23.04.2016 23:08 8,7 C 92 % 1002,9 hPa 0,0 l/m 10,9 km/h (2 Bft) W 260 0 min 0,000 mm 0,0 UV-I 0 W/m 7,5 C 5,6 C 16,1 km/h (3 Bft) 91,30 %
23.04.2016 23:09 8,7 C 92 % 1002,9 hPa 0,0 l/m 15,7 km/h (3 Bft) W-NW 297 0 min 0,000 mm 0,0 UV-I 0 W/m 7,5 C 3,3 C 19,3 km/h (3 Bft) 100,00 %
23.04.2016 23:10 8,7 C 92 % 1002,9 hPa 0,0 l/m 10,5 km/h (2 Bft) NW 308 0 min 0,000 mm 0,0 UV-I 0 W/m 7,5 C 5,9 C 16,1 km/h (3 Bft) 89,66 %
23.04.2016 23:11 8,7 C 92 % 1003,0 hPa 0,2 l/m 11,8 km/h (2 Bft) W-SW 244 0 min 0,000 mm 0,0 UV-I 0 W/m 7,5 C 5,1 C 19,3 km/h (3 Bft) 100,00 %
23.04.2016 23:12 8,7 C 92 % 1003,0 hPa 0,0 l/m 16,2 km/h (3 Bft) W 267 0 min 0,000 mm 0,0 UV-I 0 W/m 7,5 C 3,0 C 25,7 km/h (4 Bft) 95,65 %
23.04.2016 23:13 8,6 C 93 % 1003,0 hPa 0,0 l/m 15,8 km/h (3 Bft) W 260 0 min 0,000 mm 0,0 UV-I 0 W/m 7,5 C 3,1 C 22,5 km/h (4 Bft) 100,00 %
23.04.2016 23:14 8,6 C 93 % 1003,0 hPa 0,0 l/m 9,9 km/h (2 Bft) W-SW 257 0 min 0,000 mm 0,0 UV-I 0 W/m 7,5 C 6,1 C 17,7 km/h (3 Bft) 96,15 %
23.04.2016 23:15 8,6 C 93 % 1003,0 hPa 0,0 l/m 12,5 km/h (3 Bft) W 263 0 min 0,000 mm 0,0 UV-I 0 W/m 7,5 C 4,6 C 17,7 km/h (3 Bft) 95,83 %
23.04.2016 23:16 8,6 C 93 % 1003,2 hPa 0,0 l/m 19,5 km/h (3 Bft) W 263 0 min 0,000 mm 0,0 UV-I 0 W/m 7,5 C 1,7 C 29,0 km/h (5 Bft) 95,65 %
23.04.2016 23:17 8,6 C 93 % 1003,2 hPa 0,0 l/m 14,7 km/h (3 Bft) W 269 0 min 0,000 mm 0,0 UV-I 0 W/m 7,5 C 3,6 C 20,9 km/h (4 Bft) 95,83 %
23.04.2016 23:18 8,6 C 93 % 1003,2 hPa 0,0 l/m 22,1 km/h (4 Bft) W-SW 245 0 min 0,000 mm 0,0 UV-I 0 W/m 7,5 C 0,8 C 33,8 km/h (5 Bft) 100,00 %
23.04.2016 23:19 8,6 C 93 % 1003,3 hPa 0,2 l/m 22,5 km/h (4 Bft) W-NW 286 0 min 0,000 mm 0,0 UV-I 0 W/m 7,5 C 0,7 C 32,2 km/h (5 Bft) 92,31 %
23.04.2016 23:20 8,5 C 92 % 1003,3 hPa 0,0 l/m 19,4 km/h (3 Bft) W-SW 255 0 min 0,000 mm 0,0 UV-I 0 W/m 7,3 C 1,6 C 27,4 km/h (4 Bft) 100,00 %
23.04.2016 23:21 8,5 C 92 % 1003,4 hPa 0,0 l/m 19,5 km/h (3 Bft) W-SW 246 0 min 0,000 mm 0,0 UV-I 0 W/m 7,3 C 1,5 C 24,1 km/h (4 Bft) 95,65 %
23.04.2016 23:22 8,5 C 92 % 1003,4 hPa 0,0 l/m 18,8 km/h (3 Bft) W-SW 256 0 min 0,000 mm 0,0 UV-I 0 W/m 7,3 C 1,8 C 27,4 km/h (4 Bft) 100,00 %
23.04.2016 23:23 8,4 C 92 % 1003,5 hPa 0,0 l/m 15,2 km/h (3 Bft) W-SW 242 0 min 0,000 mm 0,0 UV-I 0 W/m 7,2 C 3,1 C 27,4 km/h (4 Bft) 96,15 %
23.04.2016 23:24 8,4 C 92 % 1003,5 hPa 0,0 l/m 13,1 km/h (3 Bft) W 277 0 min 0,000 mm 0,0 UV-I 0 W/m 7,2 C 4,1 C 16,1 km/h (3 Bft) 100,00 %
23.04.2016 23:25 8,4 C 92 % 1003,6 hPa 0,0 l/m 14,8 km/h (3 Bft) SW 225 0 min 0,000 mm 0,0 UV-I 0 W/m 7,2 C 3,3 C 22,5 km/h (4 Bft) 95,00 %
23.04.2016 23:26 8,4 C 93 % 1003,5 hPa 0,2 l/m 17,8 km/h (3 Bft) W 279 0 min 0,000 mm 0,0 UV-I 0 W/m 7,3 C 2,0 C 25,7 km/h (4 Bft) 96,30 %
23.04.2016 23:27 8,3 C 92 % 1003,6 hPa 0,0 l/m 16,1 km/h (3 Bft) W-SW 250 0 min 0,000 mm 0,0 UV-I 0 W/m 7,1 C 2,6 C 22,5 km/h (4 Bft) 100,00 %
23.04.2016 23:28 8,3 C 92 % 1003,7 hPa 0,0 l/m 13,2 km/h (3 Bft) W-SW 255 0 min 0,000 mm 0,0 UV-I 0 W/m 7,1 C 3,9 C 25,7 km/h (4 Bft) 95,83 %
23.04.2016 23:29 8,3 C 92 % 1003,7 hPa 0,0 l/m 20,9 km/h (4 Bft) W-SW 244 0 min 0,000 mm 0,0 UV-I 0 W/m 7,1 C 0,8 C 30,6 km/h (5 Bft) 100,00 %
23.04.2016 23:30 8,3 C 92 % 1003,8 hPa 0,0 l/m 21,9 km/h (4 Bft) W 263 0 min 0,000 mm 0,0 UV-I 0 W/m 7,1 C 0,5 C 33,8 km/h (5 Bft) 95,83 %
23.04.2016 23:31 8,3 C 92 % 1003,8 hPa 0,0 l/m 18,7 km/h (3 Bft) W-SW 246 0 min 0,000 mm 0,0 UV-I 0 W/m 7,1 C 1,6 C 25,7 km/h (4 Bft) 100,00 %
23.04.2016 23:32 8,3 C 93 % 1003,9 hPa 0,2 l/m 13,4 km/h (3 Bft) W 262 0 min 0,000 mm 0,0 UV-I 0 W/m 7,2 C 3,8 C 20,9 km/h (4 Bft) 96,15 %
23.04.2016 23:33 8,3 C 93 % 1003,9 hPa 0,0 l/m 20,4 km/h (4 Bft) W-NW 282 0 min 0,000 mm 0,0 UV-I 0 W/m 7,2 C 1,0 C 29,0 km/h (5 Bft) 100,00 %
23.04.2016 23:34 8,3 C 93 % 1004,0 hPa 0,0 l/m 13,1 km/h (3 Bft) W-SW 252 0 min 0,000 mm 0,0 UV-I 0 W/m 7,2 C 4,0 C 20,9 km/h (4 Bft) 92,86 %
23.04.2016 23:35 8,2 C 93 % 1004,0 hPa 0,2 l/m 14,8 km/h (3 Bft) W 269 0 min 0,000 mm 0,0 UV-I 0 W/m 7,1 C 3,0 C 22,5 km/h (4 Bft) 96,30 %
23.04.2016 23:36 8,2 C 93 % 1004,1 hPa 0,0 l/m 18,3 km/h (3 Bft) W 265 0 min 0,000 mm 0,0 UV-I 0 W/m 7,1 C 1,6 C 27,4 km/h (4 Bft) 96,55 %
23.04.2016 23:37 8,2 C 93 % 1004,1 hPa 0,0 l/m 14,1 km/h (3 Bft) W 265 0 min 0,000 mm 0,0 UV-I 0 W/m 7,1 C 3,4 C 25,7 km/h (4 Bft) 100,00 %
23.04.2016 23:38 8,2 C 93 % 1004,2 hPa 0,2 l/m 19,1 km/h (3 Bft) W 265 0 min 0,000 mm 0,0 UV-I 0 W/m 7,1 C 1,3 C 24,1 km/h (4 Bft) 100,00 %
23.04.2016 23:39 8,2 C 93 % 1004,2 hPa 0,0 l/m 14,3 km/h (3 Bft) W 265 0 min 0,000 mm 0,0 UV-I 0 W/m 7,1 C 3,3 C 19,3 km/h (3 Bft) 100,00 %
23.04.2016 23:40 8,2 C 93 % 1004,3 hPa 0,2 l/m 14,6 km/h (3 Bft) W-SW 249 0 min 0,000 mm 0,0 UV-I 0 W/m 7,1 C 3,1 C 22,5 km/h (4 Bft) 100,00 %
23.04.2016 23:41 8,1 C 93 % 1004,3 hPa 0,0 l/m 12,8 km/h (3 Bft) W-SW 258 0 min 0,000 mm 0,0 UV-I 0 W/m 7,0 C 3,9 C 16,1 km/h (3 Bft) 100,00 %
23.04.2016 23:42 8,1 C 93 % 1004,3 hPa 0,2 l/m 14,1 km/h (3 Bft) W-SW 257 0 min 0,000 mm 0,0 UV-I 0 W/m 7,0 C 3,3 C 19,3 km/h (3 Bft) 100,00 %
23.04.2016 23:43 8,1 C 93 % 1004,3 hPa 0,0 l/m 12,3 km/h (3 Bft) W 263 0 min 0,000 mm 0,0 UV-I 0 W/m 7,0 C 4,2 C 17,7 km/h (3 Bft) 100,00 %
23.04.2016 23:44 8,1 C 93 % 1004,4 hPa 0,2 l/m 13,5 km/h (3 Bft) W-SW 253 0 min 0,000 mm 0,0 UV-I 0 W/m 7,0 C 3,5 C 17,7 km/h (3 Bft) 91,30 %
23.04.2016 23:45 8,1 C 93 % 1004,4 hPa 0,0 l/m 13,8 km/h (3 Bft) W 273 0 min 0,000 mm 0,0 UV-I 0 W/m 7,0 C 3,4 C 24,1 km/h (4 Bft) 95,83 %
23.04.2016 23:46 8,1 C 93 % 1004,4 hPa 0,2 l/m 12,9 km/h (3 Bft) S-SW 205 0 min 0,000 mm 0,0 UV-I 0 W/m 7,0 C 3,8 C 17,7 km/h (3 Bft) 100,00 %
23.04.2016 23:47 8,1 C 93 % 1004,4 hPa 0,0 l/m 15,2 km/h (3 Bft) W 263 0 min 0,000 mm 0,0 UV-I 0 W/m 7,0 C 2,7 C 22,5 km/h (4 Bft) 100,00 %
23.04.2016 23:48 8,0 C 93 % 1004,5 hPa 0,2 l/m 15,3 km/h (3 Bft) W 265 0 min 0,000 mm 0,0 UV-I 0 W/m 6,9 C 2,6 C 19,3 km/h (3 Bft) 100,00 %
23.04.2016 23:49 8,0 C 93 % 1004,5 hPa 0,0 l/m 16,8 km/h (3 Bft) W 260 0 min 0,000 mm 0,0 UV-I 0 W/m 6,9 C 1,9 C 22,5 km/h (4 Bft) 100,00 %
23.04.2016 23:50 8,0 C 93 % 1004,5 hPa 0,2 l/m 20,7 km/h (4 Bft) W-SW 247 0 min 0,000 mm 0,0 UV-I 0 W/m 6,9 C 0,5 C 27,4 km/h (4 Bft) 100,00 %
23.04.2016 23:51 8,0 C 93 % 1004,6 hPa 0,2 l/m 14,6 km/h (3 Bft) W 262 0 min 0,000 mm 0,0 UV-I 0 W/m 6,9 C 2,9 C 20,9 km/h (4 Bft) 100,00 %
23.04.2016 23:52 7,9 C 93 % 1004,6 hPa 0,2 l/m 13,4 km/h (3 Bft) W 279 0 min 0,000 mm 0,0 UV-I 0 W/m 6,8 C 3,4 C 22,5 km/h (4 Bft) 86,67 %
23.04.2016 23:53 7,9 C 93 % 1004,7 hPa 0,0 l/m 17,8 km/h (3 Bft) W 266 0 min 0,000 mm 0,0 UV-I 0 W/m 6,8 C 1,4 C 25,7 km/h (4 Bft) 100,00 %
23.04.2016 23:54 7,9 C 93 % 1004,7 hPa 0,2 l/m 17,5 km/h (3 Bft) W 274 0 min 0,000 mm 0,0 UV-I 0 W/m 6,8 C 1,5 C 29,0 km/h (5 Bft) 96,15 %
23.04.2016 23:55 7,9 C 93 % 1004,6 hPa 0,2 l/m 14,1 km/h (3 Bft) W-SW 256 0 min 0,000 mm 0,0 UV-I 0 W/m 6,8 C 3,0 C 20,9 km/h (4 Bft) 100,00 %
23.04.2016 23:56 7,9 C 93 % 1004,7 hPa 0,0 l/m 11,8 km/h (2 Bft) W 262 0 min 0,000 mm 0,0 UV-I 0 W/m 6,8 C 4,2 C 16,1 km/h (3 Bft) 100,00 %
23.04.2016 23:57 7,9 C 93 % 1004,8 hPa 0,2 l/m 13,8 km/h (3 Bft) W-SW 254 0 min 0,000 mm 0,0 UV-I 0 W/m 6,8 C 3,2 C 19,3 km/h (3 Bft) 100,00 %
23.04.2016 23:58 7,8 C 93 % 1004,8 hPa 0,2 l/m 15,8 km/h (3 Bft) W 266 0 min 0,000 mm 0,0 UV-I 0 W/m 6,7 C 2,1 C 27,4 km/h (4 Bft) 100,00 %
23.04.2016 23:59 7,8 C 93 % 1004,8 hPa 0,0 l/m 22,1 km/h (4 Bft) W-SW 257 0 min 0,000 mm 0,0 UV-I 0 W/m 6,7 C -0,3 C 35,4 km/h (5 Bft) 90,91 %
_ Min-Zeit 06:39 16:19 20:22 - 05:25 - - - - - - 04:59 23:59 05:25 04:01
Minimum _ 7,3 C 51 % 1001,5 hPa - 0,0 km/h (0 Bft) - - - - - - 3,4 C -0,3 C 0,0 km/h (0 Bft) 66,67 %
_ Max-Zeit 16:14 23:13 00:00 22:41 22:29 - - 10:54 12:00 12:34 12:35 20:08 16:12 23:59 00:00
Maximum _ 15,8 C 93 % 1010,3 hPa 0,2 l/m 22,6 km/h
W (4 Bft)
- - 1 min 0,254 mm 3,0 UV-I 579 W/m 9,2 C 15,7 C 35,4 km/h
W-SW (5 Bft)
100,00 %
Durchschnitt _ 11,3 C 71 % 1005,0 hPa #4,4 l/m 4,1 km/h (1 Bft) O-NO - #3:00 h #1,981 mm 1,7 UV-I 238 W/m 6,0 C 10,9 C 6,3 km/h (2 Bft) 98,49 %